[[{"header":{"parameterUnit":"m.s-1","parameterCategory":1,"la1":30.6,"la2":29.2853,"lo1":-89.7004,"lo2":-87.6739,"dx":0.0162,"dy":0.0183,"nx":112,"ny":82,"refTime":"2022-12-22T06:00:00:Z","depth":0,"parameterNumber":2,"parameterNumberName":"U-component_of_WINDS"},"data":[0.0,0.0,0.0,0.0,0.0,0.0,0.0,0.0,0.0,0.0,0.0,0.0,0.0,0.0,0.0,0.0,0.0,0.0,0.0,0.0,0.0,0.0,0.0,0.0,0.0,0.0,0.0,0.0,0.0,0.0,0.0,0.0,0.0,0.0,0.0,0.0,0.0,0.0,0.0,0.0,0.0,0.0,0.0,0.0,0.0,0.0,0.0,0.0,0.0,0.0,0.0,0.0,0.0,0.0,0.0,0.0,0.0,0.0,0.0,0.0,0.0,0.0,0.0,0.0,0.0,0.0,0.0,0.0,0.0,0.0,0.0,0.0,0.0,0.0,0.0,0.0,0.0,0.0,0.0,0.0,0.0,0.0,0.0,0.0,0.0,0.0,0.0,0.0,0.0,0.0,3.3225,3.3865,3.5036,3.5797,3.5797,3.413,3.212,2.9898,0.0,0.0,0.0,0.0,0.0,0.0,0.0,0.0,0.0,0.0,0.0,0.0,0.0,0.0,0.0,0.0,0.0,0.0,0.0,0.0,0.0,0.0,0.0,0.0,0.0,0.0,0.0,0.0,0.0,0.0,0.0,0.0,0.0,0.0,0.0,0.0,0.0,0.0,0.0,0.0,0.0,0.0,0.0,0.0,0.0,0.0,0.0,0.0,0.0,0.0,0.0,0.0,0.0,0.0,0.0,0.0,0.0,0.0,0.0,0.0,0.0,0.0,0.0,0.0,0.0,0.0,0.0,0.0,0.0,0.0,0.0,0.0,0.0,0.0,0.0,0.0,0.0,0.0,0.0,0.0,0.0,0.0,0.0,0.0,0.0,0.0,0.0,0.0,0.0,0.0,0.0,0.0,0.0,0.0,0.0,0.0,0.0,0.0,0.0,0.0,0.0,0.0,0.0,0.0,3.4151,3.609,3.6479,3.6615,3.6615,3.5753,3.3855,3.0645,0.0,0.0,0.0,0.0,0.0,0.0,0.0,0.0,0.0,0.0,0.0,0.0,0.0,0.0,0.0,0.0,0.0,0.0,0.0,0.0,0.0,0.0,0.0,0.0,0.0,0.0,0.0,0.0,0.0,0.0,0.0,0.0,0.0,0.0,0.0,0.0,0.0,0.0,0.0,0.0,0.0,0.0,0.0,0.0,0.0,0.0,0.0,0.0,0.0,0.0,0.0,0.0,0.0,0.0,0.0,0.0,0.0,0.0,0.0,0.0,0.0,0.0,0.0,0.0,0.0,0.0,0.0,0.0,0.0,0.0,0.0,0.0,0.0,0.0,0.0,0.0,0.0,0.0,0.0,0.0,0.0,0.0,0.0,0.0,0.0,0.0,0.0,0.0,0.0,0.0,0.0,0.0,0.0,0.0,0.0,0.0,0.0,0.0,0.0,0.0,0.0,0.0,0.0,3.4131,3.5634,3.7226,3.7398,3.7398,3.7398,3.6354,3.4562,3.1906,2.8275,0.0,0.0,0.0,0.0,0.0,0.0,0.0,0.0,0.0,0.0,0.0,0.0,0.0,0.0,0.0,0.0,0.0,0.0,0.0,0.0,0.0,0.0,0.0,0.0,0.0,0.0,0.0,0.0,0.0,0.0,0.0,0.0,0.0,0.0,0.0,0.0,0.0,0.0,0.0,0.0,0.0,0.0,0.0,0.0,0.0,0.0,0.0,0.0,0.0,0.0,0.0,0.0,0.0,0.0,0.0,0.0,0.0,0.0,0.0,0.0,0.0,0.0,0.0,0.0,0.0,0.0,0.0,0.0,0.0,0.0,0.0,0.0,0.0,0.0,0.0,0.0,0.0,0.0,0.0,0.0,0.0,0.0,0.0,0.0,0.0,0.0,0.0,0.0,0.0,0.0,0.0,0.0,0.0,0.0,0.0,0.0,0.0,0.0,0.0,0.0,0.0,0.0,3.597,3.6862,3.8026,3.8159,3.8159,3.8159,3.6817,3.5026,3.2832,2.963,0.0,0.0,0.0,0.0,0.0,0.0,0.0,0.0,0.0,0.0,0.0,0.0,0.0,0.0,0.0,0.0,0.0,0.0,0.0,0.0,0.0,0.0,0.0,0.0,0.0,0.0,0.0,0.0,0.0,0.0,0.0,0.0,0.0,0.0,0.0,0.0,0.0,0.0,0.0,0.0,0.0,0.0,0.0,0.0,0.0,0.0,0.0,0.0,0.0,0.0,0.0,0.0,0.0,0.0,0.0,0.0,0.0,0.0,0.0,0.0,0.0,0.0,0.0,0.0,0.0,0.0,0.0,0.0,0.0,0.0,0.0,0.0,0.0,0.0,0.0,0.0,0.0,0.0,0.0,0.0,0.0,0.0,0.0,0.0,0.0,0.0,0.0,0.0,0.0,0.0,0.0,0.0,0.0,0.0,0.0,0.0,0.0,0.0,0.0,0.0,0.0,0.0,3.6396,3.7321,3.8763,3.892,3.892,3.892,3.7577,3.5567,3.2872,3.007,0.0,0.0,0.0,0.0,0.0,0.0,0.0,0.0,0.0,0.0,0.0,0.0,0.0,0.0,0.0,0.0,0.0,0.0,0.0,0.0,0.0,0.0,0.0,0.0,0.0,0.0,0.0,0.0,0.0,0.0,0.0,0.0,0.0,0.0,0.0,0.0,0.0,0.0,0.0,0.0,0.0,0.0,0.0,0.0,0.0,0.0,0.0,0.0,0.0,0.0,0.0,0.0,0.0,0.0,0.0,0.0,0.0,0.0,0.0,0.0,0.0,0.0,0.0,0.0,0.0,0.0,0.0,0.0,0.0,0.0,0.0,0.0,0.0,0.0,0.0,0.0,0.0,0.0,0.0,0.0,0.0,0.0,0.0,0.0,0.0,0.0,0.0,0.0,0.0,0.0,0.0,0.0,0.0,0.0,0.0,0.0,0.0,0.0,0.0,0.0,0.0,0.0,3.7146,3.8333,3.9562,3.969,3.9484,3.8981,3.8008,3.6077,3.2903,0.0,0.0,0.0,0.0,0.0,0.0,0.0,0.0,0.0,0.0,0.0,0.0,0.0,0.0,0.0,0.0,0.0,0.0,0.0,0.0,0.0,0.0,0.0,0.0,0.0,0.0,0.0,0.0,0.0,0.0,0.0,0.0,0.0,0.0,0.0,0.0,0.0,0.0,0.0,0.0,0.0,0.0,0.0,0.0,0.0,0.0,0.0,0.0,0.0,0.0,0.0,0.0,0.0,0.0,0.0,0.0,0.0,0.0,0.0,0.0,0.0,0.0,0.0,0.0,0.0,0.0,0.0,0.0,0.0,0.0,0.0,0.0,0.0,0.0,0.0,0.0,0.0,0.0,0.0,0.0,0.0,0.0,0.0,0.0,0.0,0.0,0.0,0.0,0.0,0.0,0.0,0.0,0.0,0.0,0.0,0.0,0.0,0.0,0.0,0.0,0.0,0.0,3.6011,3.7674,3.904,3.9998,4.0096,3.9889,3.9328,3.8372,3.6432,3.3243,0.0,0.0,0.0,0.0,0.0,0.0,0.0,0.0,0.0,0.0,0.0,0.0,0.0,0.0,0.0,0.0,0.0,0.0,0.0,0.0,0.0,0.0,0.0,0.0,0.0,0.0,0.0,0.0,0.0,0.0,0.0,0.0,0.0,0.0,0.0,0.0,0.0,0.0,0.0,0.0,0.0,0.0,0.0,0.0,0.0,0.0,0.0,0.0,0.0,0.0,0.0,0.0,0.0,0.0,0.0,0.0,0.0,0.0,0.0,0.0,0.0,0.0,0.0,0.0,0.0,0.0,0.0,0.0,0.0,0.0,0.0,0.0,0.0,0.0,0.0,0.0,0.0,0.0,0.0,0.0,0.0,0.0,0.0,0.0,0.0,0.0,0.0,0.0,0.0,0.0,0.0,0.0,0.0,0.0,0.0,0.0,0.0,0.0,0.0,0.0,0.0,0.0,3.6004,3.7882,3.9288,4.0028,4.0096,4.0083,4.0087,3.8682,3.6646,0.0,0.0,0.0,0.0,0.0,0.0,0.0,0.0,0.0,0.0,0.0,0.0,0.0,0.0,0.0,0.0,0.0,0.0,0.0,0.0,0.0,0.0,0.0,0.0,0.0,0.0,0.0,0.0,0.0,0.0,0.0,0.0,0.0,0.0,0.0,0.0,0.0,0.0,0.0,0.0,0.0,0.0,0.0,0.0,0.0,0.0,0.0,0.0,0.0,0.0,0.0,0.0,0.0,0.0,0.0,0.0,0.0,0.0,0.0,0.0,0.0,0.0,0.0,0.0,0.0,0.0,0.0,0.0,0.0,0.0,0.0,0.0,0.0,0.0,0.0,0.0,0.0,0.0,0.0,0.0,0.0,0.0,0.0,0.0,0.0,0.0,0.0,0.0,0.0,0.0,0.0,0.0,0.0,0.0,0.0,0.0,0.0,0.0,0.0,0.0,0.0,0.0,0.0,3.5679,3.8136,3.9846,4.0079,4.0096,3.9666,3.8569,3.8064,3.6608,3.3775,0.0,0.0,0.0,0.0,0.0,0.0,0.0,0.0,0.0,0.0,0.0,0.0,0.0,0.0,0.0,0.0,0.0,0.0,0.0,0.0,0.0,0.0,0.0,0.0,0.0,0.0,0.0,0.0,0.0,0.0,0.0,0.0,0.0,0.0,0.0,0.0,0.0,0.0,0.0,0.0,0.0,0.0,0.0,0.0,0.0,0.0,0.0,0.0,0.0,0.0,0.0,0.0,0.0,0.0,0.0,0.0,0.0,0.0,0.0,0.0,0.0,0.0,0.0,0.0,0.0,0.0,0.0,0.0,0.0,0.0,0.0,0.0,0.0,0.0,0.0,0.0,0.0,0.0,0.0,0.0,0.0,0.0,0.0,0.0,0.0,0.0,0.0,0.0,0.0,0.0,0.0,0.0,0.0,0.0,0.0,0.0,0.0,0.0,0.0,0.0,0.0,0.0,3.6423,3.8599,4.0096,4.0096,3.9808,3.9249,3.8332,3.7674,3.6371,3.412,0.0,0.0,0.0,0.0,0.0,0.0,0.0,0.0,0.0,0.0,0.0,0.0,0.0,0.0,0.0,0.0,0.0,0.0,0.0,0.0,0.0,0.0,0.0,0.0,0.0,0.0,0.0,0.0,0.0,0.0,0.0,0.0,0.0,0.0,0.0,0.0,0.0,0.0,0.0,0.0,0.0,0.0,0.0,0.0,0.0,0.0,0.0,0.0,0.0,0.0,0.0,0.0,0.0,0.0,0.0,0.0,0.0,0.0,0.0,0.0,0.0,0.0,0.0,0.0,0.0,0.0,0.0,0.0,0.0,0.0,0.0,0.0,0.0,0.0,0.0,0.0,0.0,0.0,0.0,0.0,0.0,0.0,0.0,0.0,0.0,0.0,0.0,0.0,0.0,0.0,0.0,0.0,0.0,0.0,0.0,0.0,0.0,0.0,0.0,0.0,0.0,0.0,3.7724,3.9186,4.0096,4.0096,3.945,3.8948,3.8813,3.7527,3.6164,3.4867,0.0,0.0,0.0,0.0,0.0,0.0,0.0,0.0,0.0,0.0,0.0,0.0,0.0,0.0,0.0,0.0,0.0,0.0,0.0,0.0,0.0,0.0,0.0,0.0,0.0,0.0,0.0,0.0,0.0,0.0,0.0,0.0,0.0,0.0,0.0,0.0,0.0,0.0,0.0,0.0,0.0,0.0,0.0,0.0,0.0,0.0,0.0,0.0,0.0,0.0,0.0,0.0,0.0,0.0,0.0,0.0,0.0,0.0,0.0,0.0,2.7461,2.4475,0.0,0.0,0.0,0.0,0.0,0.0,0.0,0.0,0.0,0.0,0.0,0.0,0.0,0.0,0.0,0.0,0.0,0.0,0.0,0.0,0.0,0.0,0.0,0.0,0.0,0.0,0.0,0.0,0.0,0.0,0.0,0.0,0.0,0.0,0.0,0.0,0.0,0.0,0.0,0.0,3.786,3.9186,4.0096,4.0096,3.994,3.9345,3.8149,3.7733,3.69,3.5421,3.5167,0.0,0.0,0.0,0.0,0.0,0.0,0.0,0.0,0.0,0.0,0.0,0.0,0.0,0.0,0.0,0.0,0.0,0.0,0.0,0.0,0.0,0.0,0.0,0.0,0.0,0.0,0.0,0.0,0.0,0.0,0.0,0.0,0.0,0.0,0.0,0.0,0.0,0.0,0.0,0.0,0.0,0.0,0.0,0.0,0.0,0.0,0.0,0.0,0.0,0.0,0.0,0.0,0.0,0.0,0.0,0.0,0.0,0.0,0.0,3.0581,2.8273,0.0,0.0,0.0,0.0,0.0,0.0,0.0,0.0,0.0,0.0,0.0,0.0,0.0,0.0,0.0,0.0,0.0,0.0,0.0,0.0,0.0,0.0,0.0,0.0,0.0,0.0,0.0,0.0,0.0,0.0,0.0,0.0,0.0,0.0,0.0,0.0,0.0,0.0,0.0,0.0,3.8916,3.9948,4.0641,4.0641,4.0247,3.9682,3.8888,3.8123,3.7204,3.605,3.6315,0.0,0.0,0.0,0.0,0.0,0.0,0.0,0.0,0.0,0.0,0.0,0.0,0.0,0.0,0.0,0.0,0.0,0.0,0.0,0.0,0.0,0.0,0.0,0.0,0.0,0.0,0.0,0.0,0.0,0.0,0.0,0.0,0.0,0.0,0.0,0.0,0.0,0.0,0.0,0.0,0.0,0.0,0.0,0.0,0.0,0.0,0.0,0.0,0.0,0.0,0.0,0.0,0.0,3.3829,3.4506,3.5081,3.5081,3.5785,3.6818,3.3721,3.2554,3.2672,3.0048,0.0,0.0,0.0,0.0,0.0,0.0,0.0,0.0,0.0,0.0,0.0,0.0,0.0,0.0,0.0,0.0,0.0,0.0,0.0,0.0,0.0,0.0,3.7577,3.8251,3.9422,3.9835,3.7851,0.0,0.0,0.0,0.0,0.0,0.0,0.0,0.0,0.0,0.0,0.0,4.0202,4.0815,4.1255,4.139,4.0751,4.0278,4.0143,3.8809,3.7634,3.6745,3.7248,3.6942,0.0,0.0,0.0,0.0,0.0,0.0,0.0,0.0,0.0,0.0,0.0,0.0,0.0,0.0,0.0,0.0,0.0,0.0,0.0,0.0,0.0,0.0,0.0,0.0,0.0,0.0,0.0,0.0,0.0,0.0,0.0,0.0,2.1616,2.2233,0.0,0.0,0.0,0.0,0.0,0.0,0.0,0.0,0.0,0.0,0.0,0.0,0.0,3.2368,3.3755,3.4698,3.552,3.622,3.6941,3.7352,3.7454,3.7454,3.7555,3.7736,3.7217,0.0,3.5087,3.4049,0.0,0.0,0.0,0.0,0.0,0.0,0.0,0.0,0.0,0.0,0.0,0.0,0.0,0.0,0.0,0.0,0.0,0.0,0.0,0.0,0.0,0.0,4.1875,4.1984,4.2183,4.2237,4.193,3.9626,3.7327,3.6316,3.6651,3.6967,0.0,0.0,0.0,0.0,0.0,0.0,4.0967,4.1136,4.1457,4.2097,4.2058,4.1721,4.1072,4.0152,3.9013,3.7621,3.7477,3.6849,3.5549,3.6058,0.0,0.0,0.0,0.0,0.0,0.0,0.0,0.0,0.0,0.0,0.0,0.0,0.0,0.0,0.0,0.0,0.0,0.0,0.0,0.0,0.0,0.0,0.0,0.0,0.0,0.0,0.0,0.0,0.0,2.0158,2.1772,2.3102,2.2969,2.2921,0.0,0.0,0.0,0.0,0.0,0.0,0.0,0.0,0.0,3.41,3.4584,3.5329,3.64,3.7144,3.7686,3.8053,3.878,3.9136,3.9136,3.9136,3.9136,3.9136,3.9136,3.8751,3.8019,3.6445,3.5481,3.4861,0.0,0.0,0.0,0.0,3.1968,3.1958,3.2994,3.3302,3.3298,3.3771,0.0,0.0,0.0,0.0,0.0,0.0,0.0,3.855,3.957,4.0817,4.195,4.2552,4.2711,4.2509,4.1825,4.0823,3.9773,3.8901,3.9077,3.9301,3.9129,3.9389,0.0,0.0,0.0,4.0984,4.1711,4.2172,4.256,4.2878,4.2881,4.2541,4.1718,4.0919,3.9787,3.8188,3.8079,3.7623,3.6613,3.6163,3.5115,0.0,0.0,0.0,0.0,0.0,0.0,0.0,0.0,0.0,0.0,0.0,0.0,0.0,0.0,0.0,0.0,0.0,0.0,0.0,0.0,0.0,0.0,0.0,0.0,0.0,0.0,0.0,0.0,2.1438,2.3169,2.4536,2.5268,2.5879,0.0,0.0,0.0,0.0,0.0,0.0,3.4203,3.4787,3.5504,3.6439,3.7043,3.7714,3.8464,3.9017,3.9288,3.9288,3.9829,4.0096,4.0096,4.0096,4.0096,4.0096,4.0096,4.0096,3.996,3.812,3.7579,3.777,3.6422,3.5442,3.481,3.5007,3.4925,3.4874,3.6062,3.6537,3.6666,3.6855,3.728,3.7619,3.7042,0.0,0.0,0.0,0.0,3.9881,4.0992,4.1495,4.1921,4.278,4.2865,4.2519,4.1679,4.1689,4.1578,4.0642,4.0868,4.1154,4.0999,4.0796,0.0,4.213,4.183,4.1745,4.2489,4.3051,4.349,4.369,4.3655,4.3275,4.2411,4.1628,4.0479,3.8832,3.8617,3.8292,3.7676,3.6582,3.5833,3.5519,0.0,0.0,0.0,0.0,0.0,0.0,0.0,0.0,0.0,0.0,0.0,0.0,0.0,0.0,0.0,0.0,0.0,0.0,0.0,0.0,0.0,0.0,0.0,0.0,0.0,0.0,0.0,0.0,0.0,2.745,2.9713,0.0,0.0,0.0,0.0,3.439,3.4499,3.5148,3.6558,3.666,3.7342,3.8768,3.8865,3.9237,3.9982,4.0028,4.0045,4.0045,4.0079,4.0096,4.0096,4.0096,4.0096,4.0096,4.0096,4.0096,4.0045,3.922,3.8497,3.7809,3.7038,3.6248,3.5645,3.6395,3.6671,3.6869,3.8323,3.8374,3.7929,3.8635,3.9104,3.9566,4.0528,4.0859,0.0,0.0,4.1285,4.2063,4.1833,4.2569,4.343,4.3692,4.3321,4.2937,4.3056,4.2523,4.1628,4.0381,4.1153,4.1852,4.1278,0.0,4.2215,4.23,4.2266,4.2506,4.3254,4.3389,4.3693,4.4465,4.4539,4.4181,4.3306,4.2441,4.1276,3.9731,3.8855,3.8385,3.8365,3.7689,3.6746,3.5534,3.6066,0.0,0.0,0.0,0.0,0.0,0.0,0.0,0.0,0.0,0.0,0.0,0.0,0.0,0.0,0.0,0.0,0.0,0.0,0.0,0.0,0.0,0.0,0.0,0.0,0.0,0.0,0.0,0.0,2.8842,3.0856,0.0,3.234,3.358,3.4874,3.6088,3.6968,3.7898,3.8865,3.8928,3.9153,3.9694,4.0172,4.0544,4.0798,4.1284,4.1521,4.1521,4.1521,4.1521,4.1521,4.1521,4.1521,4.1521,4.1521,4.1521,4.1504,4.1234,4.0422,3.9288,3.9029,3.8746,3.8543,3.8826,3.8928,3.9012,3.9525,3.9542,3.9474,4.0493,4.1153,4.1694,4.2409,4.2635,4.2644,4.2667,4.3237,4.3852,4.3856,4.4163,4.4392,4.4064,4.3525,4.3016,4.2693,4.2704,4.2516,4.1685,4.1803,4.2169,4.2549,4.2439,4.2638,4.3619,4.3335,4.3457,4.4708,4.4877,4.5179,4.5937,4.6022,4.5425,4.3945,4.3522,4.2436,4.0289,3.9439,3.8856,3.8424,3.8284,3.8004,3.7511,3.8819,3.8674,0.0,0.0,0.0,0.0,0.0,0.0,0.0,0.0,0.0,0.0,0.0,0.0,0.0,0.0,0.0,0.0,0.0,0.0,0.0,0.0,0.0,0.0,0.0,0.0,0.0,2.6432,2.851,2.8899,3.1391,3.3096,3.3194,3.4961,3.6534,3.7562,3.8728,3.9694,4.0422,4.0472,4.0591,4.0828,4.1318,4.1576,4.1576,4.2049,4.23,4.23,4.23,4.23,4.23,4.23,4.23,4.23,4.23,4.23,4.23,4.23,4.1724,4.0828,4.0828,4.0828,4.0811,4.0557,4.0472,4.0438,4.0197,4.0399,4.0969,4.1906,4.2795,4.3622,4.4153,4.4314,4.4299,4.4257,4.467,4.5086,4.5053,4.5011,4.491,4.456,4.4013,4.3471,4.3158,4.3596,4.3926,4.3532,4.3074,4.2914,4.3328,4.3217,4.3586,4.5108,4.4688,4.4725,4.6247,4.6227,4.6261,4.675,4.68,4.6073,4.4244,4.4316,4.3383,4.0886,4.0531,4.0008,3.911,3.9408,3.9536,3.9341,4.0824,4.1302,4.0707,0.0,0.0,0.0,0.0,0.0,0.0,0.0,0.0,0.0,0.0,0.0,0.0,0.0,0.0,0.0,0.0,0.0,0.0,0.0,0.0,0.0,0.0,0.0,2.4081,2.6699,2.8375,2.7911,3.1582,3.417,3.4233,3.7004,3.8846,3.89,3.9635,4.0408,4.1109,4.1159,4.1476,4.2199,4.2236,4.2253,4.2253,4.2314,4.2327,4.2327,4.2354,4.2367,4.2367,4.2367,4.2367,4.2367,4.2367,4.2367,4.2367,4.2367,4.2367,4.2367,4.2317,4.23,4.2215,4.1508,4.1225,4.1136,4.043,4.1104,4.2352,4.2897,4.3995,4.521,4.5736,4.5902,4.5792,4.5276,4.5527,4.5819,4.5302,4.5139,4.5123,4.523,4.4829,4.4458,4.4663,4.5255,4.5766,4.5766,4.5004,4.4195,4.36,4.4147,4.5159,4.6631,4.621,0.0,4.7752,4.7293,4.6851,4.6902,4.6902,4.6189,4.4372,4.4811,4.4104,4.1625,4.207,4.185,4.0542,4.1156,4.1325,4.0929,4.1837,4.233,4.2333,0.0,0.0,0.0,0.0,0.0,0.0,0.0,0.0,0.0,0.0,0.0,0.0,0.0,0.0,0.0,0.0,0.0,0.0,0.0,0.0,0.0,2.363,2.613,2.7756,2.9079,3.0219,3.1134,3.2309,3.3537,3.4794,3.6145,3.7467,3.8717,3.948,3.9969,4.018,4.018,4.0277,4.0487,4.1021,4.1281,4.1281,4.2448,4.3022,4.3022,4.3659,4.3958,4.3958,4.3958,4.3958,4.3958,4.3958,4.3958,4.3958,4.3958,4.3958,4.3856,4.274,4.23,4.2283,4.2066,4.1999,4.2044,4.231,4.2932,4.3687,4.4327,4.5049,4.5708,4.5865,4.5902,4.5892,4.5896,4.6326,4.6771,4.6776,4.6824,4.6896,4.6926,4.689,4.6844,4.6906,4.7076,4.7214,4.7214,4.6617,4.6068,4.5884,4.6056,4.6498,4.7447,4.6972,4.7022,4.8511,4.8039,4.802,4.9069,4.9203,4.8641,4.7262,4.6863,4.5573,4.2938,4.3191,4.3039,4.2178,4.3592,4.4106,4.3577,4.3251,4.3109,0.0,0.0,0.0,0.0,0.0,0.0,0.0,0.0,0.0,0.0,0.0,0.0,0.0,0.0,0.0,0.0,0.0,0.0,0.0,0.0,0.0,0.0,2.4034,2.6515,2.8402,2.9527,3.0548,3.1633,3.2504,3.3322,3.4126,3.6018,3.7448,3.7996,3.9139,3.9938,4.0241,4.0257,4.0385,4.0703,4.1406,4.1773,4.1773,4.3385,4.418,4.418,4.5087,4.5514,4.5514,4.5514,4.5514,4.5514,4.5514,4.5514,4.5514,4.5514,4.5514,4.5362,0.0,0.0,0.0,0.0,4.2574,4.2406,4.3073,4.3856,4.4702,4.5384,4.62,4.6911,4.6911,4.6724,4.6686,4.7415,4.7664,4.7905,4.8626,4.8672,4.8449,4.8161,4.8174,4.8094,4.7513,4.7848,4.818,4.7897,4.7788,0.0,4.7716,4.7208,4.7158,4.8191,4.8003,4.8257,4.973,4.9544,4.9612,5.0473,5.0557,4.9959,4.8418,4.8207,0.0,0.0,0.0,4.489,4.4641,4.5486,0.0,0.0,0.0,4.5131,4.4809,4.4976,0.0,0.0,4.1847,4.1959,0.0,0.0,0.0,0.0,0.0,0.0,0.0,0.0,0.0,0.0,0.0,0.0,0.0,0.0,0.0,0.0,2.3559,2.5593,2.7339,2.8851,2.9981,3.0518,3.2218,3.3208,3.2836,3.6102,3.7883,3.7032,3.8783,4.0151,4.0817,4.0928,0.0,0.0,0.0,4.2816,4.2816,4.4334,4.5144,4.5257,4.6195,4.6697,4.68,4.68,4.68,4.68,4.68,4.68,4.6817,4.6871,4.6915,4.6782,4.5388,4.4736,4.4516,4.3879,4.32,4.269,4.3519,0.0,0.0,4.6675,4.7816,4.8847,4.8847,4.8419,4.8187,4.949,4.944,4.9274,5.0607,5.0518,4.9892,4.9229,4.9174,4.8937,4.7689,4.8392,4.9119,4.8613,4.8904,4.9255,4.9255,4.8088,4.7631,4.9035,4.9255,4.9763,5.1133,5.1252,5.1235,5.1319,5.1222,0.0,4.8691,4.889,4.8519,4.7103,4.6944,4.7105,4.7509,4.7028,4.6993,4.7523,4.7707,4.7447,4.68,4.6143,4.5821,4.5788,4.4416,4.4131,0.0,0.0,0.0,0.0,0.0,0.0,0.0,0.0,0.0,0.0,0.0,0.0,0.0,0.0,0.0,2.2703,2.4071,2.5608,2.7842,2.901,2.9885,3.0526,3.134,3.2074,3.2738,3.4749,3.6247,3.6801,3.8984,4.0349,4.0488,4.1004,4.1371,4.1525,4.1628,4.1723,4.1723,4.2725,4.3598,4.4361,4.5241,0.0,4.68,4.68,4.68,4.68,4.68,4.68,4.6844,4.7374,4.762,4.7517,4.6691,4.565,4.4651,4.5094,4.479,4.4419,4.6213,4.7433,4.8508,5.0311,5.1519,5.2242,5.2242,5.1721,0.0,5.1461,5.1438,5.1412,5.1699,5.1738,5.1552,5.0841,5.1162,5.1565,5.1298,5.1451,5.1775,5.2257,5.1488,5.0778,5.0778,5.0033,4.9763,5.0643,5.0778,5.1083,5.1978,5.1573,5.1421,5.2029,5.1345,5.0637,5.0044,4.8828,4.7959,4.7652,4.8061,4.8689,4.9505,4.8321,4.7709,4.7813,4.7288,4.6938,4.68,4.6665,4.6597,4.6578,4.6224,4.6434,0.0,0.0,0.0,0.0,0.0,0.0,0.0,0.0,0.0,0.0,0.0,1.4747,1.6566,0.0,2.0497,2.2954,2.3928,2.5206,2.7479,2.8833,3.0055,3.1268,3.2123,3.2684,3.2919,3.4942,3.6456,3.6963,3.8861,4.0246,4.0872,4.1224,4.1403,4.1403,4.1718,4.1897,4.1897,4.3118,4.423,4.515,4.6077,4.6999,4.7902,4.7902,4.7902,4.7902,4.7902,4.7902,4.7932,4.8265,4.8391,4.8399,4.844,4.7778,4.6886,4.7619,4.7665,4.7607,4.9352,4.9976,5.0282,5.2029,5.2865,5.3196,5.3196,5.2684,5.2251,5.2985,5.2951,5.2864,5.3612,5.3845,5.3619,5.2514,5.2843,5.3101,5.1996,5.2045,5.229,5.2305,5.1702,5.1201,5.1201,5.12,5.12,5.1201,5.1505,5.1894,5.2249,5.2334,5.2486,5.2858,5.2454,5.1684,5.0515,4.9594,4.9152,4.9303,5.0072,5.039,5.0102,4.939,4.8817,4.8462,4.8088,4.7902,4.7902,4.8272,4.8668,4.9061,4.9739,4.9406,0.0,0.0,0.0,0.0,0.0,0.0,0.0,0.9587,0.9919,1.157,1.358,1.5532,1.7223,1.8961,2.0794,2.2753,2.3641,2.4798,2.6808,2.8325,2.9852,3.1577,3.2977,3.3662,3.3289,3.5497,3.7065,3.7351,3.8875,4.0313,4.1526,4.1718,4.1758,4.1758,4.2286,4.2571,4.2571,4.3865,4.4986,4.5941,4.6695,4.7638,4.8719,4.8719,4.8829,4.9001,4.9001,4.9061,4.9214,4.9367,4.9418,4.9501,5.0385,5.0452,5.0079,5.0096,5.0101,5.03,5.1722,5.2032,5.2001,5.3437,5.4003,5.4132,5.4132,5.3653,5.3349,5.4536,5.4485,5.4335,5.5529,5.5844,5.5519,5.4182,5.4193,5.4024,5.2249,5.232,5.2576,5.1976,5.1848,5.1817,5.1673,5.2147,5.2283,5.1522,5.2063,5.2536,5.2536,5.3112,5.3501,5.3501,5.3314,5.2434,5.055,5.057,5.0781,5.0994,5.1966,5.1995,5.0811,5.076,5.0405,4.9661,4.9644,4.9576,4.9441,5.0016,5.0738,5.1538,5.2807,5.2139,0.4846,0.5009,0.596,0.9312,0.9476,0.9698,0.0,1.3154,1.2824,1.3917,1.6153,1.7994,1.8224,2.0409,2.2264,2.2537,2.3585,2.4846,2.6212,2.7232,2.8423,3.0063,3.2404,3.3874,3.3818,3.5379,3.6844,3.7931,3.9562,4.1008,4.2218,4.2806,4.31,4.31,4.316,4.3205,4.3205,4.3364,4.397,4.4965,4.5061,4.6046,4.7754,4.7754,4.8209,4.9001,4.9001,4.9346,4.9927,5.0667,5.0944,5.1103,5.2414,5.3358,5.3654,5.1068,5.0105,5.0317,5.1776,5.3138,5.4448,5.5921,5.6877,5.7464,5.7464,5.6905,5.6321,5.6487,5.6483,5.6468,5.6616,5.6703,5.6555,5.5732,5.505,5.4515,5.4278,5.4275,5.4331,5.4238,5.4223,5.4006,5.3364,5.3315,5.3095,5.23,5.2858,5.3365,5.3365,5.345,5.3501,5.3501,5.2645,5.1614,5.0509,5.1211,5.1745,5.1788,5.2787,5.3298,5.3129,5.3129,5.2739,5.1944,5.1928,5.1623,5.0947,5.1032,5.1491,5.2304,5.3053,5.3605,0.503,0.5917,0.7094,0.9279,0.9456,0.9877,1.2829,1.3189,1.3259,1.4537,1.5995,1.7188,1.7615,1.941,2.1128,2.2057,2.3242,2.4665,2.6405,2.7193,2.8196,2.981,3.197,3.3287,3.3206,3.4791,3.6323,3.7534,3.8559,3.9977,4.1819,4.2164,4.2609,4.327,4.329,4.329,4.329,4.329,4.3791,4.4793,4.4793,4.5504,4.6798,4.6798,4.7306,4.8242,4.9221,4.9812,5.0118,5.0888,5.1452,5.1893,5.2494,5.3234,5.3848,5.2981,5.3257,5.4149,5.4753,5.541,5.6106,5.7158,5.7721,5.7997,5.7997,5.7776,5.7501,5.7501,5.7501,5.7501,5.7501,5.7524,5.7346,5.6611,5.5832,5.5247,5.5242,5.4886,5.4605,5.4605,5.4605,5.4358,5.3635,5.3501,5.3399,5.3061,5.3281,5.3501,5.3501,5.3501,5.3501,5.3501,5.2026,5.1338,5.215,5.1862,5.2181,5.3385,5.4291,5.46,5.416,5.4143,5.3788,5.301,5.2536,5.2147,5.1827,5.2323,5.2918,5.3718,5.4901,5.5851,0.5137,0.6403,0.7742,0.888,0.9443,1.0251,1.233,1.3051,1.3561,1.4557,1.5404,1.6176,1.678,1.8309,2.002,2.173,2.293,2.4329,2.6284,2.6985,2.773,2.9018,3.118,3.257,3.2603,3.4501,3.6238,3.742,3.787,3.8979,4.1007,4.1127,4.1518,4.2345,4.2365,4.2365,4.2365,4.2664,4.321,4.3928,4.4228,4.4893,4.5834,4.6349,4.6952,4.7704,4.9381,5.01,5.0167,5.1133,5.181,5.2317,5.2536,5.3109,5.3829,5.412,5.5221,5.6558,5.6558,5.6856,5.7284,5.7839,5.7997,5.7997,5.7997,5.7997,5.7997,5.7997,5.7997,5.7997,5.7997,5.7997,5.7862,5.7339,5.6611,5.5962,5.5748,5.5451,5.5119,5.4682,5.4757,5.4666,5.393,5.3634,5.3501,5.3501,5.3501,5.3501,5.3501,5.3501,5.3501,5.3501,5.215,5.1964,5.3652,5.2911,5.3091,5.4784,5.5615,5.5767,5.5226,5.5395,5.5158,5.4431,5.3839,5.3348,5.2926,5.3716,5.4386,5.493,5.6276,5.7302,0.543,0.647,0.7857,0.9007,1.0272,1.1509,1.2547,1.3661,1.4399,1.4168,1.4978,1.5795,1.6088,1.7763,1.9764,2.1683,2.2739,2.3886,2.5499,2.6143,2.6599,2.7035,2.9846,3.1881,3.2266,3.4764,3.6847,3.8003,3.8107,3.8649,3.9899,3.9942,3.9964,4.0008,4.0008,4.0008,4.0008,4.1106,4.167,4.1711,4.2825,4.3869,4.489,4.6728,4.7572,4.7704,4.9381,5.01,5.0218,5.1674,5.2283,5.2384,5.3162,5.3929,5.4482,5.3799,5.4466,5.5752,5.5752,5.6711,5.7973,5.7997,5.7997,5.7997,5.7997,5.7997,5.7997,5.7997,5.7997,5.7997,5.7997,5.7997,5.7997,5.7973,5.7401,5.6655,5.5879,5.6299,5.6385,5.4894,5.5173,5.5419,5.468,5.3962,5.3501,5.3501,5.3501,5.3501,5.3501,5.3501,5.3501,5.3501,5.345,5.372,5.4499,5.4532,5.4836,5.5631,5.6358,5.6765,5.6731,5.7408,5.7442,5.6714,5.6681,5.5953,5.4533,5.5266,5.5634,5.5685,5.6501,5.7302,0.5447,0.6545,0.773,0.8884,0.9999,1.1121,1.2215,1.339,1.4208,1.4129,1.4712,1.5331,1.5585,1.7016,1.8812,2.0754,2.2055,2.3411,2.5081,2.5952,2.6543,2.6937,2.9778,3.1854,3.2261,3.48,3.6557,3.693,3.6977,3.7484,3.8649,3.8716,3.9072,3.9877,3.9899,3.9899,3.9899,4.1042,4.1587,4.1608,4.2765,4.3472,4.3903,4.6292,4.7407,4.7559,5.0343,5.1555,5.164,5.2672,5.3095,5.3129,5.3399,5.3651,5.3849,5.3584,5.4421,5.5692,5.5692,5.6711,5.7997,5.7997,5.7997,5.7997,5.7997,5.7997,5.7997,5.7997,5.7997,5.7997,5.7997,5.7997,5.7997,5.7997,5.7437,5.6835,5.6545,5.6299,5.5948,5.5437,5.552,5.548,5.4726,5.4389,5.4058,5.3568,5.3501,5.3501,5.3501,5.3501,5.3501,5.3501,5.287,5.3032,5.4481,5.4393,5.4889,5.6341,5.712,5.7526,5.7526,5.7781,5.7763,5.7526,5.7053,5.6811,5.6863,5.6611,5.6768,5.7299,5.752,5.7762,0.5455,0.651,0.7558,0.8211,0.9187,1.0286,1.1423,1.2617,1.3582,1.4018,1.4171,1.4449,1.5245,1.5957,1.7208,1.9705,2.1228,2.2676,2.4367,2.5648,2.6543,2.6937,2.9778,3.1854,3.2261,3.48,3.6405,3.6405,3.6405,3.6709,3.7461,3.7507,3.7861,3.8617,3.8639,3.8841,3.9249,4.0411,4.1399,4.2228,4.2941,4.3632,4.4296,4.6363,4.7641,4.8341,5.1112,5.23,5.2367,5.3179,5.3501,5.3501,5.3501,5.3501,5.3501,5.3501,5.4421,5.5692,5.5692,5.6711,5.7997,5.7997,5.7997,5.7997,5.7997,5.7997,5.7997,5.7997,5.7997,5.7997,5.7997,5.7997,5.7997,5.7997,5.7637,5.7141,5.6585,5.6299,5.6031,5.5766,5.5692,5.5535,5.5069,5.456,5.4059,5.3568,5.3501,5.3501,5.3501,5.3501,5.3501,5.3501,5.3121,5.3451,5.4869,5.5047,5.5659,5.7101,5.7628,5.79,5.79,5.79,5.79,5.79,5.7425,5.7463,5.8002,5.7816,5.7847,5.8106,5.8324,5.8272,0.5555,0.6419,0.7345,0.7154,0.8017,0.9192,1.0269,1.1445,1.2638,1.3799,1.3388,1.3358,1.5124,1.4731,1.5289,1.875,2.0379,2.1799,2.3554,2.5307,2.6543,2.6937,2.9728,3.178,3.2261,3.4715,3.6334,3.6381,3.6405,3.6405,3.6405,3.6405,3.6405,3.6405,3.6452,3.7023,3.8085,3.936,4.1099,4.329,4.329,4.4202,4.5922,4.6913,4.827,4.9949,5.1631,5.2367,5.2418,5.3196,5.3501,5.3501,5.3501,5.3501,5.3501,5.3501,5.4421,5.5692,5.5692,5.6711,5.7997,5.7997,5.7997,5.7997,5.7997,5.7997,5.7997,5.7997,5.7997,5.7997,5.7997,5.7997,5.7997,5.7997,5.7997,5.7594,5.6087,5.6326,5.6629,5.5906,5.572,5.5678,5.5649,5.4452,5.3501,5.3501,5.3501,5.3501,5.3501,5.3501,5.3501,5.3501,5.416,5.4905,5.5631,5.6393,5.7103,5.7849,5.79,5.79,5.79,5.79,5.79,5.79,5.7936,5.7994,5.812,5.8879,5.8923,5.8285,5.8902,5.8792,0.6642,0.7034,0.7168,0.7105,0.8017,0.8978,0.9279,1.0869,1.2466,1.3021,1.319,1.3842,1.573,1.5288,1.6036,2.0356,2.113,2.2128,2.4807,2.5881,2.6543,2.6937,2.8894,3.0766,3.216,3.3884,3.5319,3.631,3.6405,3.6405,3.6405,3.6405,3.6405,3.6405,3.7219,3.7802,3.8107,4.0139,4.1885,4.329,4.329,4.4202,4.5957,4.7442,4.9037,5.0727,5.2438,5.3196,5.3213,5.3416,5.3501,5.3501,5.3501,5.3501,5.3501,5.3501,5.4421,5.5692,5.5692,5.6711,5.7997,5.7997,5.7997,5.7997,5.7997,5.7997,5.7997,5.7997,5.7997,5.7997,5.7997,5.7997,5.7997,5.7997,5.7997,5.775,5.6799,5.6286,5.6132,5.6518,5.6118,5.5538,5.4982,5.4106,5.3501,5.3501,5.3501,5.3501,5.3501,5.3501,5.3501,5.3501,5.416,5.4905,5.5631,5.6393,5.7103,5.7849,5.79,5.79,5.79,5.79,5.79,5.79,5.8494,5.9124,5.9789,5.999,6.0314,6.0682,5.9675,5.9086,0.7082,0.7185,0.7095,0.7095,0.7599,0.8252,0.8855,0.9989,1.1125,1.1977,1.1973,1.2579,1.5041,1.4598,1.537,2.0023,2.102,2.2054,2.447,2.5559,2.6328,2.6943,2.8934,3.0802,3.2163,3.4105,3.5595,3.6334,3.6405,3.6405,3.6405,3.6405,3.6405,3.6405,3.7494,3.859,3.9626,4.1441,4.2684,4.3324,4.4078,4.5338,4.706,4.8727,5.0428,5.2096,5.3078,5.3501,5.3501,5.3501,5.3501,5.3501,5.3501,5.3501,5.3551,5.3848,5.4713,5.5748,5.6104,5.7022,5.7997,5.7997,5.7997,5.7997,5.7997,5.7997,5.7997,5.7997,5.7997,5.7997,5.7997,5.7997,5.7997,5.7997,5.7997,5.7804,5.7053,5.6563,5.6259,5.6353,5.6299,5.5882,5.4787,5.4248,5.3864,5.3551,5.3501,5.3501,5.3501,5.3501,5.3501,5.3501,5.4448,5.526,5.5665,5.6681,5.7459,5.7883,5.79,5.79,5.79,5.8245,5.8423,5.8423,5.9245,6.0102,6.0923,6.0943,6.0975,6.1043,6.015,5.9343,0.7154,0.7095,0.7095,0.7095,0.7228,0.7616,0.8647,0.9107,0.9667,1.0858,1.0533,1.0946,1.3917,1.3576,1.4341,1.899,2.0555,2.1832,2.363,2.4933,2.601,2.6811,2.9024,3.094,3.2101,3.4436,3.6001,3.6381,3.6405,3.6405,3.6405,3.6405,3.6476,3.6628,3.7746,3.9398,4.1587,4.2725,4.329,4.3324,4.4916,4.663,4.845,5.0012,5.172,5.3501,5.3501,5.3501,5.3501,5.3501,5.3501,5.3501,5.3501,5.3501,5.3584,5.4343,5.5072,5.5822,5.6629,5.7388,5.7997,5.7997,5.7997,5.7997,5.7997,5.7997,5.7997,5.7997,5.7997,5.7997,5.7997,5.7997,5.7997,5.7997,5.7997,5.7809,5.7184,5.7058,5.6747,5.5752,5.6204,5.6272,5.4848,5.4529,5.4264,5.3717,5.3551,5.3501,5.3501,5.3501,5.3501,5.3501,5.482,5.5699,5.5699,5.7053,5.79,5.79,5.79,5.79,5.79,5.8668,5.9094,5.9094,6.0053,6.0894,6.1586,6.1701,6.1394,6.0701,6.0499,5.9648,0.7102,0.7095,0.7095,0.7095,0.7841,0.8434,0.7827,0.9161,1.0416,1.0108,1.0663,1.186,1.3954,1.4145,1.5412,1.9721,2.0851,2.2065,2.4517,2.5353,2.5903,2.6435,2.7216,2.8773,3.1544,3.2555,3.3934,3.6227,3.6405,3.6405,3.6405,3.6405,3.6826,3.7779,3.8961,4.0253,4.1587,4.2725,4.329,4.3324,4.4168,4.5931,4.8432,4.9268,5.1052,5.3501,5.3501,5.3501,5.3501,5.3501,5.3501,5.3501,5.3501,5.3501,5.3584,5.4343,5.5072,5.5822,5.6629,5.7388,5.7997,5.7997,5.7997,5.7997,5.7997,5.7997,5.7997,5.7997,5.7997,5.7997,5.7997,5.7997,5.7997,5.7997,5.7997,5.7955,5.7839,5.7797,5.7198,5.5173,5.5393,5.5638,5.4741,5.409,5.3848,5.4343,5.3881,5.3501,5.3501,5.3501,5.3501,5.3501,5.482,5.5699,5.5699,5.7053,5.79,5.79,5.79,5.79,5.79,5.8668,5.9094,5.9094,6.0605,6.146,6.1586,6.2271,6.2515,6.2352,6.1013,6.0254,0.8189,0.8035,0.7885,0.725,0.7533,0.806,0.8402,0.9346,1.0306,1.0921,1.14,1.2254,1.4061,1.4237,1.5295,1.9007,2.0168,2.1448,2.383,2.4862,2.5635,2.6309,2.7357,2.8717,3.0489,3.2311,3.3933,3.5271,3.6013,3.6405,3.6405,3.6405,3.6907,3.8062,3.9271,4.0447,4.1587,4.2725,4.3489,4.3833,4.5071,4.6792,4.8959,5.0165,5.1733,5.3501,5.3501,5.3501,5.3501,5.3501,5.3501,5.3501,5.3501,5.3501,5.3635,5.4759,5.5408,5.5879,5.706,5.7714,5.7997,5.7997,5.7997,5.7997,5.7997,5.7997,5.7997,5.7997,5.7997,5.7997,5.7997,5.7997,5.7997,5.7997,5.7997,5.7997,5.7997,5.7997,5.7558,5.6095,5.6095,5.6077,5.5306,5.456,5.4186,5.456,5.3962,5.3501,5.3501,5.3501,5.3501,5.3501,5.482,5.5699,5.5699,5.7428,5.8511,5.8511,5.896,5.9196,5.9196,5.9956,6.039,6.039,6.16,6.2214,6.2232,6.2623,6.2572,6.2144,6.0951,6.0169,0.9082,0.8715,0.8342,0.7665,0.7731,0.8295,0.9581,1.0125,1.0679,1.1885,1.2173,1.2648,1.4096,1.4278,1.5174,1.8027,1.9384,2.0823,2.2847,2.4279,2.5385,2.6152,2.7636,2.8826,2.9493,3.1956,3.3773,3.4361,3.5643,3.6405,3.6405,3.6405,3.6803,3.7723,3.8894,4.008,4.1232,4.2518,4.3537,4.4317,4.5979,4.7567,4.9114,5.0811,5.217,5.3161,5.3399,5.3501,5.3501,5.3501,5.3501,5.3501,5.3501,5.3501,5.3684,5.5161,5.5692,5.5917,5.7468,5.7997,5.7997,5.7997,5.7997,5.7997,5.7997,5.7997,5.7997,5.7997,5.7997,5.7997,5.7997,5.7997,5.7997,5.7997,5.7997,5.7997,5.7997,5.7997,5.7774,5.704,5.6899,5.6642,5.5851,5.5217,5.4787,5.462,5.4106,5.3684,5.3517,5.3501,5.3501,5.3501,5.482,5.5699,5.5699,5.762,5.8926,5.9094,5.9752,6.0213,6.0399,6.1157,6.1586,6.1586,6.2394,6.2793,6.2793,6.2793,6.2493,6.1832,6.086,6.0059,0.8627,0.8105,0.7511,0.8496,0.9738,1.0796,1.1062,1.2126,1.2828,1.209,1.2631,1.3396,1.3866,1.4661,1.5833,1.7511,1.9098,2.0706,2.243,2.4065,2.5268,2.5718,2.6614,2.7688,2.8931,3.0033,3.172,3.4202,3.5643,3.6405,3.6405,3.6405,3.6452,3.6557,3.7678,3.8836,4.0051,4.1803,4.3203,4.4311,4.5687,4.6918,4.8013,4.975,5.108,5.2099,5.3093,5.3501,5.3501,5.3501,5.3501,5.3501,5.3501,5.3501,5.3684,5.5161,5.5692,5.5917,5.7468,5.7997,5.7997,5.7997,5.7997,5.7997,5.7997,5.7997,5.7997,5.7997,5.7997,5.7997,5.7997,5.7997,5.7997,5.7997,5.7997,5.7997,5.7997,5.7997,5.7774,5.704,5.6899,5.6642,5.5851,5.5635,5.5379,5.4695,5.4527,5.4248,5.3584,5.3501,5.3501,5.3501,5.482,5.5699,5.5699,5.7125,5.8317,5.9044,5.9178,5.9556,6.0368,6.1157,6.1586,6.1586,6.2394,6.2793,6.2793,6.2793,6.2756,6.2646,6.1123,6.0352,1.0074,1.0279,1.0325,0.9475,1.0307,1.1589,1.2525,1.3032,1.3413,1.3914,1.4204,1.4392,1.453,1.5022,1.584,1.7188,1.8717,2.042,2.2326,2.3795,2.4941,2.563,2.6469,2.7206,2.7743,3.0052,3.2632,3.5391,3.6085,3.6405,3.6405,3.6405,3.6405,3.6405,3.8552,3.9953,4.0432,4.2967,4.4665,4.5508,4.6046,4.7384,4.9382,5.0076,5.1301,5.2887,5.3298,5.3501,5.3501,5.3501,5.3501,5.3501,5.3501,5.3501,5.3684,5.5161,5.5692,5.5917,5.7468,5.7997,5.7997,5.7997,5.7997,5.7997,5.7997,5.7997,5.7997,5.7997,5.7997,5.7997,5.7997,5.7997,5.7997,5.7997,5.7997,5.7997,5.7997,5.7997,5.7909,5.7613,5.7209,5.6804,5.6479,5.6018,5.5592,5.5306,5.4876,5.4498,5.4202,5.3783,5.3501,5.3501,5.4431,5.5226,5.5665,5.7089,5.851,5.9797,6.0331,6.0979,6.1801,6.2148,6.2324,6.2324,6.2636,6.2793,6.2793,6.2793,6.2793,6.2774,6.1649,6.086,1.097,1.1637,1.2126,1.0907,1.1392,1.2491,1.3789,1.3964,1.412,1.5077,1.5059,1.4885,1.4972,1.5456,1.613,1.7056,1.8797,2.0583,2.2193,2.3554,2.4723,2.561,2.6824,2.7652,2.7782,3.091,3.3725,3.5667,3.6192,3.6405,3.6405,3.6405,3.6405,3.6405,3.8937,4.0465,4.08,4.3639,4.5497,4.6315,4.6804,4.806,4.995,5.057,5.1631,5.3042,5.3365,5.3501,5.3501,5.3501,5.3501,5.3501,5.3501,5.3501,5.3684,5.5161,5.5692,5.5917,5.7468,5.7997,5.7997,5.7997,5.7997,5.7997,5.7997,5.7997,5.7997,5.7997,5.7997,5.7997,5.7997,5.7997,5.7997,5.7997,5.7997,5.7997,5.7997,5.7997,5.7997,5.7997,5.7577,5.7159,5.6938,5.6438,5.5976,5.5752,5.5262,5.4848,5.4636,5.4138,5.3734,5.3517,5.416,5.4991,5.5979,5.7038,5.8528,6.0617,6.1055,6.1701,6.2755,6.2793,6.2793,6.2793,6.2793,6.2793,6.2793,6.2793,6.2793,6.2774,6.1979,6.1121,1.0788,1.1304,1.1771,1.2888,1.3412,1.3914,1.4798,1.519,1.5311,1.5053,1.473,1.4616,1.4932,1.5976,1.6876,1.7146,1.9502,2.1446,2.1948,2.3398,2.4723,2.561,2.7625,2.9157,2.9619,3.2521,3.4385,3.441,3.5643,3.6405,3.6405,3.6405,3.6405,3.6405,3.8155,3.9665,4.08,4.3328,4.5179,4.6315,4.7977,4.8805,4.8886,5.0951,5.1903,5.1975,5.3042,5.3501,5.3501,5.3501,5.3501,5.3501,5.3501,5.3501,5.3684,5.5161,5.5692,5.5917,5.7468,5.7997,5.7997,5.7997,5.7997,5.7997,5.7997,5.7997,5.7997,5.7997,5.7997,5.7997,5.7997,5.7997,5.7997,5.7997,5.7997,5.7997,5.7997,5.7997,5.7997,5.7997,5.7997,5.775,5.7027,5.6899,5.6616,5.5822,5.5692,5.5419,5.468,5.4589,5.4312,5.3584,5.4171,5.5213,5.6752,5.685,5.8182,6.1392,6.0849,6.1131,6.273,6.2793,6.2793,6.2793,6.2793,6.2793,6.2793,6.2793,6.2793,6.2774,6.1979,6.0995,1.082,1.1934,1.2831,1.3502,1.4258,1.4926,1.5209,1.5023,1.4747,1.4676,1.4429,1.4476,1.5312,1.6211,1.7333,1.898,2.0413,2.1851,2.3429,2.4073,2.4723,2.561,2.765,3.0033,3.2672,3.3802,3.4775,3.5691,3.6156,3.6405,3.6405,3.6405,3.6405,3.6405,3.9368,4.1114,4.1476,4.4777,4.6641,4.6995,4.8228,4.9175,4.995,5.1285,5.2294,5.3007,5.3348,5.3501,5.3501,5.3501,5.3501,5.3501,5.3501,5.3799,5.4358,5.5335,5.6063,5.6668,5.766,5.7997,5.7997,5.7997,5.7997,5.7997,5.7997,5.7997,5.7997,5.7997,5.7997,5.7997,5.7997,5.7997,5.7997,5.7997,5.7997,5.7997,5.7997,5.7997,5.7997,5.7997,5.7997,5.7762,5.7027,5.6899,5.6804,5.6558,5.6063,5.5606,5.5393,5.4906,5.4328,5.3584,5.4154,5.5211,5.6768,5.7389,5.8802,6.1426,6.1361,6.1705,6.2755,6.2793,6.2793,6.2793,6.2793,6.2793,6.2793,6.2793,6.2793,6.2787,6.1733,6.1062,1.0679,1.2124,1.3403,1.4249,1.4851,1.526,1.526,1.4863,1.4591,1.4892,1.4824,1.5097,1.6339,1.7398,1.8662,2.0419,2.1434,2.2553,2.4172,2.4391,2.5018,2.6745,2.8754,3.1173,3.4119,3.486,3.5487,3.6334,3.6405,3.6405,3.6405,3.6405,3.6405,3.6405,3.9897,4.1812,4.1812,4.5449,4.7309,4.7294,4.8314,4.9356,5.0435,5.1449,5.2504,5.3501,5.3501,5.3501,0.0,5.3501,5.3501,5.3501,5.3501,5.3962,5.4697,5.5437,5.62,5.7002,5.7738,5.7997,5.7997,5.7997,5.8217,5.851,5.8804,5.8474,5.7997,5.7997,5.7997,5.7997,5.7997,5.7997,5.7997,5.7997,5.7997,5.7997,5.7997,5.7997,5.7997,5.7997,5.7997,5.7862,5.7401,5.7078,5.6899,5.6899,5.6479,5.6031,5.5734,5.5552,5.5179,5.4422,5.5276,5.6432,5.7698,5.7989,5.922,6.1887,6.1774,6.1969,6.2768,6.2793,6.2793,6.2793,6.2793,6.2793,6.2793,6.2793,6.2898,6.3078,6.173,6.1302,0.0,1.1943,1.3525,1.5009,1.5173,1.4952,1.4952,1.4762,0.0,1.5585,1.5816,1.6329,1.7875,1.9309,2.0546,2.1478,2.2444,2.3425,2.4313,2.4469,2.5651,2.8782,3.0554,3.2324,3.435,3.5595,3.631,3.6381,3.6405,3.6405,3.6405,3.6405,3.6405,3.6405,3.9897,4.1812,4.1812,4.5361,4.7207,4.7294,4.8314,4.9356,5.0435,5.1449,5.2504,5.3501,5.3501,5.3501,5.3501,5.3501,5.3501,5.3501,5.3568,5.4027,5.4772,5.5524,5.6299,5.7083,5.7835,5.8088,5.8088,5.8143,5.8676,5.9416,6.0169,5.9355,5.8162,5.8162,5.8162,5.8162,5.8107,5.8088,5.807,5.8015,5.7997,5.7997,5.7997,5.7997,5.7997,5.7997,5.7997,5.7997,5.7997,5.7388,5.6912,5.6964,5.6869,5.6576,5.5879,5.638,5.6532,5.5777,5.7133,5.8418,5.9221,5.8726,5.9618,6.2607,6.2108,6.2023,6.2768,6.2793,6.2793,6.2793,6.2793,6.2793,6.2793,6.2842,6.3115,6.3564,6.1951,6.1704,1.0131,0.0,1.3258,1.4736,1.4843,1.4623,0.0,1.5034,1.5554,1.6053,1.6849,1.7917,1.9402,2.0267,2.1176,2.2513,2.2938,2.3532,2.4769,2.5205,2.6677,3.0128,3.0014,3.1292,3.5521,3.5295,3.5295,3.631,3.6405,3.6405,3.6405,3.6405,3.6405,3.6405,3.9897,4.1812,4.1812,4.4494,4.6344,4.7294,4.8314,4.9356,5.0435,5.1449,5.2504,5.3501,5.3501,5.3501,5.3501,5.3501,5.3501,5.3568,5.4123,5.4787,5.5538,5.6326,5.7085,5.7853,5.8635,5.8921,5.9013,5.9648,5.996,6.015,6.0346,6.0144,5.985,5.985,5.985,5.9703,5.9086,5.8921,5.8756,5.8143,5.7997,5.7997,5.7997,5.7997,5.7997,5.7997,5.7997,5.7997,5.7997,5.7388,5.7078,5.7667,5.6742,5.6132,5.6558,5.6259,5.5906,5.572,5.7133,5.8418,5.9221,6.022,6.1361,6.2713,6.2623,6.2592,6.278,6.2793,6.2793,6.2793,6.2793,6.2793,6.2793,6.3215,6.3487,6.3586,6.2672,6.2371,1.057,1.1414,1.2608,1.4346,1.4436,1.4343,1.5322,1.5762,1.6381,1.7795,1.8575,1.9544,2.1267,2.161,2.2096,2.3472,2.3542,2.4011,2.5688,2.6451,2.7634,2.9745,3.0125,3.1366,3.4242,3.5005,3.5619,3.6358,3.6405,3.6405,3.6405,3.6405,3.6651,3.715,3.9611,4.1219,4.1789,4.4777,4.6616,4.7309,4.7855,4.8922,5.0416,5.0968,5.2062,5.3501,5.3501,5.3501,5.3501,5.3501,5.3501,5.3551,5.3946,5.4983,5.6308,5.6736,5.7833,5.9171,5.96,5.9747,5.9875,6.0694,6.0951,6.1025,6.138,6.149,6.1343,6.0609,6.0401,6.0297,5.9857,5.9747,5.9636,5.9208,5.9098,5.9006,5.8627,5.8535,5.8437,5.807,5.7997,5.7997,5.7997,5.7679,5.7425,5.7492,5.7067,5.6794,5.6899,5.6825,5.6894,5.7267,5.8417,5.9481,6.0289,6.1451,6.2334,6.2774,6.2793,6.2793,6.2793,6.2793,6.2793,6.2793,6.2793,6.2793,6.2793,6.3091,6.337,6.3575,6.2813,6.2513,1.1282,1.1686,1.2519,1.4257,1.4334,1.4532,1.6521,1.6931,1.7528,1.9846,2.0443,2.1094,2.2868,2.2861,2.2986,2.4196,2.4228,2.4686,2.6388,2.7385,2.8146,2.8756,3.0353,3.1705,3.2537,3.4727,3.6192,3.6381,3.6405,3.6405,3.6405,3.6493,3.7019,3.8075,3.9542,4.0889,4.206,4.5361,4.7121,4.7309,4.7309,4.8392,5.0397,5.0397,5.1521,5.3501,5.3501,5.3568,5.367,5.367,5.3737,5.3856,5.3974,5.5178,5.6917,5.7163,5.852,6.0237,6.0511,6.0658,6.0878,6.1557,6.1777,6.1906,6.2591,6.2793,6.2517,6.1141,6.0756,6.0737,6.0621,6.0584,6.0548,6.0438,6.0401,6.0205,5.9526,5.938,5.9178,5.8492,5.8364,5.8364,5.8364,5.8364,5.8151,5.7534,5.7862,5.8014,5.7509,5.7875,5.8497,5.9294,6.0095,6.086,6.1539,6.2334,6.2793,6.2793,6.2793,6.2793,6.2793,6.2793,6.2793,6.2793,6.2793,6.2793,6.2793,6.2874,6.3203,6.3694,6.2909,6.2588,1.1655,1.3214,1.4992,1.5405,1.5696,1.6218,1.7521,1.8735,1.9833,2.063,2.1513,2.2335,2.3013,2.3064,2.3318,2.4245,2.4967,2.5399,2.5382,2.6127,2.7261,2.8791,2.9578,3.1068,3.38,3.4447,3.5174,3.631,3.6405,3.6405,3.6405,3.6833,3.7392,3.8075,4.0825,4.2595,4.332,4.4903,4.6233,4.7309,4.7309,4.8392,5.0397,5.0397,5.1521,5.3501,5.3501,5.3856,5.4431,5.4431,5.4803,5.5413,5.6059,5.6501,5.6985,5.8342,5.9074,5.9574,6.0938,6.1869,6.2444,6.2572,6.2609,6.2646,6.2756,6.2793,6.2756,6.2499,6.2426,6.226,6.1594,6.141,6.1245,6.0566,6.0401,6.0382,6.0242,6.0224,6.0181,6.007,6.0034,6.0034,6.0034,6.0034,5.9998,5.9883,5.9427,5.9281,5.9792,5.9414,5.9387,6.0139,6.0933,6.1465,6.1575,6.2334,6.2793,6.2793,6.2793,6.2793,6.2793,6.2793,6.2793,6.2793,6.2793,6.2793,6.2793,6.3273,6.3755,6.4275,6.3798,6.3428,1.2963,1.4518,1.6239,1.7491,1.758,1.7717,1.9221,2.0097,2.0863,2.1873,2.2486,2.2957,2.3386,2.3486,2.3747,2.4652,2.5654,2.6456,2.673,2.7305,2.8371,3.0143,3.0794,3.197,3.4179,3.5054,3.5739,3.6358,3.6405,3.6405,3.6405,3.662,3.7175,3.8075,4.0786,4.2674,4.3596,4.5837,4.7081,4.7309,4.7668,4.8642,5.0102,5.1085,5.2346,5.3795,5.4408,5.487,5.5192,5.5192,5.5378,5.5717,5.6065,5.6726,5.7712,5.9745,6.0782,6.124,6.1996,6.2481,6.2793,6.2793,6.2793,6.2793,6.2793,6.2793,6.2793,6.2793,6.2793,6.2701,6.2334,6.2254,6.2163,6.1783,6.1692,6.1582,6.1135,6.1043,6.0915,6.0493,6.0401,6.0401,6.0401,6.0401,6.0401,6.0401,6.0121,6.0016,6.0353,6.009,6.0193,6.0982,6.1374,6.1777,6.2218,6.2591,6.2793,6.2793,6.2793,6.2793,6.2793,6.2793,6.2793,6.2793,6.2793,6.2793,6.2793,6.3347,6.3723,6.3977,6.4084,6.3695,1.4298,1.5916,1.7644,1.9445,1.9356,1.9252,2.0891,2.1349,2.1745,2.287,2.3091,2.3328,2.4093,2.4386,2.4744,2.5421,2.6232,2.7025,2.7668,2.8483,2.9526,3.0916,3.2089,3.3229,3.4312,3.5619,3.6405,3.6405,3.6405,3.6405,3.6405,3.6531,3.7111,3.825,4.0695,4.266,4.4007,4.6867,4.8027,4.7534,4.8214,4.9061,5.0096,5.1754,5.3051,5.4065,5.5206,5.58,5.5953,5.5953,5.6054,5.6206,5.6206,5.7175,5.8787,6.0632,6.1955,6.2793,6.2793,6.2793,6.2793,6.2793,6.2793,6.2793,6.2793,6.2793,6.2793,6.2793,6.2793,6.2793,6.2793,6.2793,6.2793,6.2793,6.2793,6.2627,6.2016,6.1887,6.1704,6.108,6.0958,6.0958,6.0958,6.0958,6.0958,6.0958,6.0958,6.0958,6.0958,6.0958,6.1208,6.1814,6.1887,6.2126,6.2756,6.2793,6.2793,6.2793,6.2793,6.2793,6.2793,6.2793,6.2793,6.2793,6.2923,6.299,6.299,6.3524,6.3842,6.3958,6.437,6.3917,1.5124,1.7618,2.0051,2.0664,2.0764,2.0998,2.214,2.2673,2.2965,2.3091,2.3091,2.3581,2.5178,2.6126,2.6698,2.676,2.6578,2.6458,2.6516,2.8308,2.968,2.9813,3.2435,3.4276,3.4385,3.5619,3.6405,3.6405,3.6405,3.6405,3.6405,3.6871,3.7661,3.882,4.1313,4.3471,4.5259,4.7288,4.8289,4.8244,4.8902,4.9758,5.0772,5.196,5.3051,5.4065,5.5206,5.6088,5.6731,5.6731,5.712,5.7747,5.7747,5.8754,6.0251,6.041,6.1464,6.2793,6.2793,6.2793,6.2793,6.2793,6.2793,6.2793,6.2793,6.2793,6.2793,6.2793,6.2793,6.2793,6.2793,6.2793,6.2793,6.2793,6.2793,6.2774,6.2738,6.2701,6.2701,6.2646,6.2627,6.2627,6.2627,6.2627,6.2627,6.2627,6.2627,6.2627,6.2627,6.2627,6.2646,6.2701,6.2701,6.2738,6.2793,6.2793,6.2793,6.2793,6.2793,6.2793,6.2793,6.2793,6.2793,6.2793,6.3289,6.3535,6.3535,6.4088,6.4563,6.4992,6.5024,6.4395,1.6016,1.8298,2.0473,2.162,2.2073,2.2372,2.2782,2.2984,2.34,2.4448,2.4069,2.3884,2.5067,2.5561,2.596,2.6498,2.6483,2.6888,2.8253,2.9184,3.0425,3.2399,3.368,3.4727,3.5571,3.6108,3.6405,3.6405,3.6405,3.6405,3.6405,3.6909,3.7415,3.7831,4.1383,4.3593,4.4275,4.7745,4.9471,4.9471,4.9725,5.0057,5.0485,5.2048,5.3354,5.4422,5.5529,5.6571,5.7476,5.7476,5.7663,5.79,5.79,5.8909,6.0399,6.0399,6.1421,6.2793,6.2793,6.2793,6.2793,6.2793,6.2793,6.2793,6.2793,6.2793,6.2793,6.2793,6.2793,6.2793,6.2793,6.2793,6.2793,6.2793,6.2793,6.2793,6.2793,6.2793,6.2793,6.2793,6.2793,6.2793,6.2793,6.2793,6.2793,6.2793,6.2793,6.2793,6.2793,6.2793,6.2793,6.2793,6.2793,6.2793,6.2793,6.2793,6.2793,6.2793,6.2793,6.2793,6.2793,6.2793,6.2972,6.3289,6.3509,6.3766,6.4098,6.459,6.4927,6.5096,6.4896,6.425,1.6932,1.9159,2.1215,2.2396,2.3169,2.3637,2.3637,2.3759,2.4114,2.4859,2.5346,2.565,2.5665,2.6714,2.7575,2.7602,2.7881,2.8595,3.0131,3.0813,3.1984,3.4142,3.4775,3.5391,3.631,3.6405,3.6405,3.6405,3.6545,3.6645,3.6645,3.7173,3.7732,3.8333,4.1751,4.3997,4.4804,4.8374,5.0323,5.0533,5.0533,5.0533,5.0579,5.2544,5.3871,5.4693,5.6106,5.7187,5.79,5.79,5.79,5.79,5.79,5.8755,6.0023,6.0306,6.1247,6.2459,6.2699,6.2793,6.2793,6.2793,6.2793,6.2793,6.2793,6.2793,6.2793,6.2793,6.2793,6.2793,6.2793,6.2793,6.2793,6.2793,6.2793,6.2793,6.2793,6.2793,6.2793,6.2793,6.2793,6.2793,6.2793,6.2793,6.2793,6.2793,6.2793,6.2793,6.2793,6.2793,6.2793,6.2793,6.2793,6.2793,6.2793,6.2793,6.2793,6.2793,6.2953,6.3044,6.3044,6.3044,6.3312,6.385,6.3988,6.4237,6.4617,6.5118,6.5354,6.5343,6.4846,6.4122,1.7829,2.0307,2.2586,2.3006,2.3941,2.4787,2.4798,2.523,2.5272,2.4103,2.6898,2.9044,2.7257,3.0191,3.23,3.0494,3.1048,3.1724,3.1724,3.3274,3.441,3.441,3.5595,3.6405,3.6405,3.6394,3.6417,3.6417,3.6896,3.7223,3.7223,3.7713,3.8883,4.0744,4.2627,4.4832,4.7393,4.9269,5.0548,5.1191,5.1191,5.1191,5.1284,5.3548,5.4589,5.4734,5.6942,5.7881,5.79,5.79,5.79,5.79,5.79,5.8388,5.9211,6.007,6.0909,6.1715,6.2528,6.2793,6.2793,6.2793,6.2793,6.2793,6.2793,6.2793,6.2793,6.2793,6.2793,6.2793,6.2793,6.2793,6.2793,6.2793,6.2793,6.2793,6.2793,6.2793,6.2793,6.2793,6.2793,6.2793,6.2793,6.2793,6.2793,6.2793,6.2793,6.2793,6.2793,6.2793,6.2793,6.2793,6.2793,6.2793,6.2793,6.2793,6.2793,6.2793,6.3301,6.359,6.3601,6.3601,6.3871,6.4398,6.4869,6.5107,6.5115,6.5637,6.5904,6.5865,6.4993,6.4122,1.7809,2.0107,2.2246,2.2937,2.3343,2.3695,2.4005,2.5504,2.6887,2.7247,2.8463,2.9405,2.9247,3.0208,3.106,3.1244,3.1508,3.2131,3.3419,3.4059,3.4751,3.5691,3.6156,3.6405,3.6405,3.6733,3.6959,3.6959,3.745,3.7764,3.7764,3.8328,3.9304,4.0757,4.3494,4.5741,4.7369,4.9736,5.0996,5.1191,5.1191,5.1191,5.1261,5.2738,5.3849,5.4693,5.6087,5.7168,5.79,5.79,5.79,5.79,5.79,5.8388,5.9211,6.007,6.0909,6.1715,6.2528,6.2793,6.2793,6.2793,6.2793,6.2793,6.2793,6.2793,6.2793,6.2793,6.2793,6.2793,6.2793,6.2793,6.2793,6.2793,6.2793,6.2793,6.2793,6.2793,6.2793,6.2793,6.2793,6.2793,6.2793,6.2793,6.2793,6.2793,6.2793,6.2793,6.2793,6.2793,6.2793,6.2793,6.2793,6.2793,6.2793,6.2793,6.2793,6.2793,6.2959,6.3203,6.3579,6.3956,6.4389,6.4885,6.5024,6.5283,6.567,6.5814,6.557,6.4955,6.4083,6.3243,1.8943,2.0915,2.2549,2.3201,2.3581,2.419,2.5813,2.6682,2.7492,2.8791,2.9977,3.0686,3.0265,3.1551,3.2617,3.2509,3.3116,3.3945,3.5053,3.5199,3.5487,3.631,3.6405,3.6493,3.6695,3.6808,3.706,3.7475,3.7814,3.8103,3.8329,3.8705,3.9822,4.1801,4.4007,4.6109,4.8152,5.0177,5.1191,5.1191,5.1191,5.1433,5.1903,5.3055,5.4174,5.5292,5.6396,5.7279,5.79,5.79,5.79,5.79,5.79,5.8192,5.8772,5.996,6.0718,6.129,6.2407,6.2793,6.2793,6.2793,6.2793,6.2793,6.2793,6.2793,6.2793,6.2793,6.2793,6.2793,6.2793,6.2793,6.2793,6.2793,6.2793,6.2793,6.2793,6.2965,6.3127,6.3127,6.3127,6.3127,6.3127,6.2947,6.2793,6.2793,6.2793,6.2793,6.2793,6.2793,6.2793,6.2793,6.2793,6.2793,6.2793,6.2793,6.2793,6.2793,6.2793,6.3151,6.3892,6.4236,6.4715,6.5391,6.5425,6.5569,6.5904,6.5904,6.5455,6.4589,6.3718,6.2878,2.0613,2.2224,2.3171,2.3672,2.4358,2.5722,2.8786,2.8354,2.7779,2.9465,3.1413,3.2382,3.0948,3.3776,3.5789,3.4197,3.5323,3.643,3.648,3.6443,3.6455,3.6519,3.6494,3.667,3.7235,3.6884,3.7034,3.8015,3.814,3.8391,3.8944,3.9083,4.0474,4.3419,4.4379,4.6286,4.9254,5.0556,5.1191,5.1191,5.1191,5.185,5.3099,5.4126,5.5231,5.6415,5.7445,5.79,5.79,5.79,5.79,5.79,5.79,5.79,5.81,5.9786,6.0399,6.0643,6.2245,6.2793,6.2793,6.2793,6.2793,6.2793,6.2793,6.2793,6.2793,6.2793,6.2793,6.2793,6.2793,6.2793,6.2793,6.2793,6.2793,6.2793,6.2793,6.318,6.3535,6.359,6.3601,6.3601,6.3601,6.3191,6.2867,6.2805,6.2793,6.2793,6.2793,6.2793,6.2793,6.2793,6.2793,6.2793,6.2793,6.2793,6.2793,6.2793,6.2793,6.3231,6.4207,6.4435,6.4973,6.5891,6.5904,6.5904,6.5904,6.5904,6.5436,6.4545,6.3641,6.2781,2.024,2.1813,2.2832,2.3594,2.4891,2.6175,2.6898,2.8712,3.0776,3.2554,3.2577,3.2699,3.4107,3.5084,3.5725,3.5813,3.6164,3.6556,3.6972,3.6658,3.6708,3.755,3.7274,3.7248,3.7776,3.8153,3.8454,3.8693,3.9107,3.9383,3.9509,4.0475,4.1779,4.3442,4.5633,4.7605,4.9277,5.0556,5.1191,5.1191,5.1191,5.2275,5.4237,5.4484,5.5671,5.7554,5.7792,5.79,5.79,5.79,5.79,5.79,5.79,5.79,5.81,5.9786,6.0399,6.0643,6.2245,6.2793,6.2793,6.2793,6.2793,6.2793,6.2793,6.2793,6.2793,6.2793,6.2793,6.2793,6.2793,6.2793,6.2793,6.2793,6.2793,6.2793,6.2793,6.2886,6.3103,6.3531,6.3601,6.3601,6.3601,6.3491,6.3278,6.2867,6.2793,6.2793,6.2793,6.2793,6.2793,6.2793,6.2793,6.2793,6.2793,6.2793,6.2793,6.2793,6.2793,6.2898,6.3132,6.4705,6.567,6.5897,6.5904,6.5904,6.5904,6.5904,6.5346,6.4263,6.3173,6.2089,2.0706,2.2064,2.2794,2.3981,2.5304,2.6586,2.771,2.9643,3.1711,3.3529,3.3595,3.3789,3.523,3.5744,3.6031,3.6344,3.6405,3.6606,3.7135,3.6959,3.7097,3.7902,3.7751,3.7801,3.8391,3.8442,3.8705,3.9245,3.9283,3.9446,3.9685,4.0083,4.1289,4.3419,4.5169,4.709,4.9292,5.0556,5.1191,5.1191,5.1191,5.2395,5.463,5.5691,5.6811,5.79,5.79,5.79,5.79,5.79,5.79,5.79,5.79,5.79,5.81,5.9786,6.0399,6.0643,6.2245,6.2793,6.2793,6.2793,6.2793,6.2793,6.2793,6.2793,6.2793,6.2793,6.2793,6.2793,6.2793,6.2793,6.2793,6.2793,6.2793,6.2861,6.3139,6.3385,6.3723,6.4217,6.4313,6.4313,6.4313,6.4007,6.3531,6.2904,6.2793,6.2793,6.2793,6.2793,6.2793,6.2793,6.2793,6.2793,6.2793,6.2793,6.2793,6.2793,6.3729,6.4285,6.4285,6.5317,6.5904,6.5904,6.5904,6.5904,6.5904,6.5904,6.5583,6.4968,6.3545,6.2127,2.1085,2.2393,2.2909,2.4182,2.5492,2.702,2.9048,3.0467,3.1857,3.3548,3.4336,3.4866,3.5395,3.5994,3.6405,3.6405,3.6405,3.6607,3.7261,3.7273,3.7487,3.8216,3.8216,3.8379,3.8982,3.858,3.868,3.9622,3.9296,3.9233,3.9672,3.969,4.0871,4.3419,4.4745,4.6649,4.9254,5.0556,5.1191,5.1191,5.1603,5.2878,5.4945,5.698,5.79,5.79,5.79,5.79,5.79,5.79,5.79,5.79,5.79,5.79,5.81,5.9786,6.0399,6.0643,6.2245,6.2793,6.2793,6.2793,6.2793,6.2793,6.2793,6.2793,6.2793,6.2793,6.2793,6.2793,6.2793,6.2793,6.2793,6.2793,6.2861,6.3056,6.3491,6.3946,6.4426,6.4992,6.5083,6.5099,6.5219,6.4536,6.372,6.2923,6.2793,6.2793,6.2793,6.2793,6.2793,6.2793,6.3121,6.3185,6.283,6.2793,6.2953,6.3317,6.4954,6.5904,6.5904,6.5904,6.5904,6.5904,6.5904,6.5904,6.5904,6.5904,6.5904,6.5846,6.382,6.2127,2.0023,2.1965,2.3151,2.329,2.5261,2.737,2.8153,3.0279,3.2425,3.364,3.4336,3.4866,3.5395,3.5994,3.6405,3.6405,3.6405,3.6746,3.7751,3.7487,3.7776,3.9283,3.907,3.8994,3.9534,3.9521,3.9534,3.9685,3.9622,3.9622,3.9697,4.1722,4.3064,4.3504,4.6856,4.8878,4.9292,5.0556,5.1191,5.1214,5.3193,5.4801,5.6047,5.7316,5.79,5.79,5.79,5.79,5.79,5.79,5.79,5.79,5.79,5.79,5.81,5.9786,6.0399,6.0643,6.2245,6.2793,6.2793,6.2793,6.2793,6.2793,6.2793,6.2793,6.2793,6.2793,6.2793,6.2793,6.2793,6.2793,6.2793,6.2793,6.3144,6.3502,6.3579,6.3666,6.3978,6.4927,6.5003,6.5105,6.5683,6.499,6.3987,6.2941,6.2793,6.2793,6.2793,6.2793,6.2793,6.2793,6.4407,6.4767,6.2953,6.2793,6.3582,6.5374,6.5742,6.5904,6.5904,6.5904,6.5904,6.5904,6.5904,6.5904,6.5904,6.5904,6.5904,6.582,6.2627,6.1018,2.0253,2.2238,2.3531,2.4983,2.6322,2.769,2.916,3.0892,3.2332,3.2834,3.3646,3.4502,3.5345,3.5719,3.6107,3.6746,3.6595,3.6884,3.8316,3.8002,3.8153,3.9534,3.9484,3.9433,3.9672,3.9697,3.9697,3.9697,3.9697,3.9697,3.9697,4.143,4.2762,4.348,4.6566,4.8596,4.9292,5.0556,5.1511,5.2184,5.4431,5.5734,5.6243,5.7372,5.79,5.79,5.79,5.79,5.79,5.79,5.8173,5.8581,5.8581,5.8581,5.872,5.9961,6.0399,6.0567,6.1733,6.242,6.2793,6.2793,6.2793,6.2793,6.2793,6.2793,6.2793,6.2793,6.2793,6.2793,6.2793,6.3026,6.3262,6.3262,6.3648,6.4109,6.4379,6.4435,6.467,6.541,6.5506,6.5554,6.5846,6.5527,6.5078,6.4608,6.4545,6.4545,6.4545,6.4545,6.4545,6.4545,6.5359,6.5527,6.4617,6.4545,6.4938,6.5846,6.5904,6.5904,6.5904,6.5904,6.5904,6.5904,6.5904,6.5904,6.5904,6.5904,6.4916,6.3018,6.1499,6.0806,2.0293,2.1954,2.3189,2.5892,2.682,2.7687,2.9902,3.1119,3.1867,3.2131,3.2893,3.3809,3.4891,3.5307,3.5794,3.6634,3.6683,3.7085,3.8479,3.8429,3.8592,3.9572,3.9697,3.9697,3.9697,3.9697,3.9697,3.9697,4.0006,4.0173,4.0173,4.169,4.3002,4.3952,4.6338,4.8175,4.9292,5.0848,5.2207,5.3346,5.5276,5.634,5.6663,5.75,5.79,5.79,5.79,5.79,5.79,5.79,5.837,5.9094,5.9094,5.9245,5.9524,6.0397,6.07,6.0805,6.1632,6.2298,6.2793,6.2793,6.2793,6.2793,6.2793,6.2793,6.2793,6.2793,6.2793,6.283,6.2965,6.3301,6.3634,6.3766,6.4177,6.4618,6.4979,6.518,6.5425,6.5814,6.5904,6.5904,6.5904,6.5904,6.5904,6.5904,6.5904,6.5904,6.5904,6.5904,6.5904,6.5904,6.5904,6.5904,6.5904,6.5904,6.5904,6.5904,6.5904,6.5904,6.5904,6.5904,6.5904,6.5904,6.5904,6.5904,6.5904,6.5032,6.3288,6.0806,6.0806,6.0806,1.9387,2.0371,2.1441,2.4378,2.582,2.7116,2.9332,3.0274,3.0964,3.198,3.2244,3.2641,3.3771,3.4816,3.552,3.5571,3.6483,3.7386,3.7965,3.8492,3.907,3.9622,3.9697,3.9697,3.9697,3.9697,3.9697,3.9697,4.0819,4.1505,4.1505,4.3858,4.5229,4.5298,4.7221,4.8581,4.9277,5.1624,5.339,5.4526,5.5654,5.6775,5.781,5.7863,5.79,5.79,5.79,5.79,5.79,5.79,5.837,5.9094,5.9094,5.9589,6.043,6.1247,6.153,6.1659,6.2459,6.2755,6.2793,6.2793,6.2793,6.2793,6.2793,6.2793,6.2793,6.2793,6.2793,6.2923,6.3419,6.3579,6.3723,6.4245,6.4609,6.4882,6.4907,6.5407,6.5878,6.5897,6.5904,6.5904,6.5904,6.5904,6.5904,6.5904,6.5904,6.5904,6.5904,6.5904,6.5904,6.5904,6.5904,6.5904,6.5904,6.5904,6.5904,6.5904,6.5904,6.5904,6.5904,6.5904,6.5904,6.5904,6.5904,6.5904,6.5878,6.2647,6.0979,6.0806,6.0806,6.0806,1.9004,1.9824,2.1011,2.4616,2.6052,2.7117,2.9318,3.0473,3.1122,3.1152,3.1717,3.2453,3.3253,3.4274,3.523,3.5956,3.672,3.7524,3.8454,3.8768,3.9107,3.9634,3.9697,3.9697,3.9697,3.9697,3.9697,3.9697,4.0121,4.0743,4.1555,4.3242,4.4572,4.538,4.7296,4.8805,4.986,5.2611,5.4211,5.463,5.6432,5.75,5.79,5.79,5.79,5.79,5.79,5.79,5.79,5.79,5.8703,5.9928,5.9928,6.044,6.1218,6.1488,6.1586,6.1646,6.1924,6.2381,6.2793,6.2793,6.2793,6.2793,6.2793,6.2793,6.2793,6.2793,6.3062,6.337,6.3546,6.4089,6.4705,6.5242,6.5444,6.5547,6.5547,6.5722,6.5904,6.5904,6.5904,6.5904,6.5904,6.5904,6.5904,6.5904,6.5904,6.5904,6.5904,6.5904,6.5904,6.5904,6.5904,6.5904,6.5904,6.5904,6.5904,6.5904,6.5904,6.5904,6.5904,6.5904,6.5904,6.5904,6.3749,6.3711,6.5878,6.248,6.0806,6.0806,6.0806,6.0806,1.802,1.9185,2.0726,2.3871,2.5769,2.7298,2.9144,3.0376,3.1135,3.1148,3.1692,3.239,3.2989,3.3985,3.5004,3.5943,3.6733,3.7474,3.8215,3.8492,3.8818,3.9371,3.9446,3.9484,3.9672,3.9697,3.9697,3.9697,4.0096,4.0882,4.2168,4.3456,4.4711,4.5995,4.7511,4.8805,4.9875,5.2809,5.4369,5.463,5.683,5.79,5.79,5.79,5.79,5.79,5.79,5.79,5.7918,5.8192,5.9129,6.043,6.0703,6.129,6.2009,6.2009,6.2009,6.2009,6.2009,6.235,6.2793,6.2793,6.2793,6.2793,6.2793,6.2793,6.2793,6.2793,6.3074,6.3408,6.3777,6.4617,6.5473,6.5827,6.5904,6.5904,6.5904,6.5904,6.5904,6.5904,6.5904,6.5904,6.5904,6.5904,6.5904,6.5904,6.5904,6.5904,6.5904,6.5904,6.5904,6.5904,6.5904,6.5904,6.5904,6.5904,6.5904,6.5904,6.5904,6.5904,6.5904,6.5904,6.5365,6.4211,6.196,6.1922,6.4185,6.1916,6.0806,6.0825,6.1979,6.2518,0.0,0.0,0.0,2.2022,2.4857,2.7588,2.881,2.986,3.0876,3.1918,3.2156,3.2365,3.2989,3.396,3.4853,3.5382,3.6458,3.721,3.721,3.7663,3.8216,3.8806,3.8869,3.9082,3.9622,3.9672,3.9672,3.9697,4.0882,4.2168,4.3432,4.4734,4.6018,4.7251,4.7938,4.864,4.9314,5.2161,5.3946,5.464,5.6849,5.79,5.79,5.79,5.79,5.79,5.79,5.79,5.7955,5.8755,5.9605,6.0491,6.129,6.2089,6.2793,6.2793,6.2793,6.2793,6.2793,6.2793,6.2793,6.2793,6.2793,6.2793,6.2793,6.2793,6.2793,6.2818,6.283,6.3085,6.4177,6.5161,6.5904,6.5904,6.5904,6.5904,6.5904,6.5904,6.5904,6.5904,6.5904,6.5904,6.5904,6.5904,6.5904,6.5904,6.5904,6.5904,6.5904,6.5904,6.5904,6.5904,6.5904,6.5904,6.5904,6.5904,6.5904,6.5904,6.5904,6.5846,6.575,6.575,6.4192,6.0864,6.0806,6.0845,6.0954,6.0845,6.0845,6.1037,6.4339,6.5904,1.6109,0.0,0.0,0.0,0.0,0.0,2.8549,2.951,3.0218,3.0889,3.1348,3.1913,3.2927,3.3658,3.4289,3.4841,3.6207,3.721,3.721,3.7663,3.8065,3.8228,3.8253,3.8467,3.907,3.912,3.9296,3.9659,4.0882,4.2168,4.3432,4.5584,4.6953,4.7287,4.7938,4.8744,4.965,5.2286,5.4055,5.4982,5.6971,5.79,5.79,5.79,5.79,5.79,5.79,5.79,5.7955,5.8755,5.9605,6.0491,6.129,6.2089,6.2793,6.2793,6.2793,6.2793,6.2793,6.2793,6.2793,6.2793,6.2793,6.2793,6.2793,6.2793,6.2874,6.3266,6.3659,6.4188,6.5226,6.5696,6.5904,6.5904,6.5904,6.5904,6.5904,6.5904,6.5904,6.5904,6.5904,6.5904,6.5904,6.5904,6.5904,6.5904,6.5904,6.5904,6.5904,6.5904,6.5904,6.5904,6.5904,6.5904,6.5904,6.5904,6.5904,6.5904,6.5904,6.4788,6.23,6.221,6.1768,6.0825,6.0806,6.2018,6.448,6.2018,6.2076,6.4512,6.5461,6.5904,0.0,0.0,1.9146,2.0204,0.0,0.0,2.7557,2.8903,3.0143,3.1386,3.1888,3.2311,3.2977,3.3533,3.401,3.4324,3.5378,3.6245,3.6471,3.6748,3.7124,3.7613,3.7663,3.7889,3.8479,3.8328,3.8517,3.9321,4.0298,4.1898,4.4181,4.6211,4.7309,4.7309,4.7683,4.8295,4.9176,5.1845,5.3608,5.4492,5.6798,5.79,5.79,5.79,5.79,5.79,5.79,5.79,5.7991,5.9162,5.9944,6.0522,6.1664,6.2394,6.2793,6.2793,6.2793,6.2793,6.2793,6.2793,6.2793,6.2793,6.2793,6.2793,6.2793,6.2793,6.2867,6.318,6.3683,6.4217,6.4536,6.5257,6.5904,6.5904,6.5904,6.5904,6.5904,6.5904,6.5904,6.5904,6.5904,6.5904,6.5904,6.5904,6.5904,6.5904,6.5904,6.5904,6.5904,6.5904,6.5346,6.3922,6.3768,6.3768,6.3768,6.3768,6.3768,6.3768,6.3768,6.2878,6.0883,6.2172,6.2935,6.2935,6.2935,6.3922,6.5904,6.3897,6.3955,6.5904,6.5904,6.6044,0.0,0.0,0.0,1.8233,2.1318,0.0,2.619,2.8019,3.005,3.2198,3.2638,3.2675,3.2801,3.3257,3.3646,3.3709,3.4173,3.4728,3.532,3.5408,3.5794,3.6797,3.696,3.7211,3.7764,3.7437,3.7699,3.8906,3.9858,4.1913,4.5421,4.6682,4.7309,4.7309,4.7309,4.7709,4.8526,5.1176,5.2917,5.3862,5.6513,5.7832,5.79,5.79,5.79,5.79,5.79,5.7954,5.8155,5.9753,6.0399,6.0567,6.2161,6.2793,6.2793,6.2793,6.2793,6.2793,6.2793,6.2793,6.2793,6.2793,6.2793,6.2793,6.2793,6.2793,6.2818,6.2898,6.3472,6.39,6.3305,6.4527,6.5904,6.5904,6.5904,6.5904,6.5904,6.5904,6.5904,6.5904,6.5904,6.5904,6.5904,6.5904,6.5904,6.5904,6.5904,6.5904,6.5904,6.5577,6.4172,6.1108,6.0806,6.0954,6.1325,6.1364,6.1364,6.1364,6.1364,6.1364,6.1364,6.4282,6.5904,6.5904,6.5904,6.5904,6.5904,6.5904,6.5904,6.5904,6.5973,6.6332,1.7139,1.7849,1.8852,1.9366,2.1318,0.0,2.5391,2.6482,2.7625,2.9358,2.9722,2.9998,3.0914,3.1524,3.2026,3.2466,3.3018,3.3746,3.4715,3.4866,3.4941,3.5155,3.5569,3.6058,3.6645,3.7009,3.7873,3.9494,4.2058,4.453,4.6821,4.7164,4.7309,4.7309,4.7309,4.817,4.9959,5.1136,5.291,5.5297,5.6468,5.7323,5.79,5.79,5.79,5.79,5.79,5.8281,5.896,5.9975,6.0399,6.0567,6.2161,6.2793,6.2793,6.2793,6.2793,6.2793,6.2793,6.2793,6.2793,6.2793,6.2793,6.2793,6.2793,6.2793,6.2923,6.352,6.4564,6.5466,6.5325,6.5596,6.5904,6.5904,6.5904,6.5904,6.5904,6.5904,6.5904,6.5904,6.5904,6.5904,6.5904,6.5904,6.5904,6.5904,6.5904,6.5904,6.5904,6.3493,6.1537,6.0864,6.0806,6.1916,6.4673,6.4903,6.4903,6.4903,6.4903,6.4903,6.4903,6.5551,6.5904,6.5904,6.5904,6.5904,6.5904,6.5904,6.5904,6.591,6.6457,6.6761,1.793,1.8118,1.8765,1.9634,2.0661,0.0,0.0,2.5037,2.5866,2.8041,2.8493,2.8844,2.9993,3.0419,3.0683,3.0959,3.17,3.2361,3.2608,3.3599,3.4389,3.4665,3.4941,3.5217,3.5516,3.5793,3.7052,3.9716,4.2087,4.4247,4.6198,4.6636,4.6794,4.6794,4.7604,4.8548,4.9595,5.136,5.3133,5.4919,5.6178,5.7188,5.79,5.79,5.79,5.79,5.79,5.837,5.9161,6.0039,6.0643,6.1131,6.2342,6.2793,6.2793,6.2793,6.2793,6.2793,6.2793,6.2793,6.2793,6.2793,6.2793,6.2793,6.2793,6.2793,6.2892,6.325,6.3842,6.4599,6.5623,6.5904,6.5904,6.5904,6.5904,6.5904,6.5904,6.5904,6.5904,6.5904,6.5904,6.5904,6.5904,6.5904,6.5904,6.5904,6.7321,6.7782,6.6115,6.4397,6.3345,6.3345,6.3345,6.4038,6.575,6.5904,6.5904,6.5904,6.5904,6.5904,6.5904,6.5904,6.5904,6.5904,6.5904,6.5904,6.5904,6.5904,6.5904,6.5916,6.658,6.6894,1.9019,1.8843,1.9152,1.9979,2.0433,2.1212,0.0,0.0,0.0,2.6673,2.7143,2.7532,2.8762,2.9095,2.917,2.917,3.0263,3.0821,3.008,3.1788,3.3395,3.4126,3.4414,3.454,3.454,3.5254,3.7007,4.0077,4.1946,4.3708,4.5412,4.6001,4.636,4.6495,4.7982,4.8907,4.911,5.1558,5.3251,5.4214,5.5833,5.6968,5.7679,5.7849,5.79,5.79,5.79,5.8441,5.941,6.0102,6.0971,6.1897,6.2541,6.2793,6.2793,6.2793,6.2793,6.2793,6.2793,6.2793,6.2793,6.2793,6.2793,6.2793,6.2793,6.2793,6.2793,6.2793,6.2793,6.3271,6.5366,6.5904,6.5904,6.5904,6.5904,6.5904,6.5904,6.5904,6.5904,6.5904,6.6423,6.6667,6.6019,6.6436,6.6635,6.5994,6.8205,6.8956,6.625,6.6462,6.6609,6.5981,6.5904,6.5904,6.5904,6.5904,6.5904,6.5904,6.5904,6.5904,6.5904,6.5904,6.5904,6.5904,6.5904,6.5904,6.5904,6.5904,6.5904,6.5916,6.658,6.6894,2.1458,2.1049,2.0726,2.1472,2.2044,2.2434,2.2481,0.0,2.3296,2.3597,0.0,2.4164,2.5774,0.0,0.0,2.6864,2.8618,2.9428,2.7889,2.9164,3.0821,3.2307,3.3382,3.3985,3.3985,3.7263,3.9965,4.1322,4.3625,4.5323,4.6151,4.6256,4.657,4.7174,4.8242,4.9256,5.0204,5.1422,5.2865,5.4563,5.541,5.6206,5.6951,5.7594,5.79,5.79,5.79,5.8789,6.0275,6.0368,6.129,6.2661,6.2755,6.2793,6.2793,6.2793,6.2793,6.2793,6.2793,6.2793,6.2793,6.2793,6.2793,6.2793,6.2793,6.2793,6.2793,6.2793,6.2793,6.3271,6.5366,6.5904,6.5904,6.5904,6.5904,6.5904,6.5904,6.5904,6.5904,6.5904,6.8302,6.9398,6.6404,6.8359,6.9321,6.6346,6.6224,6.632,6.5961,6.8494,6.9186,6.6224,6.5904,6.5904,6.5904,6.5904,6.5904,6.5904,6.5904,6.5904,6.5904,6.5904,6.5904,6.5904,6.5904,6.5904,6.5904,6.5904,6.5904,6.5916,6.658,6.6894,2.2768,2.198,2.1464,2.3248,2.2953,2.2425,2.313,2.3198,2.3108,2.3108,0.0,0.0,0.0,0.0,0.0,0.0,2.5862,2.6648,2.5963,2.7293,2.9076,3.1039,3.1964,3.3081,3.468,3.662,3.869,4.0851,4.2271,4.3479,4.4506,4.5298,4.5858,4.6127,4.8463,4.995,5.0413,5.201,5.3428,5.46,5.5344,5.6088,5.6833,5.756,5.79,5.79,5.79,5.8858,6.0399,6.0399,6.135,6.2793,6.2793,6.2793,6.2793,6.2793,6.2793,6.2793,6.2793,6.2793,6.2793,6.2793,6.2793,6.2793,6.2793,6.2793,6.2793,6.2793,6.3672,6.481,6.567,6.5904,6.5904,6.5904,6.5904,6.5904,6.5904,6.5904,6.6481,6.8417,6.9937,7.0456,6.9033,6.8359,6.7513,6.6109,6.7552,6.809,6.6147,6.7128,6.7455,6.6051,6.5904,6.5904,6.5904,6.5904,6.5904,6.5904,6.5904,6.5904,6.5904,6.5904,6.5904,6.5904,6.5904,6.5904,6.5904,6.5904,6.5904,6.5916,6.658,6.6894,2.3953,2.3385,2.3165,2.5139,2.4389,2.3352,2.4066,2.3775,2.3258,2.2945,2.2882,0.0,0.0,0.0,2.3007,2.2706,0.0,2.4365,2.3766,2.5109,2.7092,2.9609,3.067,3.2311,3.5178,3.6122,3.7647,4.0345,4.1389,4.2327,4.3245,4.4386,4.5329,4.5969,4.8675,5.0358,5.0798,5.2609,5.3771,5.4296,5.5057,5.5767,5.6528,5.7256,5.7695,5.79,5.79,5.8858,6.0399,6.0399,6.135,6.2793,6.2793,6.2793,6.2793,6.2793,6.2793,6.2793,6.2793,6.2793,6.2793,6.2793,6.2793,6.2793,6.2793,6.2793,6.2793,6.2793,6.3896,6.5184,6.5742,6.5904,6.5904,6.5904,6.5904,6.5904,6.5904,6.5904,6.6878,7.0244,7.0898,7.0898,7.0898,6.8879,6.7263,6.7263,6.934,6.9687,6.632,6.5904,6.5904,6.5904,6.5904,6.5904,6.5904,6.5904,6.5904,6.5904,6.5904,6.5904,6.5904,6.5904,6.5904,6.5904,6.5904,6.5904,6.5904,6.5904,6.5981,6.6191,6.6678,6.6894,2.5277,2.5976,2.6571,2.7083,2.6794,2.6079,2.503,2.4352,2.3665,2.2546,2.232,2.2483,2.3007,2.3108,2.2757,2.1719,2.2937,0.0,0.0,2.2221,2.4462,2.7795,2.9641,3.188,3.5093,3.6585,3.8223,4.0256,4.2168,4.3245,4.329,4.3953,4.5374,4.764,4.883,5.0202,5.1832,5.2956,5.3518,5.3551,5.4279,5.5023,5.5767,5.6511,5.7222,5.79,5.79,5.8858,6.0399,6.0399,6.135,6.2793,6.2793,6.2793,6.2793,6.2793,6.2793,6.2793,6.2793,6.2793,6.2793,6.2793,6.2793,6.2793,6.2793,6.2793,6.2793,6.2793,6.2855,6.3355,6.5381,6.5904,6.5904,6.5904,6.5904,6.5904,6.5904,6.5904,6.6878,7.0244,7.0898,7.0898,7.0898,7.0802,7.0744,7.0744,7.0821,6.9687,6.632,6.5904,6.5904,6.5904,6.5904,6.5904,6.5904,6.5904,6.5904,6.5904,6.5904,6.5904,6.5904,6.5904,6.5904,6.5904,6.5904,6.5904,6.5904,6.5904,6.6237,6.6865,6.6894,6.6894,2.6388,2.6563,2.6833,2.8058,2.7971,2.7462,2.7071,2.6836,2.6289,2.4795,2.4189,2.3675,2.2746,2.2571,2.2219,0.0,2.1446,2.1545,0.0,2.1782,2.3108,2.46,2.6942,2.9936,3.384,3.5024,3.6713,3.9533,4.0771,4.1773,4.2661,4.3294,4.4729,4.7125,4.8631,5.0205,5.1887,5.2973,5.3501,5.3518,5.4245,5.4989,5.5733,5.646,5.7205,5.7936,5.8458,5.9345,6.0445,6.0967,6.1829,6.2793,6.2793,6.2793,6.2793,6.2793,6.2793,6.2793,6.2793,6.2793,6.2793,6.2793,6.2793,6.2793,6.2793,6.2793,6.2793,6.2793,6.2793,6.2965,6.3672,6.4869,6.5904,6.5904,6.5904,6.5904,6.5904,6.7628,6.9533,7.0687,7.0898,7.0898,7.0898,7.0898,7.0898,7.0898,6.9013,6.7186,6.6051,6.5904,6.5904,6.5904,6.5904,6.5904,6.5904,6.5904,6.5904,6.5904,6.5904,6.5904,6.5904,6.5904,6.5904,6.5904,6.5904,6.6119,6.6564,6.6119,6.6235,6.69,6.6902,6.6894,2.7268,2.7678,2.8201,2.9256,2.8933,2.8438,2.8662,2.8398,2.7858,2.6967,2.6038,2.5134,2.4243,2.3587,2.2822,0.0,0.0,2.1055,0.0,2.0978,2.168,2.2445,2.5258,2.8708,3.2674,3.3856,3.5773,3.9149,3.9795,4.0621,4.1957,4.2964,4.4565,4.6969,4.8682,5.0342,5.2037,5.301,5.3501,5.3518,5.3974,5.4737,5.5741,5.6491,5.7398,5.841,5.9223,6.0037,6.0882,6.1389,6.2063,6.2793,6.2793,6.2793,6.2793,6.2793,6.2793,6.2793,6.2793,6.2793,6.2793,6.2793,6.2793,6.2793,6.2793,6.2793,6.2793,6.2793,6.2793,6.2965,6.3715,6.4351,6.4987,6.5722,6.5904,6.5904,6.5904,6.8532,7.0898,7.0898,7.0898,7.0898,7.0898,7.0898,7.0494,6.9302,6.7282,6.5904,6.5904,6.5904,6.5904,6.5904,6.5904,6.5904,6.5904,6.5904,6.5904,6.5904,6.5904,6.5904,6.5904,6.5904,6.5904,6.5904,6.5904,6.6226,6.6894,6.6469,6.6479,6.6894,6.6894,6.6894]},{"header":{"parameterUnit":"m.s-1","parameterCategory":1,"la1":30.6,"la2":29.2853,"lo1":-89.7004,"lo2":-87.6739,"dx":0.0162,"dy":0.0183,"nx":112,"ny":82,"refTime":"2022-12-22T06:00:00:Z","depth":0,"parameterNumber":3,"parameterNumberName":"V-component_of_WINDS"},"data":[0.0,0.0,0.0,0.0,0.0,0.0,0.0,0.0,0.0,0.0,0.0,0.0,0.0,0.0,0.0,0.0,0.0,0.0,0.0,0.0,0.0,0.0,0.0,0.0,0.0,0.0,0.0,0.0,0.0,0.0,0.0,0.0,0.0,0.0,0.0,0.0,0.0,0.0,0.0,0.0,0.0,0.0,0.0,0.0,0.0,0.0,0.0,0.0,0.0,0.0,0.0,0.0,0.0,0.0,0.0,0.0,0.0,0.0,0.0,0.0,0.0,0.0,0.0,0.0,0.0,0.0,0.0,0.0,0.0,0.0,0.0,0.0,0.0,0.0,0.0,0.0,0.0,0.0,0.0,0.0,0.0,0.0,0.0,0.0,0.0,0.0,0.0,0.0,0.0,0.0,1.7806,1.9429,2.0253,2.0693,2.0693,2.1927,2.2024,2.0429,0.0,0.0,0.0,0.0,0.0,0.0,0.0,0.0,0.0,0.0,0.0,0.0,0.0,0.0,0.0,0.0,0.0,0.0,0.0,0.0,0.0,0.0,0.0,0.0,0.0,0.0,0.0,0.0,0.0,0.0,0.0,0.0,0.0,0.0,0.0,0.0,0.0,0.0,0.0,0.0,0.0,0.0,0.0,0.0,0.0,0.0,0.0,0.0,0.0,0.0,0.0,0.0,0.0,0.0,0.0,0.0,0.0,0.0,0.0,0.0,0.0,0.0,0.0,0.0,0.0,0.0,0.0,0.0,0.0,0.0,0.0,0.0,0.0,0.0,0.0,0.0,0.0,0.0,0.0,0.0,0.0,0.0,0.0,0.0,0.0,0.0,0.0,0.0,0.0,0.0,0.0,0.0,0.0,0.0,0.0,0.0,0.0,0.0,0.0,0.0,0.0,0.0,0.0,0.0,1.7425,2.0575,2.1035,2.1113,2.1113,2.2098,2.217,2.0963,0.0,0.0,0.0,0.0,0.0,0.0,0.0,0.0,0.0,0.0,0.0,0.0,0.0,0.0,0.0,0.0,0.0,0.0,0.0,0.0,0.0,0.0,0.0,0.0,0.0,0.0,0.0,0.0,0.0,0.0,0.0,0.0,0.0,0.0,0.0,0.0,0.0,0.0,0.0,0.0,0.0,0.0,0.0,0.0,0.0,0.0,0.0,0.0,0.0,0.0,0.0,0.0,0.0,0.0,0.0,0.0,0.0,0.0,0.0,0.0,0.0,0.0,0.0,0.0,0.0,0.0,0.0,0.0,0.0,0.0,0.0,0.0,0.0,0.0,0.0,0.0,0.0,0.0,0.0,0.0,0.0,0.0,0.0,0.0,0.0,0.0,0.0,0.0,0.0,0.0,0.0,0.0,0.0,0.0,0.0,0.0,0.0,0.0,0.0,0.0,0.0,0.0,0.0,1.725,1.8723,2.1303,2.1592,2.1592,2.1592,2.2278,2.2445,2.1852,2.1186,0.0,0.0,0.0,0.0,0.0,0.0,0.0,0.0,0.0,0.0,0.0,0.0,0.0,0.0,0.0,0.0,0.0,0.0,0.0,0.0,0.0,0.0,0.0,0.0,0.0,0.0,0.0,0.0,0.0,0.0,0.0,0.0,0.0,0.0,0.0,0.0,0.0,0.0,0.0,0.0,0.0,0.0,0.0,0.0,0.0,0.0,0.0,0.0,0.0,0.0,0.0,0.0,0.0,0.0,0.0,0.0,0.0,0.0,0.0,0.0,0.0,0.0,0.0,0.0,0.0,0.0,0.0,0.0,0.0,0.0,0.0,0.0,0.0,0.0,0.0,0.0,0.0,0.0,0.0,0.0,0.0,0.0,0.0,0.0,0.0,0.0,0.0,0.0,0.0,0.0,0.0,0.0,0.0,0.0,0.0,0.0,0.0,0.0,0.0,0.0,0.0,0.0,1.905,2.0276,2.1871,2.2031,2.2031,2.2031,2.2866,2.3128,2.2539,2.195,0.0,0.0,0.0,0.0,0.0,0.0,0.0,0.0,0.0,0.0,0.0,0.0,0.0,0.0,0.0,0.0,0.0,0.0,0.0,0.0,0.0,0.0,0.0,0.0,0.0,0.0,0.0,0.0,0.0,0.0,0.0,0.0,0.0,0.0,0.0,0.0,0.0,0.0,0.0,0.0,0.0,0.0,0.0,0.0,0.0,0.0,0.0,0.0,0.0,0.0,0.0,0.0,0.0,0.0,0.0,0.0,0.0,0.0,0.0,0.0,0.0,0.0,0.0,0.0,0.0,0.0,0.0,0.0,0.0,0.0,0.0,0.0,0.0,0.0,0.0,0.0,0.0,0.0,0.0,0.0,0.0,0.0,0.0,0.0,0.0,0.0,0.0,0.0,0.0,0.0,0.0,0.0,0.0,0.0,0.0,0.0,0.0,0.0,0.0,0.0,0.0,0.0,1.9454,2.1412,2.2352,2.2471,2.2471,2.2471,2.4257,2.4559,2.2619,2.3309,0.0,0.0,0.0,0.0,0.0,0.0,0.0,0.0,0.0,0.0,0.0,0.0,0.0,0.0,0.0,0.0,0.0,0.0,0.0,0.0,0.0,0.0,0.0,0.0,0.0,0.0,0.0,0.0,0.0,0.0,0.0,0.0,0.0,0.0,0.0,0.0,0.0,0.0,0.0,0.0,0.0,0.0,0.0,0.0,0.0,0.0,0.0,0.0,0.0,0.0,0.0,0.0,0.0,0.0,0.0,0.0,0.0,0.0,0.0,0.0,0.0,0.0,0.0,0.0,0.0,0.0,0.0,0.0,0.0,0.0,0.0,0.0,0.0,0.0,0.0,0.0,0.0,0.0,0.0,0.0,0.0,0.0,0.0,0.0,0.0,0.0,0.0,0.0,0.0,0.0,0.0,0.0,0.0,0.0,0.0,0.0,0.0,0.0,0.0,0.0,0.0,0.0,1.9751,2.1248,2.2726,2.2857,2.3171,2.3859,2.4418,2.4506,2.3961,0.0,0.0,0.0,0.0,0.0,0.0,0.0,0.0,0.0,0.0,0.0,0.0,0.0,0.0,0.0,0.0,0.0,0.0,0.0,0.0,0.0,0.0,0.0,0.0,0.0,0.0,0.0,0.0,0.0,0.0,0.0,0.0,0.0,0.0,0.0,0.0,0.0,0.0,0.0,0.0,0.0,0.0,0.0,0.0,0.0,0.0,0.0,0.0,0.0,0.0,0.0,0.0,0.0,0.0,0.0,0.0,0.0,0.0,0.0,0.0,0.0,0.0,0.0,0.0,0.0,0.0,0.0,0.0,0.0,0.0,0.0,0.0,0.0,0.0,0.0,0.0,0.0,0.0,0.0,0.0,0.0,0.0,0.0,0.0,0.0,0.0,0.0,0.0,0.0,0.0,0.0,0.0,0.0,0.0,0.0,0.0,0.0,0.0,0.0,0.0,0.0,0.0,1.8846,2.0296,2.1584,2.2948,2.3091,2.3408,2.4189,2.4682,2.4748,2.4291,0.0,0.0,0.0,0.0,0.0,0.0,0.0,0.0,0.0,0.0,0.0,0.0,0.0,0.0,0.0,0.0,0.0,0.0,0.0,0.0,0.0,0.0,0.0,0.0,0.0,0.0,0.0,0.0,0.0,0.0,0.0,0.0,0.0,0.0,0.0,0.0,0.0,0.0,0.0,0.0,0.0,0.0,0.0,0.0,0.0,0.0,0.0,0.0,0.0,0.0,0.0,0.0,0.0,0.0,0.0,0.0,0.0,0.0,0.0,0.0,0.0,0.0,0.0,0.0,0.0,0.0,0.0,0.0,0.0,0.0,0.0,0.0,0.0,0.0,0.0,0.0,0.0,0.0,0.0,0.0,0.0,0.0,0.0,0.0,0.0,0.0,0.0,0.0,0.0,0.0,0.0,0.0,0.0,0.0,0.0,0.0,0.0,0.0,0.0,0.0,0.0,0.0,1.9068,2.1134,2.2654,2.3052,2.3091,2.3113,2.3144,2.521,2.5541,0.0,0.0,0.0,0.0,0.0,0.0,0.0,0.0,0.0,0.0,0.0,0.0,0.0,0.0,0.0,0.0,0.0,0.0,0.0,0.0,0.0,0.0,0.0,0.0,0.0,0.0,0.0,0.0,0.0,0.0,0.0,0.0,0.0,0.0,0.0,0.0,0.0,0.0,0.0,0.0,0.0,0.0,0.0,0.0,0.0,0.0,0.0,0.0,0.0,0.0,0.0,0.0,0.0,0.0,0.0,0.0,0.0,0.0,0.0,0.0,0.0,0.0,0.0,0.0,0.0,0.0,0.0,0.0,0.0,0.0,0.0,0.0,0.0,0.0,0.0,0.0,0.0,0.0,0.0,0.0,0.0,0.0,0.0,0.0,0.0,0.0,0.0,0.0,0.0,0.0,0.0,0.0,0.0,0.0,0.0,0.0,0.0,0.0,0.0,0.0,0.0,0.0,0.0,2.0032,2.1797,2.2976,2.3081,2.3091,2.3746,2.5347,2.6099,2.6537,2.6626,0.0,0.0,0.0,0.0,0.0,0.0,0.0,0.0,0.0,0.0,0.0,0.0,0.0,0.0,0.0,0.0,0.0,0.0,0.0,0.0,0.0,0.0,0.0,0.0,0.0,0.0,0.0,0.0,0.0,0.0,0.0,0.0,0.0,0.0,0.0,0.0,0.0,0.0,0.0,0.0,0.0,0.0,0.0,0.0,0.0,0.0,0.0,0.0,0.0,0.0,0.0,0.0,0.0,0.0,0.0,0.0,0.0,0.0,0.0,0.0,0.0,0.0,0.0,0.0,0.0,0.0,0.0,0.0,0.0,0.0,0.0,0.0,0.0,0.0,0.0,0.0,0.0,0.0,0.0,0.0,0.0,0.0,0.0,0.0,0.0,0.0,0.0,0.0,0.0,0.0,0.0,0.0,0.0,0.0,0.0,0.0,0.0,0.0,0.0,0.0,0.0,0.0,2.0976,2.2285,2.3091,2.3091,2.3507,2.4318,2.5704,2.6625,2.7221,2.7446,0.0,0.0,0.0,0.0,0.0,0.0,0.0,0.0,0.0,0.0,0.0,0.0,0.0,0.0,0.0,0.0,0.0,0.0,0.0,0.0,0.0,0.0,0.0,0.0,0.0,0.0,0.0,0.0,0.0,0.0,0.0,0.0,0.0,0.0,0.0,0.0,0.0,0.0,0.0,0.0,0.0,0.0,0.0,0.0,0.0,0.0,0.0,0.0,0.0,0.0,0.0,0.0,0.0,0.0,0.0,0.0,0.0,0.0,0.0,0.0,0.0,0.0,0.0,0.0,0.0,0.0,0.0,0.0,0.0,0.0,0.0,0.0,0.0,0.0,0.0,0.0,0.0,0.0,0.0,0.0,0.0,0.0,0.0,0.0,0.0,0.0,0.0,0.0,0.0,0.0,0.0,0.0,0.0,0.0,0.0,0.0,0.0,0.0,0.0,0.0,0.0,0.0,2.1808,2.2596,2.3091,2.3091,2.4027,2.4723,2.4935,2.6799,2.7625,2.6845,0.0,0.0,0.0,0.0,0.0,0.0,0.0,0.0,0.0,0.0,0.0,0.0,0.0,0.0,0.0,0.0,0.0,0.0,0.0,0.0,0.0,0.0,0.0,0.0,0.0,0.0,0.0,0.0,0.0,0.0,0.0,0.0,0.0,0.0,0.0,0.0,0.0,0.0,0.0,0.0,0.0,0.0,0.0,0.0,0.0,0.0,0.0,0.0,0.0,0.0,0.0,0.0,0.0,0.0,0.0,0.0,0.0,0.0,0.0,0.0,1.5874,1.4131,0.0,0.0,0.0,0.0,0.0,0.0,0.0,0.0,0.0,0.0,0.0,0.0,0.0,0.0,0.0,0.0,0.0,0.0,0.0,0.0,0.0,0.0,0.0,0.0,0.0,0.0,0.0,0.0,0.0,0.0,0.0,0.0,0.0,0.0,0.0,0.0,0.0,0.0,0.0,0.0,2.1886,2.2596,2.3091,2.3091,2.3321,2.4199,2.5975,2.6575,2.7492,2.9005,2.9313,0.0,0.0,0.0,0.0,0.0,0.0,0.0,0.0,0.0,0.0,0.0,0.0,0.0,0.0,0.0,0.0,0.0,0.0,0.0,0.0,0.0,0.0,0.0,0.0,0.0,0.0,0.0,0.0,0.0,0.0,0.0,0.0,0.0,0.0,0.0,0.0,0.0,0.0,0.0,0.0,0.0,0.0,0.0,0.0,0.0,0.0,0.0,0.0,0.0,0.0,0.0,0.0,0.0,0.0,0.0,0.0,0.0,0.0,0.0,1.7656,1.6303,0.0,0.0,0.0,0.0,0.0,0.0,0.0,0.0,0.0,0.0,0.0,0.0,0.0,0.0,0.0,0.0,0.0,0.0,0.0,0.0,0.0,0.0,0.0,0.0,0.0,0.0,0.0,0.0,0.0,0.0,0.0,0.0,0.0,0.0,0.0,0.0,0.0,0.0,0.0,0.0,2.244,2.3035,2.3435,2.3435,2.4633,2.5893,2.7072,2.7476,2.8387,3.0083,2.967,0.0,0.0,0.0,0.0,0.0,0.0,0.0,0.0,0.0,0.0,0.0,0.0,0.0,0.0,0.0,0.0,0.0,0.0,0.0,0.0,0.0,0.0,0.0,0.0,0.0,0.0,0.0,0.0,0.0,0.0,0.0,0.0,0.0,0.0,0.0,0.0,0.0,0.0,0.0,0.0,0.0,0.0,0.0,0.0,0.0,0.0,0.0,0.0,0.0,0.0,0.0,0.0,0.0,1.9531,1.9922,2.0254,2.0254,2.0635,2.123,1.9444,1.8771,1.884,1.737,0.0,0.0,0.0,0.0,0.0,0.0,0.0,0.0,0.0,0.0,0.0,0.0,0.0,0.0,0.0,0.0,0.0,0.0,0.0,0.0,0.0,0.0,1.4049,1.4254,1.469,1.4869,1.4152,0.0,0.0,0.0,0.0,0.0,0.0,0.0,0.0,0.0,0.0,0.0,2.3181,2.3564,2.3818,2.3896,2.593,2.736,2.7557,2.8293,2.9173,3.0223,2.9695,2.9484,0.0,0.0,0.0,0.0,0.0,0.0,0.0,0.0,0.0,0.0,0.0,0.0,0.0,0.0,0.0,0.0,0.0,0.0,0.0,0.0,0.0,0.0,0.0,0.0,0.0,0.0,0.0,0.0,0.0,0.0,0.0,0.0,1.9103,1.8717,0.0,0.0,0.0,0.0,0.0,0.0,0.0,0.0,0.0,0.0,0.0,0.0,0.0,1.8664,1.9464,2.0058,2.0508,2.0859,2.1328,2.1593,2.1651,2.1651,2.171,2.1787,2.1514,0.0,2.0283,1.9658,0.0,0.0,0.0,0.0,0.0,0.0,0.0,0.0,0.0,0.0,0.0,0.0,0.0,0.0,0.0,0.0,0.0,0.0,0.0,0.0,0.0,0.0,1.7105,1.7149,1.7231,1.7253,1.7127,1.6464,1.6376,1.8032,1.9054,1.9837,0.0,0.0,0.0,0.0,0.0,0.0,2.3652,2.375,2.3935,2.4274,2.4651,2.5255,2.6261,2.7371,2.8312,2.8998,3.0315,3.0681,2.9829,3.0256,0.0,0.0,0.0,0.0,0.0,0.0,0.0,0.0,0.0,0.0,0.0,0.0,0.0,0.0,0.0,0.0,0.0,0.0,0.0,0.0,0.0,0.0,0.0,0.0,0.0,0.0,0.0,0.0,0.0,1.9445,1.9603,2.0371,1.9661,1.9233,0.0,0.0,0.0,0.0,0.0,0.0,0.0,0.0,0.0,1.9687,1.9942,2.0371,2.1016,2.1445,2.1758,2.1942,2.2362,2.2566,2.2566,2.2566,2.2566,2.2566,2.2566,2.2373,2.1923,2.1015,2.0459,2.0127,0.0,0.0,0.0,0.0,1.8064,1.7601,1.843,1.8318,1.7752,1.765,0.0,0.0,0.0,0.0,0.0,0.0,0.0,1.5112,1.6138,1.6284,1.6445,1.7463,1.7692,1.8072,1.942,1.8793,1.8178,1.8973,2.0018,2.0897,2.13,2.22,0.0,0.0,0.0,2.3662,2.4082,2.4378,2.4603,2.4756,2.5638,2.6679,2.7843,2.8221,2.9073,3.0615,3.0596,3.0569,3.0688,3.0344,2.9465,0.0,0.0,0.0,0.0,0.0,0.0,0.0,0.0,0.0,0.0,0.0,0.0,0.0,0.0,0.0,0.0,0.0,0.0,0.0,0.0,0.0,0.0,0.0,0.0,0.0,0.0,0.0,0.0,2.093,2.1231,2.2312,2.151,2.105,0.0,0.0,0.0,0.0,0.0,0.0,1.9822,2.0059,2.0498,2.1065,2.1387,2.1747,2.2207,2.2498,2.2654,2.2654,2.2967,2.3091,2.3091,2.3091,2.3091,2.3091,2.3091,2.3091,2.3013,2.1981,2.1669,2.1807,2.1055,2.0488,2.0098,2.0186,1.9659,1.9108,2.0585,2.0619,2.0064,2.0167,1.9072,1.7392,1.5557,0.0,0.0,0.0,0.0,1.4688,1.5838,1.5669,1.5648,1.742,1.8085,1.8931,2.1151,2.087,2.0167,2.0125,2.0935,2.1738,2.203,2.2847,0.0,2.4293,2.415,2.4102,2.4531,2.4887,2.5141,2.5225,2.636,2.7602,2.8843,2.8946,2.9748,3.1621,3.0924,3.0767,3.1579,3.0696,3.0068,2.9804,0.0,0.0,0.0,0.0,0.0,0.0,0.0,0.0,0.0,0.0,0.0,0.0,0.0,0.0,0.0,0.0,0.0,0.0,0.0,0.0,0.0,0.0,0.0,0.0,0.0,0.0,0.0,0.0,0.0,2.4797,2.4168,0.0,0.0,0.0,0.0,2.1882,2.182,2.1591,2.1133,2.1112,2.1532,2.2383,2.241,2.2625,2.3054,2.3052,2.3062,2.3062,2.3081,2.3091,2.3091,2.3091,2.3091,2.3091,2.3091,2.3091,2.3062,2.2615,2.2227,2.1857,2.1357,2.0928,2.0605,2.0986,2.1092,2.1179,2.2098,2.2127,2.1843,2.2222,2.0519,1.7927,1.5684,1.4972,0.0,0.0,1.7154,1.5936,1.8598,1.7524,1.6184,1.7875,1.9146,2.0451,2.2146,2.2284,2.2221,2.2788,2.2402,2.2341,2.3503,0.0,2.4342,2.4391,2.4371,2.4541,2.5004,2.5082,2.5258,2.564,2.5747,2.6318,2.7589,2.8728,2.9681,3.0452,3.1499,3.2102,3.2156,3.1625,3.0834,2.9817,2.727,0.0,0.0,0.0,0.0,0.0,0.0,0.0,0.0,0.0,0.0,0.0,0.0,0.0,0.0,0.0,0.0,0.0,0.0,0.0,0.0,0.0,0.0,0.0,0.0,0.0,0.0,0.0,0.0,2.6083,2.6064,0.0,2.4619,2.4091,2.3495,2.2742,2.2433,2.2324,2.241,2.2418,2.2576,2.2888,2.3193,2.3408,2.3555,2.3806,2.3942,2.3942,2.3942,2.3942,2.3942,2.3942,2.3942,2.3942,2.3942,2.3942,2.3932,2.3776,2.3308,2.2654,2.2477,2.2342,2.2225,2.236,2.2418,2.2467,2.2791,2.2801,2.2447,2.1023,1.9381,1.7644,1.6014,1.5518,1.5944,1.8001,1.7332,1.645,1.8447,1.8321,1.802,1.9446,2.076,2.2096,2.3453,2.3066,2.2755,2.3735,2.2964,2.2658,2.4349,2.4502,2.4586,2.5152,2.5019,2.5121,2.5845,2.5942,2.6084,2.6489,2.6537,2.7395,2.9537,3.0122,3.1009,3.2553,3.2728,3.2604,3.2206,3.0933,3.0094,2.9804,2.734,2.5719,0.0,0.0,0.0,0.0,0.0,0.0,0.0,0.0,0.0,0.0,0.0,0.0,0.0,0.0,0.0,0.0,0.0,0.0,0.0,0.0,0.0,0.0,0.0,0.0,0.0,2.7853,2.8666,2.7938,2.7803,2.7343,2.6227,2.5081,2.421,2.37,2.3069,2.2888,2.3308,2.3337,2.3406,2.3542,2.3825,2.4004,2.4004,2.4277,2.4391,2.4391,2.4391,2.4391,2.4391,2.4391,2.4391,2.4391,2.4391,2.4391,2.4391,2.4391,2.4059,2.3542,2.3542,2.3542,2.3532,2.3386,2.3337,2.3318,2.3149,2.2915,2.2331,2.0297,1.8886,1.7735,1.6481,1.6102,1.6425,1.7937,1.7427,1.6773,1.826,1.8673,1.9063,2.0484,2.1854,2.3205,2.4542,2.4322,2.413,2.4912,2.3692,2.3088,2.4796,2.4951,2.5132,2.601,2.5801,2.5854,2.6734,2.6689,2.6709,2.6957,2.6986,2.8061,3.0693,3.1067,3.2029,3.4042,3.401,3.3571,3.2817,3.1841,3.0958,3.0222,2.7633,2.5934,2.519,0.0,0.0,0.0,0.0,0.0,0.0,0.0,0.0,0.0,0.0,0.0,0.0,0.0,0.0,0.0,0.0,0.0,0.0,0.0,0.0,0.0,0.0,0.0,2.9051,3.0178,3.1034,3.0426,2.9451,2.8799,2.8725,2.6455,2.4957,2.4872,2.3874,2.3448,2.3914,2.3943,2.4098,2.4487,2.4539,2.4549,2.4549,2.4522,2.4499,2.4499,2.4453,2.443,2.443,2.443,2.443,2.443,2.443,2.443,2.443,2.443,2.443,2.443,2.4401,2.4391,2.4342,2.3965,2.3831,2.375,2.3254,2.2492,2.155,2.026,1.9215,1.8237,1.7043,1.6707,1.695,1.8178,1.7647,1.6989,1.8217,1.8669,1.9212,2.0851,2.232,2.3763,2.5333,2.6029,2.6356,2.6356,2.4722,2.3716,2.4951,2.5488,2.604,2.6889,2.668,0.0,2.7604,2.7305,2.7015,2.7045,2.7045,2.8132,3.0782,3.145,3.2598,3.462,3.5184,3.4961,3.3906,3.4267,3.3353,3.0877,2.8087,2.5908,2.441,0.0,0.0,0.0,0.0,0.0,0.0,0.0,0.0,0.0,0.0,0.0,0.0,0.0,0.0,0.0,0.0,0.0,0.0,0.0,0.0,0.0,3.3166,3.337,3.1407,3.1978,3.2442,3.203,3.1715,3.0934,2.9423,2.9042,2.8234,2.6734,2.6692,2.677,2.6911,2.6911,2.6976,2.7084,2.741,2.7583,2.7583,2.701,2.672,2.672,2.5781,2.5347,2.5347,2.5347,2.5347,2.5347,2.5347,2.5347,2.5347,2.5347,2.5347,2.5289,2.4645,2.4391,2.4381,2.4287,2.4248,2.4091,2.2973,2.1875,2.0692,1.9332,1.8115,1.7118,1.6807,1.6707,1.7016,1.8572,1.8073,1.74,1.8899,2.0299,2.1434,2.1882,2.3219,2.4515,2.4941,2.5163,2.5236,2.5236,2.5641,2.6064,2.6425,2.6557,2.6846,2.7428,2.7119,2.7148,2.8008,2.777,2.7725,2.833,2.8372,2.9625,3.2749,3.2776,3.3568,3.579,3.4742,3.3739,3.3065,3.1345,2.9401,2.7197,2.6084,2.533,0.0,0.0,0.0,0.0,0.0,0.0,0.0,0.0,0.0,0.0,0.0,0.0,0.0,0.0,0.0,0.0,0.0,0.0,0.0,0.0,0.0,0.0,3.4767,3.4751,3.3661,3.3855,3.4151,3.422,3.3476,3.2746,3.2278,3.0967,2.9821,2.9024,2.8436,2.8193,2.8374,2.8385,2.8475,2.8633,2.9128,2.9386,2.9386,2.858,2.818,2.818,2.6857,2.6245,2.6245,2.6245,2.6245,2.6245,2.6245,2.6245,2.6245,2.6245,2.6245,2.6157,0.0,0.0,0.0,0.0,2.458,2.4206,2.2872,2.1687,2.0549,1.9148,1.7966,1.7074,1.7074,1.7469,1.8009,1.8558,1.8566,1.8539,1.9001,2.0347,2.1698,2.233,2.3172,2.4175,2.5463,2.5374,2.5248,2.5904,2.6831,0.0,2.7549,2.7256,2.7226,2.7858,2.7715,2.7861,2.8748,2.864,2.8679,2.9141,2.9189,3.0428,3.355,3.3716,0.0,0.0,0.0,3.4058,3.2957,3.0465,0.0,0.0,0.0,2.6089,2.5903,2.5967,0.0,0.0,2.416,2.3288,0.0,0.0,0.0,0.0,0.0,0.0,0.0,0.0,0.0,0.0,0.0,0.0,0.0,0.0,0.0,0.0,3.6191,3.5963,3.5669,3.5747,3.6008,3.645,3.493,3.4426,3.5874,3.2614,3.0745,3.1524,2.9826,2.8938,2.935,2.943,0.0,0.0,0.0,3.0717,3.0717,2.9869,2.9352,2.9215,2.7859,2.7165,2.6986,2.6986,2.6986,2.6986,2.6986,2.6986,2.6996,2.6823,2.6746,2.6704,2.6073,2.5796,2.5669,2.5366,2.4941,2.4338,2.2866,0.0,0.0,1.9453,1.8445,1.7809,1.7809,1.8617,1.9316,1.8381,1.9009,1.9752,1.8795,1.9741,2.1274,2.2532,2.293,2.3703,2.6163,2.6138,2.598,2.7155,2.7951,2.8437,2.8437,2.7764,2.75,2.831,2.8437,2.873,2.9559,2.9627,2.9618,2.9667,2.9834,0.0,3.3739,3.4512,3.513,3.5859,3.5616,3.4618,3.2805,3.0504,2.9579,3.0166,2.8489,2.7428,2.6986,2.6641,2.6455,2.6435,2.545,2.4243,0.0,0.0,0.0,0.0,0.0,0.0,0.0,0.0,0.0,0.0,0.0,0.0,0.0,0.0,0.0,3.6688,3.7558,3.7831,3.649,3.734,3.7697,3.6622,3.6573,3.6453,3.6042,3.4939,3.3986,3.3355,3.2966,3.282,3.2897,3.3315,3.3576,3.3664,3.3785,3.3824,3.3824,3.271,3.1603,3.0524,2.9239,0.0,2.6986,2.6986,2.6986,2.6986,2.6986,2.6986,2.691,2.5722,2.522,2.5332,2.6349,2.6323,2.5747,2.6035,2.5859,2.5131,2.2915,2.2181,2.1851,1.9628,1.8974,1.9047,1.9047,1.9049,0.0,1.8794,1.8913,1.9095,1.8881,2.1265,2.3698,2.3607,2.5022,2.6097,2.5054,2.5933,2.663,2.5629,2.7557,2.9354,2.9354,2.8887,2.873,2.9276,2.9354,2.953,3.001,2.9813,2.9725,3.0039,3.1157,3.2727,3.4838,3.5802,3.6346,3.6523,3.3653,3.128,2.9782,2.8641,2.8103,2.8234,2.7508,2.71,2.6986,2.6908,2.6869,2.6824,2.5097,2.3563,0.0,0.0,0.0,0.0,0.0,0.0,0.0,0.0,0.0,0.0,0.0,3.8105,3.9626,0.0,3.7653,3.8296,3.8433,3.8264,3.7735,3.8263,3.8383,3.7554,3.7239,3.7269,3.7661,3.6821,3.6021,3.55,3.5299,3.4946,3.4334,3.4552,3.4703,3.4703,3.4966,3.5117,3.5117,3.4144,3.2953,3.1578,3.0281,2.8942,2.7656,2.7656,2.7656,2.7656,2.7656,2.7656,2.7604,2.6857,2.6548,2.6656,2.7581,2.6928,2.5391,2.4888,2.5178,2.5413,2.2686,2.2349,2.2717,2.0005,1.9274,1.9395,1.9395,1.9763,2.0025,1.9515,1.9831,2.0226,1.9679,2.0939,2.2691,2.4036,2.4676,2.5363,2.6672,2.7129,2.7293,2.7264,2.8512,2.9598,2.9598,2.956,2.956,2.9598,2.9774,2.9961,3.0166,3.0215,3.0341,3.0518,3.1207,3.2649,3.5085,3.5744,3.5588,3.4603,3.2053,3.0091,2.8963,2.8516,2.822,2.8015,2.7764,2.7656,2.7656,2.7835,2.7535,2.6707,2.5207,2.3764,0.0,0.0,0.0,0.0,0.0,0.0,0.0,3.8009,3.8529,4.0265,3.9509,3.8993,4.0514,3.9146,3.8248,3.9659,3.9296,3.8924,3.9188,3.9437,3.9525,3.9344,3.823,3.8047,3.9453,3.8442,3.7594,3.731,3.6891,3.6139,3.4921,3.4966,3.5039,3.5039,3.5443,3.5682,3.5682,3.5087,3.4092,3.2694,3.1607,3.024,2.8698,2.8698,2.8548,2.8291,2.8291,2.8147,2.7879,2.7966,2.7995,2.8007,2.8109,2.6967,2.5139,2.44,2.4877,2.5526,2.2893,2.2624,2.3084,2.0479,1.9689,1.9736,1.9736,2.0461,2.1082,2.0221,2.0745,2.1403,2.052,2.0568,2.1486,2.3947,2.4164,2.4727,2.8038,2.8113,2.7882,2.9145,2.9372,2.9466,2.9796,3.0107,3.0185,2.9784,3.0059,3.0332,3.0332,3.0664,3.0889,3.0889,3.117,3.2407,3.5068,3.5041,3.4212,3.2643,3.1147,3.0019,2.9336,2.9307,2.9101,2.8672,2.8662,2.8623,2.8545,2.8877,2.8197,2.6579,2.5435,2.4105,3.7441,3.805,3.8724,3.8881,3.9283,3.9631,0.0,3.9817,3.9986,3.9991,3.9669,3.9428,3.9645,3.9205,3.8904,3.9085,4.0645,4.1557,4.0848,4.1933,4.274,4.2587,4.1058,4.0058,4.0259,3.9813,3.9081,3.8055,3.7502,3.6681,3.5464,3.5918,3.6205,3.6205,3.6256,3.6293,3.6293,3.6225,3.5487,3.4153,3.3994,3.258,3.0094,3.0094,2.9434,2.8291,2.8291,2.7565,2.6373,2.6728,2.6874,2.678,2.5883,2.5415,2.552,2.7512,2.724,2.5707,2.4419,2.3312,2.2275,2.0978,2.0702,2.0915,2.0915,2.0852,2.0743,2.063,2.0698,2.0797,2.0676,2.1944,2.321,2.3156,2.5488,2.7404,2.6071,2.7098,2.8321,2.8498,2.8528,2.9018,3.05,3.0781,3.0654,3.0195,3.0518,3.081,3.081,3.0859,3.0889,3.0889,3.2064,3.3519,3.5162,3.4097,3.3244,3.3032,3.1639,3.0771,3.0674,3.0674,3.0449,2.999,2.998,2.9805,2.9452,2.95,2.8652,2.7011,2.5554,2.4042,3.9367,4.0192,4.0754,4.0594,4.0653,4.0653,4.023,4.0217,4.0358,4.0559,3.9902,3.953,4.0452,3.9252,3.8711,4.0518,4.1291,4.1665,4.1698,4.2632,4.3263,4.3121,4.2282,4.1754,4.1793,4.1508,4.083,3.9639,3.9711,3.8986,3.7121,3.7262,3.708,3.6428,3.6405,3.6405,3.6405,3.6405,3.5739,3.441,3.441,3.3365,3.1454,3.1454,3.0721,2.9418,2.8885,2.829,2.7745,2.8208,2.852,2.8691,2.8243,2.8268,2.8443,2.736,2.5939,2.4499,2.4056,2.352,2.2811,2.1406,2.1009,2.1109,2.1109,2.1029,2.0929,2.0929,2.0929,2.0929,2.0929,2.1543,2.2337,2.3124,2.5187,2.676,2.5907,2.7141,2.8388,2.8388,2.8388,2.8941,3.0616,3.0889,3.083,3.0635,3.0762,3.0889,3.0889,3.0889,3.0889,3.0889,3.2985,3.394,3.2825,3.3962,3.4008,3.2275,3.186,3.1523,3.1269,3.126,3.1055,3.0605,3.0332,3.0107,2.996,2.9003,2.7694,2.6019,2.4731,2.3277,4.0732,4.16,4.2027,4.1442,4.1418,4.1306,4.0488,4.0241,4.0237,4.0407,3.9547,3.9174,4.051,3.9433,3.9186,4.1688,4.2067,4.2245,4.2786,4.3501,4.4003,4.4103,4.3662,4.3468,4.3711,4.3084,4.2149,4.0971,4.1328,4.0718,3.8702,3.8604,3.8211,3.7381,3.7358,3.7358,3.7358,3.7047,3.6378,3.5414,3.5102,3.4215,3.2844,3.2079,3.1224,3.0245,2.9305,2.8889,2.8928,2.9521,2.995,3.0205,3.0332,3.0316,2.9953,2.7836,2.586,2.4263,2.4263,2.3659,2.2709,2.1481,2.1109,2.1109,2.1109,2.1109,2.1109,2.1109,2.1109,2.1109,2.1109,2.1109,2.1418,2.2623,2.4139,2.5467,2.5885,2.656,2.7331,2.8239,2.8051,2.8268,2.9932,3.0577,3.0889,3.0889,3.0889,3.0889,3.0889,3.0889,3.0889,3.0889,3.2825,3.3264,3.125,3.3304,3.3823,3.1829,3.2109,3.2197,3.1885,3.1982,3.1846,3.1426,3.1084,3.0801,3.0557,2.8938,2.7227,2.5468,2.4178,2.2716,4.1955,4.2499,4.2781,4.1594,4.1683,4.1764,4.0565,4.01,3.9696,3.8927,3.833,3.8191,3.902,3.9896,4.0862,4.1932,4.3276,4.4281,4.4501,4.5167,4.5896,4.6591,4.5685,4.532,4.6028,4.4395,4.2811,4.1656,4.1587,4.1085,3.9899,3.9855,3.9834,3.979,3.979,3.979,3.979,3.8626,3.8017,3.7971,3.686,3.5643,3.4251,3.1593,3.0343,3.0245,2.9305,2.8889,2.8957,2.9834,3.0185,3.0244,3.0693,2.9893,2.8664,3.0167,2.8694,2.5924,2.5924,2.3854,2.1172,2.1109,2.1109,2.1109,2.1109,2.1109,2.1109,2.1109,2.1109,2.1109,2.1109,2.1109,2.1109,2.1172,2.2466,2.4085,2.565,2.4809,2.4663,2.7781,2.7134,2.6582,2.82,2.9835,3.0889,3.0889,3.0889,3.0889,3.0889,3.0889,3.0889,3.0889,3.0976,3.1172,3.1465,3.1563,3.1779,3.2159,3.2579,3.2773,3.2754,3.3144,3.3164,3.2744,3.2725,3.2305,3.1445,2.9851,2.8004,2.5929,2.4348,2.2716,4.2819,4.2526,4.2089,4.1461,4.0865,4.027,3.9645,3.9305,3.9038,3.8755,3.9414,4.0266,4.1068,4.1659,4.2315,4.3268,4.3519,4.3627,4.3773,4.4894,4.5974,4.6716,4.5799,4.5387,4.6127,4.4441,4.3135,4.2765,4.2725,4.2228,4.1085,4.1021,4.0682,3.9921,3.9899,3.9899,3.9899,3.8693,3.8107,3.8085,3.693,3.6156,3.5631,3.321,3.2089,3.2003,3.0436,2.9766,2.9814,3.041,3.0654,3.0674,3.083,3.0548,3.0118,3.0704,2.8822,2.6006,2.6006,2.3854,2.1109,2.1109,2.1109,2.1109,2.1109,2.1109,2.1109,2.1109,2.1109,2.1109,2.1109,2.1109,2.1109,2.1109,2.2372,2.376,2.4294,2.4809,2.5497,2.6591,2.637,2.65,2.811,2.8881,2.9619,3.0733,3.0889,3.0889,3.0889,3.0889,3.0889,3.0889,3.1767,3.2141,3.1534,3.2683,3.3185,3.261,3.2978,3.3213,3.3213,3.3318,3.335,3.3213,3.2939,3.2102,3.0634,2.8496,2.6471,2.4617,2.2803,2.1632,4.2877,4.2295,4.1664,4.1162,4.0394,3.9685,3.9352,3.9047,3.8826,3.8712,4.0088,4.1522,4.2173,4.3035,4.3896,4.4718,4.4319,4.397,4.413,4.5046,4.5974,4.6716,4.5799,4.5387,4.6127,4.4441,4.329,4.329,4.329,4.2981,4.2249,4.2208,4.1864,4.1141,4.112,4.093,4.0511,3.9324,3.8311,3.7484,3.6756,3.6208,3.583,3.3878,3.2819,3.2415,3.0863,3.0195,3.0234,3.0703,3.0889,3.0889,3.0889,3.0889,3.0889,3.0889,2.8822,2.6006,2.6006,2.3854,2.1109,2.1109,2.1109,2.1109,2.1109,2.1109,2.1109,2.1109,2.1109,2.1109,2.1109,2.1109,2.1109,2.1109,2.1908,2.3014,2.4201,2.4809,2.5314,2.5893,2.6006,2.634,2.7344,2.8516,2.9658,3.0733,3.0889,3.0889,3.0889,3.0889,3.0889,3.0889,3.1879,3.2316,3.1799,3.3035,3.3609,3.3051,3.3271,3.3386,3.3386,3.3386,3.3386,3.3386,3.3154,3.2098,3.0194,2.8043,2.5944,2.3957,2.2133,2.1209,4.2194,4.1854,4.1523,4.0704,4.0304,4.0012,3.9709,3.9346,3.904,3.8832,4.0377,4.1886,4.2341,4.4027,4.5529,4.6119,4.5637,4.5258,4.5429,4.5596,4.5974,4.6716,4.5832,4.5439,4.6127,4.4483,4.3349,4.3309,4.329,4.329,4.329,4.329,4.329,4.329,4.325,4.2684,4.1608,4.0404,3.8662,3.6405,3.6405,3.5914,3.4959,3.3618,3.252,3.1592,3.0641,3.0234,3.0264,3.0713,3.0889,3.0889,3.0889,3.0889,3.0889,3.0889,2.8822,2.6006,2.6006,2.3854,2.1109,2.1109,2.1109,2.1109,2.1109,2.1109,2.1109,2.1109,2.1109,2.1109,2.1109,2.1109,2.1109,2.1109,2.1109,2.1964,2.5192,2.4748,2.4147,2.5589,2.5946,2.6037,2.6098,2.8763,3.0889,3.0889,3.0889,3.0889,3.0889,3.0889,3.0889,3.0889,3.1269,3.1699,3.2159,3.2559,3.2969,3.3357,3.3386,3.3386,3.3386,3.3386,3.3386,3.3386,3.3323,3.2229,3.0094,2.84,2.6311,2.3882,2.2316,2.1435,4.1938,4.1339,4.0781,4.0554,4.0304,4.0081,3.9992,3.9529,3.9239,3.9779,4.1284,4.2839,4.3887,4.5199,4.6161,4.6331,4.5703,4.512,4.4868,4.534,4.5974,4.6716,4.6408,4.6154,4.6197,4.5119,4.4105,4.3369,4.329,4.329,4.329,4.329,4.329,4.329,4.2487,4.1891,4.1587,3.9574,3.7838,3.6405,3.6405,3.5914,3.4946,3.3918,3.292,3.2006,3.112,3.0713,3.0723,3.084,3.0889,3.0889,3.0889,3.0889,3.0889,3.0889,2.8822,2.6006,2.6006,2.3854,2.1109,2.1109,2.1109,2.1109,2.1109,2.1109,2.1109,2.1109,2.1109,2.1109,2.1109,2.1109,2.1109,2.1109,2.1109,2.1664,2.3745,2.484,2.5138,2.4355,2.5169,2.6379,2.7563,2.953,3.0889,3.0889,3.0889,3.0889,3.0889,3.0889,3.0889,3.0889,3.1269,3.1699,3.2159,3.2559,3.2969,3.3357,3.3386,3.3386,3.3386,3.3386,3.3386,3.3386,3.2132,3.0533,2.8718,2.6749,2.4752,2.2801,2.1978,2.1542,4.1351,4.0877,4.0496,4.0496,4.0385,4.0336,4.0568,4.0344,4.037,4.1428,4.281,4.4141,4.5282,4.6124,4.6696,4.6816,4.5926,4.5156,4.5009,4.5119,4.5602,4.6667,4.5968,4.5613,4.6147,4.4952,4.3907,4.3349,4.329,4.329,4.329,4.329,4.329,4.329,4.2193,4.1112,4.006,3.8266,3.7023,3.6394,3.5973,3.5302,3.4348,3.3411,3.2475,3.1613,3.111,3.0889,3.0889,3.0889,3.0889,3.0889,3.0889,3.0889,3.0801,3.0079,2.8179,2.5885,2.52,2.3256,2.1109,2.1109,2.1109,2.1109,2.1109,2.1109,2.1109,2.1109,2.1109,2.1109,2.1109,2.1109,2.1109,2.1109,2.1109,2.1576,2.3232,2.4301,2.4901,2.4686,2.4809,2.5688,2.7991,2.9187,3.005,3.0801,3.0889,3.0889,3.0889,3.0889,3.0889,3.0889,3.1435,3.1904,3.2179,3.2725,3.3174,3.3377,3.3386,3.3386,3.3386,3.2661,3.226,3.226,3.0554,2.8788,2.7005,2.583,2.4211,2.2218,2.193,2.1636,4.0704,4.0496,4.0496,4.0496,4.0473,4.06,4.1232,4.1293,4.1667,4.3147,4.4192,4.5157,4.615,4.6577,4.6817,4.6928,4.5965,4.5199,4.5213,4.4865,4.5108,4.6496,4.5286,4.4809,4.5952,4.4625,4.3576,4.3309,4.329,4.329,4.329,4.329,4.323,4.3076,4.1968,4.0311,3.8107,3.6977,3.6405,3.6394,3.5648,3.4701,3.3572,3.2828,3.1927,3.0889,3.0889,3.0889,3.0889,3.0889,3.0889,3.0889,3.0889,3.0889,3.0704,2.9009,2.7383,2.5771,2.4147,2.2497,2.1109,2.1109,2.1109,2.1109,2.1109,2.1109,2.1109,2.1109,2.1109,2.1109,2.1109,2.1109,2.1109,2.1109,2.1109,2.1506,2.2959,2.327,2.3869,2.5924,2.5024,2.487,2.7871,2.8575,2.9157,3.0392,3.0762,3.0889,3.0889,3.0889,3.0889,3.0889,3.169,3.2198,3.2198,3.2939,3.3386,3.3386,3.3386,3.3386,3.3386,3.173,3.0803,3.0803,2.8845,2.7072,2.551,2.5282,2.4106,2.2131,2.2057,2.171,4.0535,4.0496,4.0496,4.0496,4.0339,4.0438,4.1475,4.1321,4.1486,4.3349,4.3678,4.3975,4.52,4.5468,4.5322,4.4754,4.4971,4.4868,4.389,4.4247,4.4922,4.5788,4.6146,4.6046,4.5365,4.5536,4.5032,4.3413,4.329,4.329,4.329,4.329,4.288,4.1912,4.0788,3.9514,3.8107,3.6977,3.6405,3.6394,3.6694,3.5684,3.3599,3.3901,3.2877,3.0889,3.0889,3.0889,3.0889,3.0889,3.0889,3.0889,3.0889,3.0889,3.0704,2.9009,2.7383,2.5771,2.4147,2.2497,2.1109,2.1109,2.1109,2.1109,2.1109,2.1109,2.1109,2.1109,2.1109,2.1109,2.1109,2.1109,2.1109,2.1109,2.1109,2.1166,2.1481,2.1538,2.282,2.7134,2.6681,2.6167,2.808,2.956,3.0079,2.9009,3.002,3.0889,3.0889,3.0889,3.0889,3.0889,3.169,3.2198,3.2198,3.2939,3.3386,3.3386,3.3386,3.3386,3.3386,3.173,3.0803,3.0803,2.7619,2.5812,2.551,2.406,2.314,2.2733,2.2244,2.1931,4.025,4.0281,4.033,4.0469,4.0397,4.0634,4.188,4.194,4.2318,4.4419,4.4379,4.4374,4.5637,4.5152,4.4578,4.4574,4.4254,4.3974,4.3889,4.3943,4.4401,4.5568,4.5926,4.6012,4.5846,4.5614,4.5082,4.4143,4.3591,4.329,4.329,4.329,4.2785,4.1629,4.049,3.9316,3.8107,3.6977,3.6532,3.6821,3.6579,3.5622,3.4004,3.3797,3.2681,3.0889,3.0889,3.0889,3.0889,3.0889,3.0889,3.0889,3.0889,3.0889,3.0616,2.8089,2.6651,2.565,2.3162,2.1758,2.1109,2.1109,2.1109,2.1109,2.1109,2.1109,2.1109,2.1109,2.1109,2.1109,2.1109,2.1109,2.1109,2.1109,2.1109,2.1109,2.1109,2.1109,2.2059,2.5269,2.5269,2.5261,2.6862,2.8516,2.9344,2.8516,2.9835,3.0889,3.0889,3.0889,3.0889,3.0889,3.169,3.2198,3.2198,3.212,3.2059,3.2059,3.1185,3.0692,3.0692,2.9,2.804,2.804,2.5476,2.4155,2.4162,2.3297,2.2813,2.2619,2.2184,2.1937,4.0037,4.0139,4.0218,4.0372,4.0479,4.0886,4.2127,4.2482,4.3131,4.5141,4.4842,4.4568,4.5749,4.4688,4.3835,4.441,4.36,4.317,4.3947,4.3687,4.3913,4.5297,4.5599,4.5852,4.6239,4.5744,4.5227,4.4831,4.3869,4.329,4.329,4.329,4.29,4.1988,4.0852,3.9689,3.8491,3.7451,3.702,3.7186,3.6697,3.5926,3.4871,3.3991,3.2758,3.1354,3.1025,3.0889,3.0889,3.0889,3.0889,3.0889,3.0889,3.0889,3.0489,2.7202,2.6006,2.5519,2.224,2.1109,2.1109,2.1109,2.1109,2.1109,2.1109,2.1109,2.1109,2.1109,2.1109,2.1109,2.1109,2.1109,2.1109,2.1109,2.1109,2.1109,2.1109,2.1109,2.1601,2.3263,2.3605,2.4116,2.5711,2.7043,2.7991,2.8358,2.953,3.0489,3.0859,3.0889,3.0889,3.0889,3.169,3.2198,3.2198,3.1693,3.1208,3.0803,2.9507,2.8599,2.8205,2.6473,2.551,2.551,2.3795,2.2893,2.2893,2.2893,2.2746,2.2505,2.2151,2.1897,4.0158,4.0286,4.0401,4.0186,4.0466,4.1005,4.1924,4.2463,4.3133,4.4439,4.3781,4.3226,4.4061,4.3267,4.256,4.287,4.2894,4.2988,4.3261,4.3359,4.371,4.4601,4.5865,4.6366,4.5577,4.6635,4.6642,4.4927,4.3869,4.329,4.329,4.329,4.325,4.3135,4.2029,4.088,3.9746,3.9024,3.8181,3.7223,3.8166,3.7867,3.6469,3.5527,3.4292,3.2833,3.1469,3.0889,3.0889,3.0889,3.0889,3.0889,3.0889,3.0889,3.0489,2.7202,2.6006,2.5519,2.224,2.1109,2.1109,2.1109,2.1109,2.1109,2.1109,2.1109,2.1109,2.1109,2.1109,2.1109,2.1109,2.1109,2.1109,2.1109,2.1109,2.1109,2.1109,2.1109,2.1601,2.3263,2.3605,2.4116,2.5711,2.6128,2.6712,2.817,2.8536,2.9187,3.0704,3.0889,3.0889,3.0889,3.169,3.2198,3.2198,3.2774,3.2492,3.09,3.0642,2.9856,2.8271,2.6473,2.551,2.551,2.3795,2.2893,2.2893,2.2893,2.288,2.284,2.2285,2.2004,4.0404,4.0473,4.0562,4.135,4.1533,4.1701,4.2367,4.2296,4.2299,4.3062,4.2452,4.1873,4.2197,4.2274,4.2224,4.1947,4.2101,4.2454,4.3117,4.2928,4.32,4.4448,4.5904,4.665,4.6287,4.6553,4.5961,4.4047,4.3532,4.329,4.329,4.329,4.329,4.329,4.1842,4.0834,4.0388,3.9029,3.8316,3.8228,3.868,3.7817,3.5837,3.5472,3.3996,3.1738,3.116,3.0889,3.0889,3.0889,3.0889,3.0889,3.0889,3.0889,3.0489,2.7202,2.6006,2.5519,2.224,2.1109,2.1109,2.1109,2.1109,2.1109,2.1109,2.1109,2.1109,2.1109,2.1109,2.1109,2.1109,2.1109,2.1109,2.1109,2.1109,2.1109,2.1109,2.1109,2.1292,2.1971,2.2897,2.3783,2.4448,2.5344,2.6219,2.6862,2.7773,2.8635,2.9314,3.0274,3.0889,3.0889,3.1426,3.1885,3.2179,3.1767,3.0824,2.9327,2.8213,2.6831,2.5087,2.4324,2.3924,2.3924,2.3263,2.2893,2.2893,2.2893,2.2893,2.2887,2.2438,2.2151,4.0675,4.0835,4.1019,4.1985,4.2241,4.2255,4.2281,4.2038,4.1821,4.1922,4.1305,4.0828,4.1067,4.1409,4.1612,4.1431,4.1487,4.1853,4.2746,4.2548,4.2875,4.4415,4.5652,4.6478,4.6697,4.6152,4.5214,4.3849,4.3468,4.329,4.329,4.329,4.329,4.329,4.1938,4.1043,4.0711,3.9422,3.8815,3.8906,3.8625,3.7591,3.5918,3.5041,3.3529,3.1517,3.1083,3.0889,3.0889,3.0889,3.0889,3.0889,3.0889,3.0889,3.0489,2.7202,2.6006,2.5519,2.224,2.1109,2.1109,2.1109,2.1109,2.1109,2.1109,2.1109,2.1109,2.1109,2.1109,2.1109,2.1109,2.1109,2.1109,2.1109,2.1109,2.1109,2.1109,2.1109,2.1109,2.1109,2.2066,2.3021,2.3512,2.454,2.5436,2.5924,2.6953,2.7871,2.8328,2.9433,3.0362,3.0859,3.072,3.0796,3.135,3.113,2.9942,2.7545,2.6706,2.5282,2.2996,2.2893,2.2893,2.2893,2.2893,2.2893,2.2893,2.2893,2.2893,2.2887,2.2559,2.1945,4.0886,4.1374,4.1913,4.1666,4.2217,4.2507,4.1358,4.1735,4.2066,4.1287,4.0469,4.0157,4.0956,4.0624,4.0491,4.1267,4.1117,4.1197,4.1993,4.2211,4.2875,4.4415,4.508,4.5712,4.6436,4.5488,4.4812,4.4793,4.3869,4.329,4.329,4.329,4.329,4.329,4.2703,4.1844,4.0711,4.0625,4.0015,3.8906,3.795,3.7492,3.7385,3.4448,3.3106,3.2992,3.1517,3.0889,3.0889,3.0889,3.0889,3.0889,3.0889,3.0889,3.0489,2.7202,2.6006,2.5519,2.224,2.1109,2.1109,2.1109,2.1109,2.1109,2.1109,2.1109,2.1109,2.1109,2.1109,2.1109,2.1109,2.1109,2.1109,2.1109,2.1109,2.1109,2.1109,2.1109,2.1109,2.1109,2.1109,2.1664,2.3294,2.3605,2.4178,2.5771,2.6006,2.6582,2.82,2.8417,2.9068,3.0704,2.9412,2.8742,2.9465,3.1513,3.0692,2.5822,2.7172,2.6581,2.3065,2.2893,2.2893,2.2893,2.2893,2.2893,2.2893,2.2893,2.2893,2.2887,2.2559,2.1188,4.1463,4.1705,4.1969,4.2988,4.2846,4.237,4.1999,4.1277,4.0587,4.0322,3.9643,3.9043,3.8933,3.9625,4.0042,3.957,4.0279,4.1205,4.2104,4.2279,4.2875,4.4415,4.5065,4.5375,4.5332,4.501,4.451,4.383,4.3472,4.329,4.329,4.329,4.329,4.329,4.231,4.161,4.125,4.0406,3.9791,3.9433,3.8105,3.6972,3.5918,3.3985,3.2558,3.1575,3.1112,3.0889,3.0889,3.0889,3.0889,3.0889,3.0889,3.0206,2.8941,2.6802,2.5291,2.4054,2.1846,2.1109,2.1109,2.1109,2.1109,2.1109,2.1109,2.1109,2.1109,2.1109,2.1109,2.1109,2.1109,2.1109,2.1109,2.1109,2.1109,2.1109,2.1109,2.1109,2.1109,2.1109,2.1109,2.1632,2.3294,2.3605,2.3783,2.4263,2.5291,2.6189,2.6681,2.7713,2.9039,3.0704,2.9403,2.8703,2.9434,2.9123,2.7929,2.564,2.6046,2.5323,2.2996,2.2893,2.2893,2.2893,2.2893,2.2893,2.2893,2.2893,2.2893,2.2853,2.1144,1.9951,4.0834,4.1345,4.1872,4.3055,4.2603,4.1856,4.1856,4.0836,3.975,3.9242,3.8745,3.8325,3.8088,3.8904,3.957,3.9486,4.01,4.1003,4.2132,4.23,4.2952,4.4677,4.5135,4.5146,4.4819,4.4469,4.397,4.3349,4.329,4.329,4.329,4.329,4.329,4.329,4.2135,4.1494,4.1494,4.0298,3.9697,3.9685,3.8216,3.673,3.5233,3.3772,3.2293,3.0889,3.0889,3.0889,0.0,3.0889,3.0889,3.0889,3.0889,2.9873,2.8209,2.6591,2.4985,2.3356,2.1695,2.1109,2.1109,2.1109,2.1189,2.1296,2.1403,2.1283,2.1109,2.1109,2.1109,2.1109,2.1109,2.1109,2.1109,2.1109,2.1109,2.1109,2.1109,2.1109,2.1109,2.1109,2.1109,2.1418,2.2466,2.317,2.3605,2.3605,2.4448,2.5314,2.5915,2.6349,2.7211,2.8861,2.7673,2.6954,2.7521,2.7272,2.6366,2.4612,2.5154,2.4723,2.2962,2.2893,2.2893,2.2893,2.2893,2.2893,2.2893,2.2893,2.2544,2.1797,2.0169,1.8669,0.0,4.04,4.1627,4.2092,4.1617,4.1012,4.1012,4.0353,0.0,3.8214,3.7949,3.8008,3.8278,3.8517,3.9155,4.0607,4.0439,4.0625,4.2164,4.2435,4.3169,4.507,4.5191,4.5005,4.4716,4.3907,4.3369,4.3309,4.329,4.329,4.329,4.329,4.329,4.329,4.2135,4.1494,4.1494,4.0398,3.9788,3.9685,3.8216,3.673,3.5233,3.3772,3.2293,3.0889,3.0889,3.0889,3.0889,3.0889,3.0889,3.0889,3.0772,2.9717,2.8021,2.6409,2.4809,2.3208,2.166,2.1142,2.1142,2.1162,2.1356,2.1662,2.1937,2.1603,2.1169,2.1169,2.1169,2.1169,2.1149,2.1142,2.1136,2.1116,2.1109,2.1109,2.1109,2.1109,2.1109,2.1109,2.1109,2.1109,2.1109,2.2497,2.3574,2.345,2.3628,2.4271,2.565,2.4625,2.4324,2.5824,2.4805,2.4123,2.4379,2.584,2.5652,2.3058,2.4426,2.4588,2.2962,2.2893,2.2893,2.2893,2.2893,2.2893,2.2893,2.2756,2.1809,2.008,1.9348,1.7221,3.7483,0.0,4.0728,4.1256,4.0781,4.0175,0.0,3.9229,3.8437,3.8697,3.8463,3.8259,3.8492,3.9037,3.9617,4.0199,4.0184,4.0811,4.2848,4.3656,4.4125,4.43,4.4919,4.4898,4.3767,4.4124,4.4124,4.3369,4.329,4.329,4.329,4.329,4.329,4.329,4.2135,4.1494,4.1494,4.1265,4.0642,3.9685,3.8216,3.673,3.5233,3.3772,3.2293,3.0889,3.0889,3.0889,3.0889,3.0889,3.0889,3.0772,2.9501,2.7991,2.6379,2.4748,2.31,2.1666,2.1523,2.1482,2.1515,2.171,2.1824,2.193,2.1964,2.1891,2.1784,2.1784,2.1784,2.173,2.1542,2.1482,2.1422,2.1162,2.1109,2.1109,2.1109,2.1109,2.1109,2.1109,2.1109,2.1109,2.1109,2.2497,2.317,2.1884,2.383,2.5138,2.4263,2.4901,2.5589,2.5946,2.4805,2.4123,2.4379,2.3835,2.3324,2.2942,2.3297,2.3324,2.2928,2.2893,2.2893,2.2893,2.2893,2.2893,2.2893,2.1459,2.0513,2.001,1.6793,1.4794,3.6264,3.748,3.8948,4.0233,3.9662,3.9009,3.9851,3.9196,3.8474,3.8767,3.8617,3.8617,3.9169,3.9338,3.9761,4.0913,4.0828,4.112,4.2646,4.3805,4.4547,4.4675,4.5032,4.5108,4.4676,4.4305,4.3888,4.3329,4.329,4.329,4.329,4.329,4.3056,4.2548,4.2431,4.2082,4.1516,4.0986,4.0389,3.9697,3.8882,3.737,3.5261,3.4459,3.2928,3.0889,3.0889,3.0889,3.0889,3.0889,3.0889,3.0801,2.9903,2.8166,2.607,2.5223,2.3439,2.1537,2.1729,2.1783,2.183,2.2091,2.2184,2.2211,2.2378,2.2418,2.2365,2.2097,2.1984,2.1984,2.1823,2.1783,2.1743,2.155,2.151,2.1476,2.1375,2.1341,2.1269,2.1136,2.1109,2.1109,2.1109,2.1853,2.2404,2.2285,2.3093,2.3706,2.3605,2.3683,2.3821,2.3941,2.3454,2.3206,2.3445,2.2975,2.2726,2.2887,2.2893,2.2893,2.2893,2.2893,2.2893,2.2893,2.2893,2.2893,2.2893,2.1878,2.0935,2.0045,1.7752,1.5695,3.5578,3.6167,3.7146,3.9103,3.8659,3.8104,3.9581,3.9407,3.891,3.8792,3.8702,3.8952,3.9909,3.9597,3.9863,4.1961,4.1965,4.1856,4.2332,4.3666,4.4826,4.5411,4.5373,4.5491,4.5932,4.4498,4.3468,4.3309,4.329,4.329,4.329,4.3394,4.2868,4.1643,4.2682,4.262,4.1242,4.0398,3.989,3.9697,3.9697,3.8149,3.5288,3.5288,3.3698,3.0889,3.0889,3.0928,3.0986,3.0986,3.1025,3.1055,3.081,2.9146,2.6844,2.6315,2.4539,2.2372,2.2137,2.2078,2.2158,2.2405,2.2485,2.2532,2.282,2.2893,2.2793,2.2291,2.2151,2.2144,2.2064,2.2051,2.2038,2.1997,2.1984,2.195,2.1703,2.1649,2.1575,2.1289,2.1243,2.1243,2.1243,2.1243,2.1706,2.3136,2.2356,2.2016,2.3199,2.2325,2.1617,2.1655,2.191,2.2151,2.2398,2.2726,2.2893,2.2893,2.2893,2.2893,2.2893,2.2893,2.2893,2.2893,2.2893,2.2893,2.2893,2.2613,2.1493,1.9663,1.9158,1.7027,3.5869,3.6552,3.6874,3.7949,3.8485,3.8734,3.8613,3.8626,3.8821,3.942,3.9213,3.9178,3.996,3.9999,4.0438,4.2046,4.3298,4.3882,4.3305,4.4521,4.5483,4.5412,4.5929,4.5952,4.5109,4.474,4.422,4.3369,4.329,4.329,4.329,4.3848,4.3347,4.1643,4.2275,4.1812,4.0089,4.0877,4.0769,3.9697,3.9697,3.8149,3.5288,3.5288,3.3698,3.0889,3.0889,3.1094,3.1426,3.1426,3.1641,3.1872,3.0437,2.9609,2.884,2.5937,2.4582,2.4032,2.2784,2.2519,2.2766,2.2813,2.2827,2.284,2.288,2.2893,2.288,2.2786,2.276,2.2699,2.2418,2.2352,2.2291,2.2044,2.1984,2.1977,2.1964,2.1957,2.1904,2.1864,2.185,2.185,2.185,2.185,2.1949,2.2203,2.3184,2.3501,2.2392,2.3217,2.3393,2.2075,2.2178,2.2372,2.2412,2.2726,2.2893,2.2893,2.2893,2.2893,2.2893,2.2893,2.2893,2.2893,2.2893,2.2893,2.2893,2.1286,1.953,1.7599,1.587,1.3844,3.5021,3.6622,3.7855,3.7724,3.8135,3.8652,3.8975,3.9125,3.9341,3.9817,3.9744,3.9812,4.0557,4.0679,4.1183,4.2645,4.3121,4.3437,4.3887,4.4886,4.5514,4.5326,4.5924,4.5925,4.4896,4.4316,4.3791,4.3329,4.329,4.329,4.329,4.3594,4.3096,4.1643,4.1823,4.1255,3.9817,4.0597,4.0568,3.9697,3.9998,3.8996,3.6904,3.6312,3.4894,3.2804,3.1969,3.1719,3.1865,3.1865,3.2013,3.2128,3.1358,3.06,2.9564,2.6289,2.4481,2.3585,2.291,2.278,2.2893,2.2893,2.2893,2.2893,2.2893,2.2893,2.2893,2.2893,2.2893,2.286,2.2726,2.2659,2.2625,2.2525,2.2492,2.2452,2.2251,2.2218,2.2171,2.2017,2.1984,2.1984,2.1984,2.1984,2.1984,2.1984,2.2628,2.285,2.2116,2.2654,2.288,2.2271,2.2338,2.2485,2.2645,2.282,2.2893,2.2893,2.2893,2.2893,2.2893,2.2893,2.2893,2.2893,2.2893,2.2893,2.2893,2.1004,1.9634,1.8723,1.6723,1.4705,3.4625,3.6825,3.8772,3.8164,3.8297,3.872,3.9393,3.968,3.9843,4.0065,4.0096,4.0252,4.08,4.1194,4.1799,4.2942,4.307,4.3407,4.4548,4.5306,4.5684,4.5512,4.5722,4.5579,4.4868,4.3888,4.329,4.329,4.329,4.329,4.329,4.3439,4.3022,4.188,4.1775,4.1241,4.0237,4.0428,4.03,3.9885,4.0411,3.9907,3.844,3.7257,3.591,3.4402,3.2885,3.2257,3.2345,3.2345,3.2404,3.2492,3.2492,3.1368,2.943,2.7035,2.4757,2.2893,2.2893,2.2893,2.2893,2.2893,2.2893,2.2893,2.2893,2.2893,2.2893,2.2893,2.2893,2.2893,2.2893,2.2893,2.2893,2.2893,2.2893,2.2833,2.2572,2.2525,2.2458,2.2231,2.2224,2.2224,2.2224,2.2224,2.2224,2.2224,2.2224,2.2224,2.2224,2.2224,2.2278,2.2498,2.2525,2.2612,2.288,2.2893,2.2893,2.2893,2.2893,2.2893,2.2893,2.2893,2.2893,2.2893,2.2475,2.2229,2.2229,2.0334,1.9176,1.8718,1.7248,1.5382,3.5846,3.7514,3.8775,3.938,3.957,3.9491,3.9132,3.957,4.0078,4.0096,4.0096,4.0082,4.0001,4.1158,4.216,4.2259,4.407,4.5481,4.5583,4.6082,4.642,4.6405,4.5525,4.4871,4.4812,4.3888,4.329,4.329,4.329,4.329,4.329,4.3893,4.3708,4.255,4.2455,4.2117,4.1472,4.0836,4.0474,4.0437,4.0989,4.0474,3.9003,3.7406,3.591,3.4402,3.2885,3.2423,3.2754,3.2754,3.2978,3.3299,3.3299,3.1281,2.8336,2.8089,2.5853,2.2893,2.2893,2.2893,2.2893,2.2893,2.2893,2.2893,2.2893,2.2893,2.2893,2.2893,2.2893,2.2893,2.2893,2.2893,2.2893,2.2893,2.2893,2.2887,2.2873,2.286,2.286,2.284,2.2833,2.2833,2.2833,2.2833,2.2833,2.2833,2.2833,2.2833,2.2833,2.2833,2.284,2.286,2.286,2.2873,2.2893,2.2893,2.2893,2.2893,2.2893,2.2893,2.2893,2.2893,2.2893,2.2893,2.1176,2.03,2.03,1.8339,1.6509,1.4818,1.4676,1.3431,3.5607,3.7361,3.8708,3.9154,3.9617,3.9898,3.971,3.991,4.0075,3.9994,4.0406,4.1058,4.1925,4.254,4.3257,4.421,4.5127,4.5818,4.6161,4.6365,4.624,4.5527,4.5052,4.4548,4.3927,4.3512,4.329,4.329,4.329,4.329,4.329,4.3938,4.4098,4.3664,4.3229,4.2886,4.2662,4.1918,4.1557,4.1557,4.1771,4.1586,4.0973,3.9713,3.8277,3.6708,3.5121,3.395,3.3184,3.3184,3.325,3.3386,3.3386,3.1281,2.8205,2.8205,2.5953,2.2893,2.2893,2.2893,2.2893,2.2893,2.2893,2.2893,2.2893,2.2893,2.2893,2.2893,2.2893,2.2893,2.2893,2.2893,2.2893,2.2893,2.2893,2.2893,2.2893,2.2893,2.2893,2.2893,2.2893,2.2893,2.2893,2.2893,2.2893,2.2893,2.2893,2.2893,2.2893,2.2893,2.2893,2.2893,2.2893,2.2893,2.2893,2.2893,2.2893,2.2893,2.2893,2.2893,2.2893,2.2893,2.2338,2.1176,2.0444,1.9495,1.8304,1.6404,1.5101,1.4357,1.313,1.2053,3.6002,3.7652,3.882,3.9234,3.9531,3.9731,3.9731,3.9886,4.0083,4.0269,4.0909,4.1755,4.2819,4.3117,4.3546,4.4658,4.5221,4.5651,4.6012,4.6006,4.5677,4.4899,4.451,4.4047,4.3369,4.329,4.329,4.329,4.3504,4.3624,4.3624,4.4252,4.4521,4.4341,4.3661,4.3283,4.3267,4.2563,4.2273,4.2449,4.2449,4.2449,4.2394,4.0638,3.9229,3.8074,3.5959,3.4404,3.3386,3.3386,3.3386,3.3386,3.3386,3.1611,2.8952,2.8402,2.6314,2.3624,2.3092,2.2893,2.2893,2.2893,2.2893,2.2893,2.2893,2.2893,2.2893,2.2893,2.2893,2.2893,2.2893,2.2893,2.2893,2.2893,2.2893,2.2893,2.2893,2.2893,2.2893,2.2893,2.2893,2.2893,2.2893,2.2893,2.2893,2.2893,2.2893,2.2893,2.2893,2.2893,2.2893,2.2893,2.2893,2.2893,2.2893,2.2893,2.2893,2.2893,2.2332,2.2016,2.2016,2.2016,2.1107,1.9217,1.8613,1.7664,1.6298,1.4436,1.3519,1.348,1.2055,1.1342,3.7328,3.8597,3.9169,3.9897,3.9503,3.8908,3.8924,3.9413,4.015,4.1021,4.1568,4.1964,4.2173,4.2472,4.2767,4.2999,4.4187,4.5096,4.5096,4.4916,4.4793,4.4793,4.3907,4.329,4.329,4.3324,4.3305,4.3305,4.3923,4.4311,4.4311,4.4945,4.5027,4.4416,4.371,4.3294,4.319,4.2547,4.2462,4.3002,4.3002,4.3002,4.289,3.9668,3.8223,3.8015,3.4808,3.3418,3.3386,3.3386,3.3386,3.3386,3.3386,3.2323,3.0578,2.8853,2.7039,2.5248,2.3495,2.2893,2.2893,2.2893,2.2893,2.2893,2.2893,2.2893,2.2893,2.2893,2.2893,2.2893,2.2893,2.2893,2.2893,2.2893,2.2893,2.2893,2.2893,2.2893,2.2893,2.2893,2.2893,2.2893,2.2893,2.2893,2.2893,2.2893,2.2893,2.2893,2.2893,2.2893,2.2893,2.2893,2.2893,2.2893,2.2893,2.2893,2.2893,2.2893,2.1142,2.0126,2.0091,2.0091,1.9147,1.7218,1.5349,1.4397,1.4361,1.2499,1.1584,1.1577,1.146,1.1342,3.7337,3.8217,3.8531,3.9779,3.9927,3.9878,4.0398,3.9794,3.9489,4.073,4.1511,4.2142,4.2655,4.2843,4.3244,4.4311,4.4842,4.5047,4.4906,4.484,4.4529,4.383,4.3472,4.329,4.329,4.3728,4.3997,4.3997,4.4631,4.5005,4.5005,4.5627,4.5515,4.443,4.4502,4.4124,4.3216,4.2903,4.2838,4.3002,4.3002,4.3002,4.2918,4.0834,3.9258,3.8074,3.599,3.4435,3.3386,3.3386,3.3386,3.3386,3.3386,3.2323,3.0578,2.8853,2.7039,2.5248,2.3495,2.2893,2.2893,2.2893,2.2893,2.2893,2.2893,2.2893,2.2893,2.2893,2.2893,2.2893,2.2893,2.2893,2.2893,2.2893,2.2893,2.2893,2.2893,2.2893,2.2893,2.2893,2.2893,2.2893,2.2893,2.2893,2.2893,2.2893,2.2893,2.2893,2.2893,2.2893,2.2893,2.2893,2.2893,2.2893,2.2893,2.2893,2.2893,2.2893,2.2372,2.1493,2.0161,1.8793,1.7178,1.5278,1.4676,1.3765,1.2431,1.1864,1.1562,1.1453,1.1336,1.1151,3.8307,3.9026,3.9056,4.0235,4.0082,3.9717,4.0083,4.0168,4.0377,4.1165,4.1833,4.243,4.2923,4.308,4.3432,4.4388,4.4449,4.4338,4.4217,4.4201,4.397,4.3369,4.329,4.3394,4.3683,4.3818,4.4117,4.4661,4.5065,4.5409,4.5678,4.6076,4.5608,4.4098,4.449,4.3995,4.2461,4.2808,4.3002,4.3002,4.3002,4.2681,4.1984,4.039,3.8776,3.7164,3.554,3.4289,3.3386,3.3386,3.3386,3.3386,3.3386,3.2756,3.1538,2.9083,2.7511,2.6213,2.3761,2.2893,2.2893,2.2893,2.2893,2.2893,2.2893,2.2893,2.2893,2.2893,2.2893,2.2893,2.2893,2.2893,2.2893,2.2893,2.2893,2.2893,2.2893,2.2297,2.1775,2.1775,2.1775,2.1775,2.1775,2.2407,2.2893,2.2893,2.2893,2.2893,2.2893,2.2893,2.2893,2.2893,2.2893,2.2893,2.2893,2.2893,2.2893,2.2893,2.2893,2.1706,1.9077,1.7814,1.5985,1.3341,1.3274,1.2745,1.1584,1.1584,1.1541,1.1389,1.1271,1.1087,3.9649,4.0404,4.0185,4.1001,4.0141,3.9047,3.8858,4.0494,4.2019,4.1885,4.226,4.268,4.2891,4.3085,4.332,4.3623,4.3474,4.3319,4.3379,4.3334,4.3349,4.3474,4.3444,4.3653,4.4326,4.3908,4.4087,4.5304,4.5454,4.5753,4.636,4.6269,4.5397,4.3561,4.3897,4.3209,4.1329,4.2421,4.3002,4.3002,4.3002,4.2081,4.0332,3.8876,3.7254,3.5509,3.4049,3.3386,3.3386,3.3386,3.3386,3.3386,3.3386,3.3386,3.2997,2.9483,2.8205,2.7677,2.4128,2.2893,2.2893,2.2893,2.2893,2.2893,2.2893,2.2893,2.2893,2.2893,2.2893,2.2893,2.2893,2.2893,2.2893,2.2893,2.2893,2.2893,2.2893,2.1562,2.03,2.0126,2.0091,2.0091,2.0091,2.1527,2.2688,2.2859,2.2893,2.2893,2.2893,2.2893,2.2893,2.2893,2.2893,2.2893,2.2893,2.2893,2.2893,2.2893,2.2893,2.1349,1.7844,1.7077,1.5075,1.1655,1.1584,1.1584,1.1584,1.1584,1.1538,1.1417,1.1257,1.107,3.8985,3.9605,3.9546,4.0865,4.0868,4.0547,4.0494,4.0767,4.098,4.0789,4.137,4.2042,4.2448,4.256,4.2764,4.33,4.3338,4.3469,4.4012,4.3638,4.3698,4.4751,4.4421,4.4341,4.502,4.5418,4.5777,4.6061,4.6555,4.6935,4.7085,4.6153,4.4949,4.3537,4.3446,4.2723,4.1302,4.2421,4.3002,4.3002,4.3002,4.1488,3.8687,3.8372,3.663,3.3902,3.3534,3.3386,3.3386,3.3386,3.3386,3.3386,3.3386,3.3386,3.2997,2.9483,2.8205,2.7677,2.4128,2.2893,2.2893,2.2893,2.2893,2.2893,2.2893,2.2893,2.2893,2.2893,2.2893,2.2893,2.2893,2.2893,2.2893,2.2893,2.2893,2.2893,2.2893,2.2578,2.1844,2.0375,2.0091,2.0091,2.0091,2.0438,2.1211,2.2688,2.2893,2.2893,2.2893,2.2893,2.2893,2.2893,2.2893,2.2893,2.2893,2.2893,2.2893,2.2893,2.2893,2.2544,2.17,1.5945,1.2431,1.1619,1.1584,1.1584,1.1584,1.1584,1.1596,1.1548,1.121,1.0948,3.8385,3.9197,3.9184,3.9912,4.0544,4.0793,4.0037,4.0289,4.0634,4.0449,4.1027,4.1726,4.2312,4.2646,4.294,4.3265,4.329,4.3529,4.4207,4.3997,4.4162,4.517,4.499,4.505,4.5702,4.5813,4.6076,4.6719,4.6815,4.6958,4.7294,4.6365,4.5109,4.3561,4.362,4.2914,4.1315,4.2421,4.3002,4.3002,4.3002,4.1305,3.8164,3.6599,3.4984,3.3386,3.3386,3.3386,3.3386,3.3386,3.3386,3.3386,3.3386,3.3386,3.2997,2.9483,2.8205,2.7677,2.4128,2.2893,2.2893,2.2893,2.2893,2.2893,2.2893,2.2893,2.2893,2.2893,2.2893,2.2893,2.2893,2.2893,2.2893,2.2893,2.2893,2.2647,2.1741,2.0825,1.9634,1.7734,1.7383,1.7383,1.7383,1.8618,2.0375,2.2585,2.2893,2.2893,2.2893,2.2893,2.2893,2.2893,2.2893,2.2893,2.2893,2.2893,2.2893,2.2893,1.9484,1.7488,1.7488,1.3698,1.1584,1.1584,1.1584,1.1584,1.1584,1.1584,1.1601,1.1602,1.124,1.0955,3.7507,3.8785,3.9185,3.9126,3.9871,4.0295,3.9078,3.9571,4.032,4.0382,4.092,4.1598,4.2276,4.2895,4.329,4.329,4.329,4.3579,4.4356,4.4371,4.4625,4.5544,4.5544,4.5738,4.6405,4.5978,4.6097,4.7219,4.6779,4.6704,4.7279,4.6368,4.5094,4.3561,4.3636,4.2933,4.1329,4.2421,4.3002,4.3002,4.2444,4.0621,3.7675,3.4746,3.3386,3.3386,3.3386,3.3386,3.3386,3.3386,3.3386,3.3386,3.3386,3.3386,3.2997,2.9483,2.8205,2.7677,2.4128,2.2893,2.2893,2.2893,2.2893,2.2893,2.2893,2.2893,2.2893,2.2893,2.2893,2.2893,2.2893,2.2893,2.2893,2.2893,2.2647,2.1981,2.0438,1.8828,1.7037,1.4818,1.4503,1.4432,1.3974,1.6615,1.971,2.2475,2.2893,2.2893,2.2893,2.2893,2.2893,2.2893,2.1734,2.1487,2.2791,2.2893,2.2332,2.1032,1.507,1.1584,1.1584,1.1584,1.1584,1.1584,1.1584,1.1584,1.1584,1.1584,1.1584,1.1573,1.1253,1.0955,3.5572,3.7949,3.9948,3.9935,3.9509,3.9179,3.956,3.9149,3.903,4.0179,4.092,4.1598,4.2276,4.2895,4.329,4.329,4.329,4.3743,4.499,4.4676,4.4969,4.6815,4.651,4.642,4.7115,4.71,4.7115,4.7294,4.7219,4.7219,4.7309,4.5135,4.3774,4.3504,4.2329,4.1562,4.1315,4.2421,4.3002,4.2974,4.0175,3.7884,3.6051,3.4227,3.3386,3.3386,3.3386,3.3386,3.3386,3.3386,3.3386,3.3386,3.3386,3.3386,3.2997,2.9483,2.8205,2.7677,2.4128,2.2893,2.2893,2.2893,2.2893,2.2893,2.2893,2.2893,2.2893,2.2893,2.2893,2.2893,2.2893,2.2893,2.2893,2.2893,2.1665,2.0403,2.0161,1.9883,1.8648,1.5101,1.4858,1.4583,1.2359,1.5004,1.8688,2.2366,2.2893,2.2893,2.2893,2.2893,2.2893,2.2893,1.7032,1.5774,2.2332,2.2893,2.0086,1.3523,1.2148,1.1584,1.1584,1.1584,1.1584,1.1584,1.1584,1.1584,1.1584,1.1584,1.1584,1.1606,1.1043,1.0725,3.6025,3.8468,3.9998,3.9547,3.9116,3.8642,3.8088,3.8191,3.8574,3.9173,4.0098,4.1164,4.2216,4.2616,4.303,4.3743,4.3564,4.3908,4.5613,4.5289,4.5469,4.7115,4.7055,4.6995,4.7279,4.7309,4.7309,4.7309,4.7309,4.7309,4.7309,4.5561,4.4233,4.3527,4.2763,4.2012,4.1315,4.2421,4.2557,4.1602,3.8379,3.6497,3.5745,3.4133,3.3386,3.3386,3.3386,3.3386,3.3386,3.3386,3.2829,3.1931,3.1931,3.1931,3.1634,2.9124,2.8205,2.7842,2.5256,2.3727,2.2893,2.2893,2.2893,2.2893,2.2893,2.2893,2.2893,2.2893,2.2893,2.2893,2.2893,2.2125,2.1321,2.1321,1.9877,1.8194,1.7137,1.6927,1.6087,1.3345,1.3067,1.2928,1.1796,1.296,1.4614,1.6333,1.658,1.658,1.658,1.658,1.658,1.658,1.3595,1.296,1.6298,1.658,1.5141,1.1796,1.1584,1.1584,1.1584,1.1584,1.1584,1.1584,1.1584,1.1584,1.1584,1.1584,1.1447,1.1076,1.0809,1.0688,3.5868,3.7978,3.8929,3.8888,3.8706,3.8283,3.7258,3.75,3.802,3.8335,3.92,4.0292,4.1628,4.2171,4.2705,4.3658,4.3668,4.4147,4.5807,4.5747,4.5992,4.716,4.7309,4.7309,4.7309,4.7309,4.7309,4.7309,4.6997,4.6829,4.6829,4.5298,4.3999,4.305,4.2694,4.2109,4.1315,4.2009,4.1574,3.9972,3.7153,3.5591,3.515,3.3955,3.3386,3.3386,3.3386,3.3386,3.3386,3.3386,3.2355,3.0803,3.0803,3.0513,2.9921,2.8163,2.7503,2.7271,2.545,2.3992,2.2893,2.2893,2.2893,2.2893,2.2893,2.2893,2.2893,2.2893,2.2893,2.2791,2.2297,2.1142,1.9987,1.9495,1.8024,1.6373,1.4964,1.4152,1.3274,1.1864,1.1584,1.1584,1.1584,1.1584,1.1584,1.1584,1.1584,1.1584,1.1584,1.1584,1.1584,1.1584,1.1584,1.1584,1.1584,1.1584,1.1584,1.1584,1.1584,1.1584,1.1584,1.1584,1.1584,1.1584,1.1584,1.1584,1.1584,1.1467,1.1124,1.0688,1.0688,1.0688,3.3664,3.5239,3.631,3.8312,3.8325,3.7972,3.8399,3.751,3.6943,3.8155,3.8469,3.8901,4.0247,4.1538,4.2425,4.2485,4.3479,4.4506,4.5244,4.5873,4.651,4.7219,4.7309,4.7309,4.7309,4.7309,4.7309,4.7309,4.6188,4.5494,4.5494,4.3146,4.1764,4.169,4.1003,4.0855,4.1302,4.0926,3.9913,3.8313,3.6619,3.5005,3.3503,3.3449,3.3386,3.3386,3.3386,3.3386,3.3386,3.3386,3.2355,3.0803,3.0803,2.9791,2.8139,2.6314,2.5644,2.5383,2.3624,2.2996,2.2893,2.2893,2.2893,2.2893,2.2893,2.2893,2.2893,2.2893,2.2893,2.2475,2.0721,2.0161,1.9634,1.7779,1.6409,1.5464,1.5358,1.3456,1.1727,1.1619,1.1584,1.1584,1.1584,1.1584,1.1584,1.1584,1.1584,1.1584,1.1584,1.1584,1.1584,1.1584,1.1584,1.1584,1.1584,1.1584,1.1584,1.1584,1.1584,1.1584,1.1584,1.1584,1.1584,1.1584,1.1584,1.1584,1.1616,1.1046,1.0718,1.0688,1.0688,1.0688,3.2916,3.4336,3.5316,3.7015,3.7598,3.7538,3.6775,3.6843,3.709,3.7167,3.7841,3.8676,3.9586,4.0846,4.2032,4.2851,4.3713,4.467,4.5777,4.6151,4.6555,4.7234,4.7309,4.7309,4.7309,4.7309,4.7309,4.7309,4.6873,4.6255,4.5448,4.3764,4.2436,4.1629,4.0888,4.0953,4.1884,4.0006,3.8757,3.8164,3.552,3.3955,3.3386,3.3386,3.3386,3.3386,3.3386,3.3386,3.3386,3.3386,3.1707,2.9148,2.9148,2.8023,2.638,2.5745,2.551,2.5416,2.4783,2.3829,2.2893,2.2893,2.2893,2.2893,2.2893,2.2893,2.2893,2.2893,2.2022,2.0935,2.0265,1.8264,1.5945,1.4054,1.3278,1.2964,1.2964,1.2255,1.1584,1.1584,1.1584,1.1584,1.1584,1.1584,1.1584,1.1584,1.1584,1.1584,1.1584,1.1584,1.1584,1.1584,1.1584,1.1584,1.1584,1.1584,1.1584,1.1584,1.1584,1.1584,1.1584,1.1584,1.1584,1.1584,1.1205,1.1198,1.1616,1.0982,1.0688,1.0688,1.0688,1.0688,3.1251,3.2652,3.3822,3.5516,3.6462,3.6849,3.6313,3.6645,3.7105,3.712,3.7811,3.8601,3.9272,4.0502,4.1762,4.2836,4.3728,4.4611,4.5493,4.5822,4.6211,4.6869,4.6958,4.7055,4.7279,4.7309,4.7309,4.7309,4.6894,4.6107,4.4826,4.3551,4.229,4.1007,4.0668,4.0953,4.1896,3.9255,3.8026,3.8164,3.4953,3.3386,3.3386,3.3386,3.3386,3.3386,3.3386,3.3386,3.3355,3.2756,3.0821,2.8139,2.7544,2.6213,2.4622,2.4622,2.4622,2.4622,2.4622,2.3856,2.2893,2.2893,2.2893,2.2893,2.2893,2.2893,2.2893,2.2893,2.1988,2.0756,1.946,1.6298,1.3135,1.1903,1.1584,1.1584,1.1584,1.1584,1.1584,1.1584,1.1584,1.1584,1.1584,1.1584,1.1584,1.1584,1.1584,1.1584,1.1584,1.1584,1.1584,1.1584,1.1584,1.1584,1.1584,1.1584,1.1584,1.1584,1.1584,1.1584,1.1584,1.1584,1.1489,1.1286,1.089,1.0884,1.1318,1.0917,1.0688,1.0691,1.0894,1.0988,0.0,0.0,0.0,3.3789,3.4929,3.5872,3.7125,3.6915,3.6838,3.808,3.8365,3.8571,3.9272,4.0472,4.1583,4.2261,4.3449,4.4296,4.4296,4.4885,4.5544,4.6196,4.6271,4.6525,4.7219,4.7279,4.7279,4.7309,4.6107,4.4826,4.3575,4.2266,4.0982,3.9736,4.0224,4.0724,4.1197,3.8685,3.7642,3.8082,3.4922,3.3386,3.3386,3.3386,3.3386,3.3386,3.3386,3.3386,3.325,3.1529,2.9759,2.8007,2.6213,2.4419,2.2893,2.2893,2.2893,2.2893,2.2893,2.2893,2.2893,2.2893,2.2893,2.2893,2.2893,2.2893,2.2893,2.2825,2.2791,2.1837,1.8024,1.4334,1.1584,1.1584,1.1584,1.1584,1.1584,1.1584,1.1584,1.1584,1.1584,1.1584,1.1584,1.1584,1.1584,1.1584,1.1584,1.1584,1.1584,1.1584,1.1584,1.1584,1.1584,1.1584,1.1584,1.1584,1.1584,1.1584,1.1584,1.1573,1.1556,1.1556,1.1283,1.0698,1.0688,1.0694,1.0748,1.0694,1.0694,1.0728,1.1345,1.1584,2.7866,0.0,0.0,0.0,0.0,0.0,3.5137,3.5561,3.6013,3.6853,3.736,3.8033,3.9197,4.0113,4.0909,4.1568,4.315,4.4296,4.4296,4.4885,4.5364,4.5559,4.5589,4.5843,4.651,4.657,4.6779,4.7264,4.6107,4.4826,4.3575,4.1406,4.0057,3.9723,4.0224,4.0048,3.9141,3.7988,3.6935,3.6005,3.4232,3.3386,3.3386,3.3386,3.3386,3.3386,3.3386,3.3386,3.325,3.1529,2.9759,2.8007,2.6213,2.4419,2.2893,2.2893,2.2893,2.2893,2.2893,2.2893,2.2893,2.2893,2.2893,2.2893,2.2893,2.2893,2.2613,2.1245,1.9843,1.7914,1.4125,1.2398,1.1584,1.1584,1.1584,1.1584,1.1584,1.1584,1.1584,1.1584,1.1584,1.1584,1.1584,1.1584,1.1584,1.1584,1.1584,1.1584,1.1584,1.1584,1.1584,1.1584,1.1584,1.1584,1.1584,1.1584,1.1584,1.1584,1.1584,1.1387,1.0985,1.0934,1.0857,1.0691,1.0688,1.0901,1.1333,1.0901,1.0911,1.1375,1.1506,1.1584,0.0,0.0,2.862,2.9673,0.0,0.0,3.4106,3.5024,3.5923,3.7404,3.8003,3.8464,3.9257,3.9963,4.0531,4.0905,4.2162,4.3195,4.3464,4.3843,4.4292,4.4825,4.4885,4.5155,4.5807,4.5627,4.5852,4.6809,4.5449,4.4006,4.2759,4.0794,3.9697,3.9697,4.0011,3.9856,3.9204,3.7797,3.6758,3.611,3.4254,3.3386,3.3386,3.3386,3.3386,3.3386,3.3386,3.3386,3.3228,3.0716,2.9115,2.7941,2.5424,2.3795,2.2893,2.2893,2.2893,2.2893,2.2893,2.2893,2.2893,2.2893,2.2893,2.2893,2.2893,2.2893,2.2688,2.1562,1.9698,1.7734,1.6615,1.3982,1.1584,1.1584,1.1584,1.1584,1.1584,1.1584,1.1584,1.1584,1.1584,1.1584,1.1584,1.1584,1.1584,1.1584,1.1584,1.1584,1.1584,1.1584,1.1485,1.1235,1.1208,1.1208,1.1208,1.1208,1.1208,1.1208,1.1208,1.1087,1.0701,1.0928,1.1097,1.1097,1.1097,1.1235,1.1584,1.1267,1.1277,1.1584,1.1584,0.987,0.0,0.0,0.0,2.8076,2.8908,0.0,3.3372,3.4562,3.5772,3.8329,3.8853,3.8898,3.9047,3.9634,4.0098,4.0172,4.0726,4.1433,4.2186,4.2291,4.2705,4.3853,4.4047,4.4347,4.5005,4.4616,4.4779,4.5907,4.4219,4.2605,4.1439,4.0313,3.9697,3.9697,3.9697,3.9767,3.9913,3.7653,3.6625,3.6802,3.4462,3.3347,3.3386,3.3386,3.3386,3.3386,3.3386,3.3292,3.2861,2.9548,2.8205,2.7842,2.429,2.2893,2.2893,2.2893,2.2893,2.2893,2.2893,2.2893,2.2893,2.2893,2.2893,2.2893,2.2893,2.2893,2.2825,2.2544,2.0432,1.8776,2.1067,1.665,1.1584,1.1584,1.1584,1.1584,1.1584,1.1584,1.1584,1.1584,1.1584,1.1584,1.1584,1.1584,1.1584,1.1584,1.1584,1.1584,1.1584,1.1526,1.1279,1.0775,1.0688,1.0748,1.0779,1.0786,1.0786,1.0786,1.0786,1.0786,1.0786,1.1335,1.1584,1.1584,1.1584,1.1584,1.1584,1.1584,1.1584,1.1584,1.0707,0.6606,2.9685,2.9126,2.8721,2.8377,2.8908,0.0,3.1008,3.1805,3.2886,3.5027,3.5461,3.579,3.6883,3.7569,3.8167,3.8691,3.9349,4.0217,4.1418,4.1598,4.1688,4.1942,4.2436,4.302,4.3624,4.4057,4.4246,4.4152,4.238,4.0938,4.0122,3.9839,3.9697,3.9697,3.9697,3.8617,3.6339,3.6139,3.5103,3.3226,3.3013,3.3096,3.3386,3.3386,3.3386,3.3386,3.3386,3.2597,3.1143,2.905,2.8205,2.7842,2.429,2.2893,2.2893,2.2893,2.2893,2.2893,2.2893,2.2893,2.2893,2.2893,2.2893,2.2893,2.2893,2.2893,2.2475,2.0409,1.6585,1.317,1.3662,1.2713,1.1584,1.1584,1.1584,1.1584,1.1584,1.1584,1.1584,1.1584,1.1584,1.1584,1.1584,1.1584,1.1584,1.1584,1.1584,1.1584,1.1584,1.1196,1.0816,1.0698,1.0688,1.0917,1.1367,1.1408,1.1408,1.1408,1.1408,1.1408,1.1408,1.1558,1.1584,1.1584,1.1584,1.1584,1.1584,1.1584,1.1584,1.1436,0.5194,0.1457,3.1055,2.9968,2.9104,2.8501,2.8178,0.0,0.0,2.9805,3.0792,3.3455,3.3994,3.4413,3.5744,3.6252,3.6567,3.6896,3.7778,3.8524,3.8903,4.0086,4.1029,4.1358,4.1688,4.2017,4.2327,4.2656,4.253,4.1715,4.0598,3.9622,3.8894,3.9132,3.9308,3.9308,3.8851,3.7887,3.6406,3.534,3.4299,3.3285,3.2967,3.3018,3.3386,3.3386,3.3386,3.3386,3.3386,3.2397,3.0674,2.8919,2.7677,2.6581,2.3931,2.2893,2.2893,2.2893,2.2893,2.2893,2.2893,2.2893,2.2893,2.2893,2.2893,2.2893,2.2893,2.2893,2.2619,2.1355,1.9176,1.6369,1.257,1.1584,1.1584,1.1584,1.1584,1.1584,1.1584,1.1584,1.1584,1.1584,1.1584,1.1584,1.1584,1.1584,1.1584,1.1584,1.187,1.1952,1.1621,1.1355,1.1134,1.1134,1.1134,1.1256,1.1556,1.1584,1.1584,1.1584,1.1584,1.1584,1.1584,1.1584,1.1584,1.1584,1.1584,1.1584,1.1584,1.1584,1.1584,1.14,0.3635,0.0,3.2409,3.0899,2.9668,2.8666,2.774,2.7273,0.0,0.0,0.0,3.1823,3.2347,3.2811,3.4277,3.4636,3.4725,3.4725,3.6026,3.6731,3.5848,3.7883,3.9798,4.0715,4.1059,4.1209,4.1209,4.1141,4.0608,3.947,3.9072,3.867,3.819,3.8642,3.8944,3.9057,3.8038,3.7358,3.7091,3.4736,3.368,3.3836,3.3052,3.2891,3.3301,3.3357,3.3386,3.3386,3.3386,3.2228,3.0189,2.8788,2.6947,2.4851,2.3461,2.2893,2.2893,2.2893,2.2893,2.2893,2.2893,2.2893,2.2893,2.2893,2.2893,2.2893,2.2893,2.2893,2.2893,2.2893,2.2893,2.117,1.3559,1.1584,1.1584,1.1584,1.1584,1.1584,1.1584,1.1584,1.1584,1.1584,1.1675,1.1755,1.1604,1.1714,1.1712,1.1636,1.2026,1.2159,1.1644,1.1682,1.1745,1.1597,1.1584,1.1584,1.1584,1.1584,1.1584,1.1584,1.1584,1.1584,1.1584,1.1584,1.1584,1.1584,1.1584,1.1584,1.1584,1.1584,1.1584,1.14,0.3635,0.0,3.4633,3.3161,3.1463,2.9085,2.8826,2.8747,2.7181,0.0,2.7824,2.8184,0.0,2.883,3.0717,0.0,0.0,3.1944,3.4067,3.507,3.32,3.4756,3.6731,3.8544,3.9783,4.0502,4.0502,4.0134,3.9445,3.8366,3.8174,3.8326,3.8768,3.8856,3.912,3.9584,3.8245,3.6865,3.5563,3.3955,3.2714,3.182,3.2112,3.2492,3.2881,3.3252,3.3386,3.3386,3.3386,3.1547,2.8468,2.8271,2.6213,2.3195,2.2996,2.2893,2.2893,2.2893,2.2893,2.2893,2.2893,2.2893,2.2893,2.2893,2.2893,2.2893,2.2893,2.2893,2.2893,2.2893,2.2893,2.117,1.3559,1.1584,1.1584,1.1584,1.1584,1.1584,1.1584,1.1584,1.1584,1.1584,1.2043,1.2237,1.1671,1.2054,1.2223,1.1661,1.1677,1.1694,1.1594,1.2077,1.2199,1.1677,1.1584,1.1584,1.1584,1.1584,1.1584,1.1584,1.1584,1.1584,1.1584,1.1584,1.1584,1.1584,1.1584,1.1584,1.1584,1.1584,1.1584,1.14,0.3635,0.0,3.6348,3.539,3.4308,3.1561,3.0808,3.0202,2.8215,2.7677,2.76,2.76,0.0,0.0,0.0,0.0,0.0,0.0,3.0821,3.1793,3.0941,3.2527,3.4651,3.7032,3.8093,3.8862,3.9415,3.8379,3.7649,3.7638,3.6665,3.6483,3.7386,3.8052,3.8479,3.8705,3.7103,3.5918,3.53,3.2975,3.1708,3.1523,3.1993,3.2423,3.2812,3.3232,3.3386,3.3386,3.3386,3.1419,2.8205,2.8205,2.6121,2.2893,2.2893,2.2893,2.2893,2.2893,2.2893,2.2893,2.2893,2.2893,2.2893,2.2893,2.2893,2.2893,2.2893,2.2893,2.2893,2.2893,1.9733,1.5597,1.2431,1.1584,1.1584,1.1584,1.1584,1.1584,1.1584,1.1584,1.1685,1.2064,1.2332,1.2423,1.2172,1.2054,1.1904,1.1657,1.1911,1.2006,1.1664,1.1837,1.1894,1.1647,1.1584,1.1584,1.1584,1.1584,1.1584,1.1584,1.1584,1.1584,1.1584,1.1584,1.1584,1.1584,1.1584,1.1584,1.1584,1.1584,1.1584,1.14,0.3635,0.0,3.7239,3.6443,3.5585,3.3172,3.2073,3.1094,2.9292,2.8366,2.7779,2.7405,2.733,0.0,0.0,0.0,2.748,2.7121,0.0,2.9069,2.8323,2.9924,3.2287,3.5326,3.6552,3.7334,3.7806,3.6959,3.6395,3.6367,3.5624,3.5516,3.6367,3.7286,3.7742,3.7642,3.5976,3.4934,3.4709,3.216,3.1045,3.1348,3.1787,3.2237,3.2637,3.3057,3.331,3.3386,3.3386,3.1419,2.8205,2.8205,2.6121,2.2893,2.2893,2.2893,2.2893,2.2893,2.2893,2.2893,2.2893,2.2893,2.2893,2.2893,2.2893,2.2893,2.2893,2.2893,2.2893,2.2893,1.8927,1.4227,1.2148,1.1584,1.1584,1.1584,1.1584,1.1584,1.1584,1.1584,1.1792,1.2386,1.2501,1.2501,1.2501,1.2145,1.186,1.186,1.2227,1.2288,1.1694,1.1584,1.1584,1.1584,1.1584,1.1584,1.1584,1.1584,1.1584,1.1584,1.1584,1.1584,1.1584,1.1584,1.1584,1.1584,1.1584,1.1584,1.1584,1.1584,1.1597,1.1411,0.364,0.0,3.6994,3.5712,3.4239,3.2854,3.2003,3.1149,2.9862,2.9054,2.8203,2.6899,2.6629,2.6824,2.748,2.76,2.718,2.5884,2.7335,0.0,0.0,2.6482,2.9217,3.3125,3.5325,3.6233,3.5478,3.6307,3.6075,3.4155,3.5462,3.6367,3.6405,3.6921,3.7072,3.6763,3.5234,3.4022,3.318,3.1662,3.0898,3.0918,3.1338,3.1768,3.2237,3.2627,3.3037,3.3386,3.3386,3.1419,2.8205,2.8205,2.6121,2.2893,2.2893,2.2893,2.2893,2.2893,2.2893,2.2893,2.2893,2.2893,2.2893,2.2893,2.2893,2.2893,2.2893,2.2893,2.2893,2.2893,2.2722,2.0853,1.3488,1.1584,1.1584,1.1584,1.1584,1.1584,1.1584,1.1584,1.1792,1.2386,1.2501,1.2501,1.2501,1.2484,1.2474,1.2474,1.2488,1.2288,1.1694,1.1584,1.1584,1.1584,1.1584,1.1584,1.1584,1.1584,1.1584,1.1584,1.1584,1.1584,1.1584,1.1584,1.1584,1.1584,1.1584,1.1584,1.1584,1.1584,1.1605,1.1414,0.3616,0.0,3.8529,3.7455,3.6222,3.4303,3.4349,3.4408,3.2585,3.2018,3.133,2.9549,2.8859,2.8246,2.7138,2.6929,2.6509,0.0,2.5501,2.5648,0.0,2.5959,2.76,2.9382,3.2108,3.3911,3.4025,3.4719,3.4687,3.3467,3.4211,3.5052,3.5757,3.6369,3.6504,3.6119,3.5009,3.3983,3.3095,3.1633,3.0889,3.0898,3.1318,3.1748,3.2218,3.2638,3.3027,3.3323,3.2196,3.036,2.8106,2.6906,2.502,2.2893,2.2893,2.2893,2.2893,2.2893,2.2893,2.2893,2.2893,2.2893,2.2893,2.2893,2.2893,2.2893,2.2893,2.2893,2.2893,2.2893,2.2893,2.2297,1.9733,1.5349,1.1584,1.1584,1.1584,1.1584,1.1584,1.1925,1.226,1.2464,1.2501,1.2501,1.2501,1.2501,1.2501,1.2501,1.2169,1.1847,1.1647,1.1584,1.1584,1.1584,1.1584,1.1584,1.1584,1.1584,1.1584,1.1584,1.1584,1.1584,1.1584,1.1584,1.1584,1.1584,1.1584,0.9072,0.3925,0.9072,0.8941,0.3872,0.1241,0.0,3.9536,3.8314,3.7002,3.5569,3.553,3.5553,3.4463,3.3844,3.32,3.2138,3.1031,2.9953,2.8891,2.8141,2.7228,0.0,0.0,2.5064,0.0,2.5001,2.5866,2.6779,2.9541,3.1709,3.2567,3.2981,3.3177,3.3105,3.3429,3.4085,3.5167,3.5299,3.5211,3.4834,3.389,3.2966,3.2084,3.1303,3.0889,3.0898,3.1162,3.1206,3.1097,3.1475,3.153,3.1303,3.0298,2.8878,2.7146,2.5979,2.4486,2.2893,2.2893,2.2893,2.2893,2.2893,2.2893,2.2893,2.2893,2.2893,2.2893,2.2893,2.2893,2.2893,2.2893,2.2893,2.2893,2.2893,2.2893,2.2297,1.9594,1.7243,1.4929,1.2255,1.1584,1.1584,1.1584,1.2084,1.2501,1.2501,1.2501,1.2501,1.2501,1.2501,1.243,1.222,1.1864,1.1584,1.1584,1.1584,1.1584,1.1584,1.1584,1.1584,1.1584,1.1584,1.1584,1.1584,1.1584,1.1584,1.1584,1.1584,1.1584,1.1584,1.1584,0.7765,0.0,0.5049,0.4904,0.0,0.0,0.0]}]]